     2              OBSERVATION DATA    GPS                 RINEX VERSION / TYPE
ASHTORIN MIT 05 - NOV - 96 18:26                            PGM / RUN BY / DATE
                                                            COMMENT
CHINA LAKE 1996 EXPT#2 P-Code Ashtech                       COMMENT
Original Marker Name: GS22                                  COMMENT
Campaign Name: China Lake Nov 1996                          COMMENT
4-Character Station Name: GS22                              COMMENT
6-Character Antenna Code: ASHP12                            COMMENT
Vertical Measurement Point: TGP                             COMMENT
Vertical Offset to Rinex Ref. Point: 0.0640                 COMMENT
Radial Measurement Point: RRP                               COMMENT
Radial Offset to Rinex Ref. Point: 0.0000                   COMMENT
Antenna Height from Field Measurement: 0.1980 m             COMMENT
Additional Antenna Identification Info.:                    COMMENT
Ashtech L1/L2 Revision B (700228DE)                         COMMENT
Original XYZ: -2428152.4000 -4572505.9100 3715143.6800      COMMENT
New XYZ position is based on association with SCEC monument COMMENT
E1F4E2W0+0011. Position of that monument is believed to be  COMMENT
valid to within 1 m horizontally; vertical accuracy         COMMENT
should be no worse than 3-times this value.                 COMMENT
                                                            COMMENT
Revised Rinex header created by UCSD GPS archive for        COMMENT
GSAC on 01-Aug-2000 (2000:214) 04:40:01 GMT                 COMMENT
For assistance contact dagnew@ucsd.edu                      COMMENT
or anderson@python.ucsd.edu                                 COMMENT
                                                            COMMENT
GO22                                                        MARKER NAME
                                                            MARKER NUMBER
RES US DEFENSE MAPPING AGENCY                               OBSERVER / AGENCY
426 ASHTECH Z-XII3 1G001C7                                  REC # / TYPE / VERS
452 ASHTECH GEODETIC P                                      ANT # / TYPE
 -2428156.3178 -4572571.9450  3715168.8505                  APPROX POSITION XYZ
        0.1340        0.0000        0.0000                  ANTENNA: DELTA H/E/N
     1     1     0                                          WAVELENGTH FACT L1/2
     7    L1    L2    C1    P1    P2    D1    D2            # / TYPES OF OBSERV
    30                                                      INTERVAL
  1996    10    31    16    20   30.000000                  TIME OF FIRST OBS
  1996    10    31    22    29   60.000000                  TIME OF LAST OBS
                                                            END OF HEADER
 96 10 31 16 20 30.0000000  0  7 21  3 17  1 28  9 23               -0.000054098
    -39383.60319    -21632.66356  17270631.952           0.0005          0.0005
      1920.560        1496.540
    -57510.99619    -35121.47856  17817386.158           0.0005          0.0005
      2277.021        1774.302
     12009.08319      6723.83758  17412393.226           0.0005   17412401.4195
      -604.211        -470.814
    -87424.89919    -46022.82552  18556271.253           0.0005          0.0005
      4122.675        3212.474
     14653.48919      7723.92159  17036737.626           0.0005   17036744.4135
      -695.409        -541.877
    -61441.15618    -38331.42352  20350717.308           0.0005          0.0005
      2473.616        1927.493
      3128.38119      1811.27258  17220764.583           0.0005   17220770.1615
      -163.356        -127.290
 96 10 31 16 21  0.0000000  0  7 21  3 17  1 28  9 23               -0.000071918
    -96908.659 9    -66955.44056  17259684.240           0.0004          0.0005
      1914.591        1491.889
   -125541.083 9    -87649.86954  17804440.954           0.0004          0.0005
      2258.571        1759.925
     30288.719 9     20967.69148  17415871.969    17415873.3785   17415879.8104
      -614.208        -478.604
   -210972.349 9   -142293.61957  18532761.360           0.0004   18532769.8585
      4114.262        3205.918
     35776.340 9     24183.27049  17040756.815    17040758.4915   17040763.9934
      -712.585        -555.261
   -135489.252 9    -96031.01156  20336614.088           0.0004          0.0005
      2463.155        1919.341
      8137.162 9      5714.21748  17221715.261    17221717.3915   17221723.2364
      -170.140        -132.577
 96 10 31 16 21 30.0000000  0  7 21  3 17  1 28  9 23                0.000327671
   -154221.073 9   -112135.67054  21146080.640           0.0004          0.0005
      1907.262        1486.178
   -192982.579 9   -139694.50355  21688908.068           0.0004          0.0005
      2239.145        1744.788
     48877.943 9     35452.78748  21316709.977    21316712.7654   21316719.2174
      -626.045        -487.827
   -334216.925 9   -238328.31847  22406611.009    22406612.1015   22406619.3304
      4105.247        3198.894
     57414.187 9     41043.921 9  20942176.358    20942178.024    20942183.589
      -730.946        -569.568
   -209182.788 9   -153454.53856  24219898.323    24219892.8785   24219899.1435
      2451.471        1910.237
     13342.459 9      9770.28748  21120008.777    21120009.8864   21120015.7474
      -177.228        -138.100
 96 10 31 16 22  0.0000000  0  7 21  3 17  1 28  9 23                0.000309828
   -211346.049 9    -18235.94258  21135207.625           0.0005   21135217.3615
      1900.337        1480.782
   -259894.891 9    -30880.78158  21676174.235           0.0005   21676183.0325
      2220.981        1730.635
     67809.386 9     50204.54858  21320313.176    21320315.3085   21320321.7695
      -636.714        -496.141
   -457263.712 9   -334208.89357  22383194.229    22383197.1005   22383204.2745
      4097.054        3192.510
     79590.617 9     58324.23319  20946397.793    20946398.0721   20946403.6631
      -748.240        -583.044
   -282576.702 9   -210644.56556  24205926.987    24205925.8534   24205932.8645
      2440.598        1901.765
     18728.301 9     13967.04058  21121033.612    21121034.7995   21121040.6535
      -182.473        -142.187
 96 10 31 16 22 30.0000000  0  7 21  3 17  1 28  9 23                0.000292004
   -268272.500 9    -62594.21148  21124375.930    21124378.2095   21124384.4914
      1894.795        1476.464
   -326264.619 9    -82597.45548  21663545.209    21663547.8415   21663553.6844
      2203.729        1717.191
     87062.349 9     65206.83348  21323977.129    21323979.0574   21323985.4954
      -646.721        -503.938
   -580060.812 9   -429894.92247  22359827.302    22359829.7054   22359836.7544
      4089.309        3186.475
    102285.933 9     76008.879 9  20950716.197    20950716.844    20950722.482
      -764.698        -595.869
   -355639.258 9   -267576.39646  24192020.441    24192022.7755   24192029.6374
      2430.228        1893.684
     24268.804 9     18284.30748  21122087.930    21122089.1194   21122094.9924
      -186.833        -145.584
 96 10 31 16 23  0.0000000  0  7 21  3 17  1 28  9 23                0.000274178
   -324983.407 9   -106784.52648  21113584.566    21113586.4734   21113592.7644
      1886.412        1469.931
   -392086.824 9   -133887.48648  21651019.943    21651022.2684   21651028.1794
      2184.948        1702.557
    106638.583 9     80461.02648  21327702.680    21327704.3144   21327710.7474
      -657.779        -512.555
   -702583.120 9   -525366.83147  22336512.586    22336514.4684   22336521.5304
      4079.515        3178.843
    125506.849 9     94103.083 9  20955134.668    20955135.653    20955141.310
      -782.833        -610.000
   -428351.464 9   -324235.21146  24178183.443    24178185.9304   24178192.9734
      2417.831        1884.024
     29968.244 9     22725.42148  21123172.458    21123173.7254   21123179.5734
      -192.622        -150.095
 96 10 31 16 23 30.0000000  0  7 21  3 17  1 28  9 23                0.000256364
   -381451.345 9   -150785.52148  21102839.273    21102840.9964   21102847.2214
      1878.529        1463.789
   -457346.627 9   -184739.30048  21638601.570    21638603.7624   21638609.6564
      2166.248        1687.985
    126545.721 9     95973.06748  21331491.005    21331492.5474   21331499.0024
      -668.780        -521.127
   -824810.789 9   -620609.17148  22313253.489    22313255.3204   22313262.3344
      4069.263        3170.854
    149269.221 9    112619.200 9  20959656.412    20959657.515    20959663.158
      -800.795        -623.996
   -500693.126 9   -380605.33946  24164418.869    24164419.7844   24164426.6774
      2405.518        1874.430
     35835.235 9     27297.10048  21124288.997    21124290.2164   21124296.0584
      -198.107        -154.369
 96 10 31 16 24  0.0000000  0  7 21  3 17  1 28  9 23                0.000238525
   -437736.580 9   -194644.12848  21092128.655    21092130.2764   21092136.4804
      1873.178        1459.619
   -522101.209 9   -235197.41148  21626279.206    21626281.3654   21626287.3334
      2150.008        1675.331
    146714.870 9    111689.28048  21335329.086    21335330.6394   21335337.1034
      -676.418        -527.079
   -946779.909 9   -715650.03247  22290043.711    22290045.4214   22290052.3454
      4061.521        3164.822
    173512.567 9    131510.104 9  20964269.669    20964270.891    20964276.567
      -816.045        -635.879
   -572713.122 9   -436724.76546  24150714.034    24150714.8204   24150721.6994
      2395.207        1866.395
     41815.893 9     31957.35148  21125427.129    21125428.3544   21125434.1754
      -201.256        -156.823
 96 10 31 16 24 30.0000000  0  7 21  3 17  1 28  9 23                0.000220686
   -493805.603 9   -238334.26148  21081459.174    21081460.7094   21081466.9354
      1864.799        1453.090
   -586318.691 9   -285237.00148  21614059.179    21614061.1954   21614067.1944
      2131.395        1660.827
    167162.582 9    127622.54548  21339220.208    21339221.7294   21339228.2174
      -686.582        -534.999
  -1068468.063 9   -810471.95248  22266887.307    22266888.9644   22266895.8214
      4051.222        3156.796
    198264.606 9    150797.398 9  20968979.807    20968981.084    20968986.773
      -833.884        -649.780
   -644376.397 9   -492566.25446  24137077.171    24137077.7754   24137084.7294
      2382.622        1856.589
     47951.171 9     36738.08748  21126594.611    21126595.8924   21126601.7264
      -207.635        -161.793
 96 10 31 16 25  0.0000000  0  7 21  3 17  1 28  9 23                0.000202847
   -549599.127 9   -281809.72848  21070842.118    21070843.5664   21070849.7884
      1854.721        1445.237
   -649970.296 9   -334835.66148  21601946.711    21601948.7344   21601954.7144
      2111.769        1645.534
    187919.297 9    143796.58948  21343170.184    21343171.6374   21343178.1524
      -697.463        -543.478
  -1189837.525 9   -905045.54648  22243791.648    22243793.1404   22243799.9764
      4040.055        3148.095
    223560.909 9    170508.786 9  20973793.550    20973794.855    20973800.554
      -852.645        -664.399
   -715653.053 9   -548106.49646  24123513.634    24123514.2574   24123521.2684
      2369.061        1846.022
     54288.430 9     41676.20948  21127800.519    21127801.8674   21127807.7064
      -215.038        -167.562
 96 10 31 16 25 30.0000000  0  7 21  3 17  1 28  9 23                0.000185025
   -605103.311 9   -325059.73548  21060279.996    21060281.4574   21060287.7134
      1845.068        1437.715
   -713023.860 9   -383968.30248  21589948.008    21589950.0304   21589956.0994
      2091.414        1629.673
    209011.316 9    160231.91348  21347183.848    21347185.3264   21347191.8724
      -708.968        -552.442
  -1310876.883 9   -999361.91748  22220758.652    22220760.1874   22220766.9704
      4028.749        3139.285
    249418.629 9    190657.646 9  20978714.092    20978715.462    20978721.164
      -871.503        -679.093
   -786524.662 9   -603331.12046  24110027.250    24110027.8764   24110034.8894
      2355.424        1835.395
     60846.626 9     46786.49248  21129048.534    21129049.8734   21129055.7434
      -222.520        -173.392
 96 10 31 16 26  0.0000000  0  7 21  3 17  1 28  9 23                0.000167235
   -660300.155 9   -368070.26348  21049776.455    21049777.8784   21049784.0774
      1834.545        1429.515
   -775451.475 9   -432613.19548  21578068.472    21578070.4524   21578076.5584
      2070.172        1613.121
    230452.400 9    176939.22848  21351263.982    21351265.4584   21351272.0354
      -720.612        -561.516
  -1431569.751 9  -1093408.28948  22197791.590    22197793.0964   22197799.8514
      4017.417        3130.455
    275850.658 9    211254.019 9  20983743.938    20983745.349    20983751.057
      -890.782        -694.116
   -856978.230 9   -658230.00846  24096619.848    24096620.9484   24096628.0064
      2341.453        1824.509
     67640.205 9     52080.18848  21130341.294    21130342.6914   21130348.5514
      -230.560        -179.657
 96 10 31 16 26 30.0000000  0  7 21  3 17  1 28  9 23                0.000149467
   -715184.486 9   -410837.27048  21039332.268    21039333.7374   21039339.9804
      1824.636        1421.794
   -837240.893 9   -480760.79948  21566310.470    21566312.4044   21566318.4804
      2049.267        1596.831
    252250.855 9    193925.01348  21355412.113    21355413.6054   21355420.1614
      -732.561        -570.827
  -1551921.725 9  -1187189.03948  22174889.427    22174890.9434   22174897.6404
      4006.007        3121.564
    302860.324 9    232300.495 9  20988883.742    20988885.169    20988890.887
      -909.746        -708.893
   -927023.138 9   -712810.46746  24083289.910    24083291.8684   24083298.8524
      2328.351        1814.299
     74680.525 9     57566.14948  21131680.988    21131682.4144   21131688.2944
      -238.587        -185.912
 96 10 31 16 27  0.0000000  0  7 21  3 17  1 28  9 23                0.000131727
   -769778.172 9   -453377.80848  21028943.541    21028944.9364   21028951.2134
      1815.174        1414.421
   -898393.304 9   -528412.03248  21554673.547    21554675.5034   21554681.5634
      2027.630        1579.971
    274417.142 9    211197.42348  21359630.245    21359631.7344   21359638.3014
      -745.100        -580.597
  -1671925.073 9  -1280698.12648  22152053.600    22152055.0744   22152061.7684
      3994.341        3112.474
    330441.023 9    253791.928 9  20994132.117    20994133.622    20994139.355
      -928.786        -723.729
   -996662.422 9   -767074.84946  24070038.184    24070040.0244   24070047.0054
      2314.457        1803.473
     81953.077 9     63233.06748  21133064.957    21133066.3544   21133072.2534
      -246.131        -191.790
 96 10 31 16 27 30.0000000  0  7 21  3 17  1 28  9 23                0.000114030
   -824101.736 9   -495707.86148  21018606.058    21018607.4784   21018613.8084
      1806.449        1407.623
   -958898.292 9   -575558.77748  21543159.910    21543161.8044   21543167.8804
      2006.442        1563.461
    296963.097 9    228765.68048  21363920.571    21363922.1194   21363928.7074
      -757.807        -590.499
  -1791572.879 9  -1373930.16848  22129285.311    22129286.8444   22129293.5664
      3982.208        3103.019
    358590.541 9    275726.601 9  20999488.816    20999490.331    20999496.083
      -947.670        -738.444
  -1065887.515 9   -821016.47546  24056865.607    24056866.9584   24056873.9244
      2300.550        1792.636
     89454.514 9     69078.33948  21134492.411    21134493.8574   21134499.7614
      -253.811        -197.775
 96 10 31 16 28  0.0000000  0  7 21  3 17  1 28  9 23                0.000096362
   -878147.328 9   -537821.30648  21008321.561    21008322.9824   21008329.3054
      1796.990        1400.252
  -1018771.239 9   -622213.02448  21531766.424    21531768.3634   21531774.4814
      1985.422        1547.082
    319901.328 9    246639.61048  21368285.649    21368287.1614   21368293.7744
      -771.111        -600.866
  -1910847.188 9  -1466871.18148  22106588.172    22106589.7414   22106596.3894
      3969.825        3093.370
    387310.048 9    298105.418 9  21004953.955    21004955.508    21004961.258
      -966.585        -753.183
  -1134677.981 9   -874619.42446  24043774.659    24043776.5554   24043783.5164
      2285.864        1781.193
     97194.997 9     75109.88148  21135965.389    21135966.8624   21135972.7504
      -261.810        -204.008
 96 10 31 16 28 30.0000000  0  7 21  3 17  1 28  9 23                0.000078733
   -931901.537 9   -579707.70348  20998092.531    20998093.9384   20998100.2514
      1787.426        1392.799
  -1078011.442 9   -668374.22848  21520493.379    21520495.3454   21520501.4774
      1964.755        1530.978
    343257.642 9    264839.31848  21372730.293    21372731.7714   21372738.3934
      -785.102        -611.768
  -2029734.201 9  -1559510.38848  22083964.752    22083966.3064   22083972.9824
      3956.762        3083.191
    416604.867 9    320932.531 9  21010528.608    21010530.158    21010535.912
      -985.635        -768.027
  -1203013.529 9   -927867.87746  24030771.208    24030772.6694   24030779.5964
      2270.497        1769.218
    105181.368 9     81333.02048  21137485.198    21137486.6384   21137492.5424
      -269.712        -210.165
 96 10 31 16 29  0.0000000  0  7 21  3 17  1 28  9 23                0.000061128
   -985385.140 9   -621383.23648  20987914.934    20987916.3734   20987922.6974
      1777.289        1384.900
  -1136649.419 9   -714066.16048  21509334.957    21509336.9274   21509343.0604
      1943.770        1514.626
    367006.611 9    283344.98548  21377249.581    21377251.0874   21377257.7314
      -798.581        -622.271
  -2148253.218 9  -1651862.85348  22061411.471    22061412.8934   22061419.6014
      3943.818        3073.105
    446450.422 9    344188.789 9  21016208.050    21016209.608    21016215.367
     -1004.703        -782.885
  -1270901.383 9   -980767.47146  24017852.375    24017854.0744   24017860.9174
      2254.769        1756.963
    113376.587 9     87718.90248  21139044.685    21139046.1414   21139052.0494
      -277.467        -216.208
 96 10 31 16 29 30.0000000  0  7 21  3 17  1 28  9 23                0.000043551
  -1038570.569 9   -662826.43148  20977794.113    20977795.5354   20977801.8784
      1768.160        1377.787
  -1194675.247 9   -759281.10048  21498292.981    21498295.0144   21498301.1534
      1924.517        1499.624
    391133.112 9    302144.83948  21381840.736    21381842.2474   21381848.9094
      -810.019        -631.184
  -2266392.462 9  -1743919.40348  22038930.324    22038931.7464   22038938.4174
      3931.966        3063.870
    476853.853 9    367879.752 9  21021993.639    21021995.224    21022001.003
     -1022.374        -796.655
  -1338339.173 9  -1033316.36346  24005020.039    24005021.1254   24005027.9464
      2240.851        1746.118
    121796.970 9     94280.23148  21140647.013    21140648.5264   21140654.4164
      -283.966        -221.272
 96 10 31 16 30  0.0000000  0  7 21  3 17  1 28  9 23                0.000025969
  -1091482.579 9   -704056.56948  20967725.230    20967726.7364   20967733.0914
      1759.123        1370.745
  -1252121.052 9   -804044.06948  21487361.492    21487363.4744   21487369.6224
      1904.775        1484.240
    415591.046 9    321202.95248  21386494.958    21386496.5144   21386503.1604
      -820.705        -639.510
  -2384194.419 9  -1835713.11748  22016513.354    22016514.7694   22016521.4644
      3921.128        3055.424
    507781.966 9    391979.562 9  21027879.124    21027880.690    21027886.469
     -1039.833        -810.259
  -1405366.840 9  -1085545.67746  23992265.291    23992266.2284   23992273.0094
      2227.496        1735.711
    130397.462 9    100981.90548  21142283.703    21142285.1654   21142291.0794
      -289.755        -225.783
 96 10 31 16 30 30.0000000  0  7 21  3 17  1 28  9 23                0.000008394
  -1144116.542 9   -745070.04548  20957709.329    20957710.8184   20957717.1814
      1750.305        1363.874
  -1308954.052 9   -848329.52848  21476546.523    21476548.5144   21476554.7204
      1884.516        1468.454
    440379.265 9    340518.42948  21391212.077    21391213.5954   21391220.2714
      -831.403        -647.846
  -2501649.493 9  -1927236.53348  21994162.328    21994163.8114   21994170.5734
      3909.730        3046.543
    539254.745 9    416503.787 9  21033868.178    21033869.786    21033875.573
     -1057.883        -824.324
  -1471985.495 9  -1137456.27146  23979588.138    23979589.1094   23979595.8864
      2214.143        1725.306
    139195.591 9    107837.58348  21143957.998    21143959.4374   21143965.3574
      -296.385        -230.949
 96 10 31 16 31  0.0000000  0  7 21  3 17  1 28  9 23               -0.000009187
  -1196494.280 9   -785883.87048  20947742.195    20947743.6964   20947750.0384
      1741.335        1356.884
  -1365179.001 9   -892141.19048  21465847.267    21465849.2554   21465855.4174
      1863.592        1452.150
    465485.374 9    360081.61248  21395989.620    21395991.1574   21395997.8424
      -842.529        -656.516
  -2618774.279 9  -2018502.59348  21971874.248    21971875.7404   21971882.4624
      3898.333        3037.662
    571261.465 9    441444.072 9  21039958.878    21039960.500    21039966.291
     -1076.034        -838.468
  -1538210.799 9  -1189060.38346  23966985.681    23966986.8624   23966993.6424
      2200.638        1714.783
    148190.984 9    114846.96948  21145669.791    21145671.2354   21145677.1564
      -303.513        -236.504
 96 10 31 16 31 29.9990000  0  7 21  3 17  1 28  9 23               -0.000026769
  -1248620.877 9   -826501.99548  20937822.820    20937824.3374   20937830.7074
      1733.253        1350.587
  -1420787.058 9   -935472.14248  21455265.364    21455267.4074   21455273.6364
      1843.058        1436.149
    490920.537 9    379901.20648  21400829.825    21400831.3264   21400838.0094
      -854.121        -665.549
  -2735565.328 9  -2109508.59148  21949649.714    21949651.1474   21949657.8104
      3887.370        3029.119
    603795.943 9    466795.597 9  21046150.014    21046151.629    21046157.425
     -1093.717        -852.247
  -1604037.670 9  -1240354.02346  23954459.204    23954460.4144   23954467.2404
      2187.162        1704.282
    157389.353 9    122014.52248  21147420.222    21147421.6834   21147427.6134
      -310.254        -241.756
 96 10 31 16 31 59.9990000  0  7 21  3 17  1 28  9 23               -0.000044344
  -1300501.525 9   -866928.47548  20927950.287    20927951.7764   20927958.1704
      1725.815        1344.791
  -1475769.025 9   -978315.25048  21444802.705    21444804.7064   21444810.8674
      1822.731        1420.310
    516723.034 9    400007.03348  21405739.842    21405741.3904   21405748.0944
      -865.802        -674.651
  -2852026.612 9  -2200257.62748  21927487.861    21927489.3244   21927495.9854
      3876.805        3020.887
    636868.669 9    492566.535 9  21052443.555    21052445.191    21052450.999
     -1110.851        -865.598
  -1669447.773 9  -1291322.90646  23942011.458    23942013.2364   23942020.1514
      2173.777        1693.852
    166793.660 9    129342.54348  21149209.812    21149211.2844   21149217.2144
      -316.414        -246.556
 96 10 31 16 32 29.9990000  0  7 21  3 17  1 28  9 23               -0.000061930
  -1352177.036 9   -907195.10848  20918116.681    20918118.2594   20918124.6794
      1718.849        1339.363
  -1530169.531 9  -1020705.26548  21434450.662    21434452.7114   21434458.8854
      1803.848        1405.596
    542867.583 9    420379.39648  21410714.986    21410716.5414   21410723.2974
      -877.409        -683.695
  -2968176.400 9  -2290763.94748  21905385.326    21905386.7554   21905393.4134
      3866.457        3012.824
    670434.609 9    518721.794 9  21058830.921    21058832.613    21058838.424
     -1127.063        -878.231
  -1734469.237 9  -1341988.96646  23929638.816    23929640.0194   23929646.8764
      2160.690        1683.655
    176364.822 9    136800.58748  21151031.204    21151032.6484   21151038.5604
      -321.796        -250.750
 96 10 31 16 32 59.9990000  0  7 21  3 17  1 28  9 23               -0.000079532
  -1403623.224 9   -947283.04648  20908326.841    20908328.3804   20908334.7794
      1710.830        1333.114
  -1583994.094 9  -1062646.49348  21424208.188    21424210.2324   21424216.4204
      1784.386        1390.431
    569377.265 9    441036.27748  21415759.604    21415761.1804   21415767.9114
      -889.762        -693.321
  -3084000.544 9  -2381016.51348  21883344.665    21883346.1444   21883352.7844
      3854.886        3003.807
    704497.203 9    545264.054 9  21065312.872    21065314.536    21065320.320
     -1143.850        -891.312
  -1799075.329 9  -1392331.36546  23917344.550    23917345.8994   23917352.8094
      2146.268        1672.417
    186101.758 9    144387.80448  21152884.053    21152885.5534   21152891.4764
      -327.314        -255.050
 96 10 31 16 33 29.9990000  0  7 21  3 17  1 28  9 23               -0.000097130
  -1454846.259 9   -987197.10248  20898579.471    20898580.9924   20898587.3614
      1702.280        1326.452
  -1637245.138 9  -1104140.82848  21414074.926    21414076.9144   21414083.0974
      1763.858        1374.435
    596232.337 9    461962.29548  21420869.964    21420871.5714   21420878.3054
      -902.271        -703.068
  -3199479.453 9  -2471000.06848  21861369.747    21861371.2754   21861377.9124
      3841.826        2993.631
    739050.576 9    572188.742 9  21071888.204    21071889.861    21071895.634
     -1161.536        -905.093
  -1863259.588 9  -1442345.07346  23905130.681    23905132.0684   23905138.9584
      2130.998        1660.518
    195988.017 9    152091.37848  21154765.344    21154766.8554   21154772.7864
      -333.591        -259.941
 96 10 31 16 33 59.9990000  0  7 21  3 17  1 28  9 23               -0.000114716
  -1505846.147 9  -1026937.27848  20888874.543    20888876.0584   20888882.4544
      1695.919        1321.495
  -1689915.897 9  -1145182.98848  21404052.057    21404054.0694   21404060.2144
      1745.666        1360.259
    623420.429 9    483147.80748  21426043.726    21426045.3284   21426052.0614
      -911.995        -710.645
  -3314591.347 9  -2560697.63348  21839464.668    21839466.2144   21839472.8904
      3830.321        2984.666
    774101.791 9    599501.360 9  21078558.220    21078559.891    21078565.701
     -1177.031        -917.167
  -1927017.369 9  -1492026.45046  23892997.524    23892999.3564   23893006.2764
      2117.613        1650.088
    206028.398 9    159915.04648  21156675.969    21156677.5064   21156683.4364
      -337.805        -263.225
 96 10 31 16 34 29.9990000  0  7 21  3 17  1 28  9 23               -0.000132312
  -1556665.535 9  -1066536.80648  20879203.912    20879205.4584   20879211.8514
      1691.581        1318.115
  -1742054.394 9  -1185810.39448  21394130.407    21394132.4304   21394138.5924
      1729.738        1347.848
    650883.223 9    504547.36848  21431269.795    21431271.3914   21431278.0954
      -919.223        -716.278
  -3429364.464 9  -2650131.22248  21817624.093    21817625.6294   21817632.2864
      3821.002        2977.404
    809606.448 9    627167.305 9  21085314.589    21085316.273    21085322.034
     -1190.334        -927.533
  -1990380.109 9  -1541400.01046  23880939.802    23880941.8334   23880948.7804
      2106.146        1641.153
    216188.837 9    167832.26548  21158609.473    21158610.9634   21158616.9154
      -340.075        -264.994
 96 10 31 16 34 59.9990000  0  7 21  3 17  1 28  9 23               -0.000149920
  -1607324.657 9  -1106011.44748  20869563.749    20869565.3304   20869571.7574
      1685.641        1313.486
  -1793668.914 9  -1226029.51848  21384308.548    21384310.5754   21384316.6994
      1710.973        1333.226
    678591.726 9    526138.39148  21436542.541    21436544.1604   21436550.8854
      -928.079        -723.178
  -3543827.284 9  -2739323.02148  21795842.574    21795844.1024   21795850.7514
      3809.735        2968.625
    845540.858 9    655168.120 9  21092152.685    21092154.385    21092160.174
     -1205.428        -939.295
  -2053365.146 9  -1590479.25446  23868954.141    23868956.1554   23868963.0704
      2092.758        1630.721
    226449.883 9    175827.87748  21160562.084    21160563.6214   21160569.5774
      -344.141        -268.162
 96 10 31 16 35 29.9990000  0  7 21  3 17  1 28  9 23               -0.000167535
  -1657839.968 9  -1145374.02848  20859951.112    20859952.6224   20859959.0134
      1681.157        1309.992
  -1844748.535 9  -1265831.82748  21374588.450    21374590.4324   21374596.5524
      1693.674        1319.746
    706531.939 9    547909.97348  21441859.417    21441861.0424   21441867.7664
      -935.542        -728.994
  -3657996.309 9  -2828285.88448  21774116.953    21774118.4444   21774125.1264
      3801.078        2961.879
    881891.677 9    683493.417 9  21099070.034    21099071.756    21099077.544
     -1218.648        -949.596
  -2115990.657 9  -1639278.33746  23857037.311    23857038.8914   23857045.8334
      2081.689        1622.095
    236802.873 9    183895.13848  21162532.212    21162533.7444   21162539.6984
      -346.786        -270.223
 96 10 31 16 35 59.9990000  0  7 21  3 17  1 28  9 23               -0.000185197
  -1708185.995 9  -1184604.70248  20850370.546    20850372.0924   20850378.4894
      1675.127        1305.294
  -1895294.144 9  -1305218.02948  21364969.982    21364971.9524   21364978.0974
      1675.927        1305.917
    734735.628 9    569886.85748  21447226.436    21447228.0304   21447234.8054
      -944.881        -736.271
  -3771901.680 9  -2917043.30348  21752441.356    21752442.9944   21752449.6634
      3792.564        2955.245
    918657.512 9    712142.098 9  21106066.368    21106068.081    21106073.873
     -1232.453        -960.353
  -2178263.922 9  -1687802.94346  23845186.591    23845188.7104   23845195.5624
      2069.805        1612.835
    247255.049 9    192039.68248  21164521.256    21164522.7544   21164528.7024
      -350.111        -272.814
 96 10 31 16 36 29.9990000  0  7 21  3 17  1 28  9 23               -0.000202911
  -1758348.306 9  -1223692.21048  20840825.003    20840826.5274   20840832.9474
      1669.134        1300.624
  -1945295.980 9  -1344180.50548  21355454.920    21355456.8894   21355463.0904
      1657.656        1291.680
    763230.836 9    592090.89548  21452648.955    21452650.5104   21452657.2924
      -954.637        -743.873
  -3885557.646 9  -3005606.38248  21730813.436    21730814.9914   21730821.6384
      3784.654        2949.081
    955836.995 9    741113.103 9  21113141.389    21113143.124    21113148.936
     -1246.009        -970.916
  -2240187.515 9  -1736055.06546  23833402.791    23833405.0714   23833411.9034
      2058.778        1604.243
    257805.872 9    200261.09448  21166528.956    21166530.4854   21166536.4844
      -353.060        -275.112
 96 10 31 16 36 59.9990000  0  7 21  3 17  1 28  9 23               -0.000220683
  -1808315.658 9  -1262627.80948  20831316.553    20831318.0854   20831324.5064
      1662.138        1295.172
  -1994735.569 9  -1382704.88048  21346046.894    21346048.8584   21346055.0604
      1638.582        1276.817
    792030.091 9    614531.85748  21458129.281    21458130.8574   21458137.6544
      -965.091        -752.019
  -3998965.223 9  -3093975.90548  21709232.608    21709234.2554   21709240.9474
      3775.771        2942.159
    993433.517 9    770409.073 9  21120295.820    21120297.533    21120303.346
     -1260.302        -982.054
  -2301776.171 9  -1784046.19446  23821682.586    23821685.1324   23821691.9504
      2047.162        1595.191
    268455.174 9    208559.24148  21168555.397    21168556.9894   21168562.9924
      -356.772        -278.004
 96 10 31 16 37 29.9990000  0  7 21  3 17  1 28  9 23               -0.000238537
  -1858099.225 9  -1301420.19748  20821843.061    20821844.5864   20821851.0434
      1656.026        1290.410
  -2043641.912 9  -1420813.72848  21336740.336    21336742.3494   21336748.5454
      1621.065        1263.168
    821109.712 9    637191.28248  21463663.002    21463664.5604   21463671.3314
      -974.303        -759.197
  -4112129.996 9  -3182156.23348  21687698.121    21687699.7214   21687706.3934
      3767.564        2935.764
   1031429.397 9    800016.231 9  21127526.179    21127527.904    21127533.738
     -1273.522        -992.355
  -2363046.874 9  -1831789.57346  23810023.603    23810025.6974   23810032.5054
      2036.669        1587.015
    279190.283 9    216924.24748  21170598.211    21170599.8384   21170605.8364
      -359.688        -280.276
 96 10 31 16 37 59.9990000  0  7 21  3 17  1 28  9 23               -0.000256471
  -1907707.251 9  -1340075.79948  20812403.017    20812404.4984   20812410.9714
      1651.296        1286.724
  -2092020.442 9  -1458511.29148  21327534.172    21327536.2054   21327542.4344
      1604.007        1249.876
    850460.584 9    660062.07448  21469248.323    21469249.8574   21469256.6524
      -982.359        -765.475
  -4225028.556 9  -3270129.12048  21666214.222    21666215.8484   21666222.4884
      3758.579        2928.763
   1069824.015 9    829934.096 9  21134832.452    21134834.186    21134840.036
     -1286.320       -1002.327
  -2423986.833 9  -1879275.21046  23798427.047    23798429.1774   23798436.0614
      2025.790        1578.538
    290015.140 9    225359.19448  21172658.133    21172659.7764   21172665.7624
      -362.005        -282.082
 96 10 31 16 38 29.9990000  0  7 21  3 17  1 28  9 23               -0.000274452
  -1957186.152 9  -1378630.78248  20802987.445    20802988.9654   20802995.4604
      1647.103        1283.457
  -2139887.404 9  -1495810.23848  21318425.464    21318427.4704   21318433.6894
      1587.175        1236.760
    880036.255 9    683108.02548  21474876.377    21474877.9534   21474884.7404
      -989.324        -770.902
  -4337639.878 9  -3357878.18148  21644784.987    21644786.6084   21644793.2624
      3748.709        2921.072
   1108601.494 9    860150.287 9  21142211.603    21142213.309    21142219.176
     -1298.968       -1012.183
  -2484594.340 9  -1926501.80646  23786894.225    23786895.9634   23786902.8204
      2014.532        1569.765
    300905.622 9    233845.26848  21174730.590    21174732.1894   21174738.1754
      -364.076        -283.696
 96 10 31 16 38 59.9990000  0  7 21  3 17  1 28  9 23               -0.000292488
  -2006548.261 9  -1417094.76048  20793594.216    20793595.6894   20793602.1664
      1642.804        1280.107
  -2187271.201 9  -1532732.69148  21309408.617    21309410.6424   21309416.8474
      1570.829        1224.023
    909799.265 9    706299.95648  21480540.181    21480541.6834   21480548.4434
      -995.776        -775.929
  -4449962.224 9  -3445402.06648  21623410.757    21623412.3834   21623419.0344
      3738.606        2913.199
   1147747.526 9    890653.669 9  21149660.837    21149662.561    21149668.437
     -1311.627       -1022.047
  -2544862.503 9  -1973463.97846  23775425.621    23775427.3044   23775434.1614
      2002.363        1560.283
    311849.018 9    242372.57548  21176813.121    21176814.6584   21176820.6564
      -366.267        -285.403
 96 10 31 16 39 29.9990000  0  7 21  3 17  1 28  9 23               -0.000310551
  -2055785.810 9  -1455461.67748  20784224.618    20784226.0984   20784232.5964
      1639.790        1277.758
  -2234154.451 9  -1569265.09648  21300487.033    21300489.0674   21300495.3244
      1554.619        1211.391
    939758.853 9    729645.06648  21486241.290    21486242.8114   21486249.5794
     -1001.592        -780.461
  -4561980.074 9  -3532688.68048  21602094.402    21602096.0734   21602102.7074
      3729.431        2906.050
   1187275.963 9    921455.026 9  21157182.882    21157184.601    21157190.479
     -1323.544       -1031.333
  -2604757.350 9  -2020135.25947  23764027.641    23764029.6444   23764036.5264
      1990.709        1551.202
    322861.275 9    250953.54348  21178908.755    21178910.2484   21178916.2384
      -367.721        -286.536
 96 10 31 16 39 59.9990000  0  7 21  3 17  1 28  9 23               -0.000328649
  -2104950.158 9  -1493771.55848  20774868.913    20774870.4344   20774876.9424
      1637.039        1275.615
  -2280564.272 9  -1605428.61048  21291655.584    21291657.5934   21291663.7804
      1538.901        1199.144
    969885.309 9    753120.19948  21491974.178    21491975.7204   21491982.4884
     -1007.566        -785.116
  -4673743.211 9  -3619776.82048  21580826.663    21580828.2564   21580834.8974
      3720.859        2899.371
   1227146.809 9    952523.193 9  21164770.044    21164771.779    21164777.673
     -1335.162       -1040.386
  -2664317.796 9  -2066545.98547  23752693.599    23752695.6474   23752702.5104
      1979.398        1542.388
    333895.572 9    259551.68248  21181008.557    21181010.0444   21181016.0194
      -368.462        -287.113
 96 10 31 16 40 29.9990000  0  7 21  3 17  1 28  9 23               -0.000346819
  -2154025.786 9  -1532012.30648  20765530.077    20765531.6324   20765538.1484
      1633.931        1273.193
  -2326523.229 9  -1641240.79648  21282909.937    21282911.9284   21282918.1404
      1524.392        1187.838
   1000185.356 9    776730.59648  21497740.072    21497741.6494   21497748.4114
     -1013.018        -789.365
  -4785268.230 9  -3706679.41148  21559604.109    21559605.7274   21559612.4094
      3713.669        2893.768
   1267355.168 9    983854.362 9  21172421.473    21172423.194    21172429.096
     -1345.971       -1048.809
  -2723551.413 9  -2112702.03647  23741422.079    23741423.9124   23741430.7184
      1969.000        1534.286
    344943.057 9    268160.09948  21183110.797    21183112.3364   21183118.3034
      -368.735        -287.326
 96 10 31 16 40 59.9990000  0  7 21  3 17  1 28  9 23               -0.000365071
  -2202962.984 9  -1570145.18848  20756217.642    20756219.1774   20756225.6964
      1628.996        1269.348
  -2372001.492 9  -1676678.41748  21274255.765    21274257.7384   21274263.9434
      1507.788        1174.900
   1030697.949 9    800506.61348  21503546.429    21503548.0414   21503554.7724
     -1020.786        -795.418
  -4896536.339 9  -3793381.81948  21538430.505    21538432.1404   21538438.7444
      3704.694        2886.774
   1307931.393 9   1015472.176 9  21180142.894    21180144.591    21180150.525
     -1358.637       -1058.678
  -2782433.348 9  -2158584.06347  23730217.320    23730219.0274   23730225.8444
      1957.022        1524.952
    356053.059 9    276817.23348  21185225.071    21185226.5454   21185232.5004
      -371.421        -289.419
 96 10 31 16 41 29.9990000  0  7 21  3 17  1 28  9 23               -0.000383417
  -2251776.471 9  -1608181.66948  20746928.693    20746930.2734   20746936.8034
      1625.898        1266.934
  -2417000.348 9  -1711742.47148  21265692.788    21265694.7604   21265700.9644
      1492.762        1163.191
   1061430.188 9    824453.77848  21509394.601    21509396.1764   21509402.9684
     -1027.538        -800.679
  -5007550.879 9  -3879886.63248  21517305.153    21517306.7694   21517313.3734
      3696.869        2880.677
   1348866.262 9   1047369.454 9  21187932.530    21187934.274    21187940.212
     -1369.782       -1067.362
  -2840980.520 9  -2204205.25047  23719076.098    23719077.8794   23719084.7034
      1946.739        1516.939
    367224.585 9    285522.30948  21187350.931    21187352.4354   21187358.3914
      -372.716        -290.428
 96 10 31 16 41 59.9990000  0  7 21  3 17  1 28  9 23               -0.000401886
  -2300490.731 9  -1646140.83548  20737658.697    20737660.2654   20737666.7934
      1621.584        1263.572
  -2461554.482 9  -1746459.98948  21257214.470    21257216.4444   21257222.6014
      1477.540        1151.330
   1092377.833 9    848568.79748  21515283.753    21515285.3554   21515292.1164
     -1035.636        -806.989
  -5118321.986 9  -3966201.76048  21496226.160    21496227.7284   21496234.3414
      3687.748        2873.570
   1390137.864 9   1079529.119 9  21195786.418    21195788.029    21195793.959
     -1381.676       -1076.631
  -2899213.656 9  -2249581.74047  23707994.795    23707996.4894   23708003.3204
      1935.428        1508.126
    378434.584 9    294257.36548  21189483.936    21189485.6114   21189491.5914
      -374.649        -291.934
 96 10 31 16 42 29.9990000  0  7 21  3 17  1 28  9 23               -0.000420488
  -2349092.891 9  -1684012.65748  20728410.007    20728411.6104   20728418.1124
      1618.393        1261.085
  -2505661.524 9  -1780829.12948  21248821.230    21248823.2304   21248829.2614
      1462.314        1139.465
   1123544.735 9    872854.66048  21521214.621    21521216.2464   21521223.0464
     -1042.434        -812.286
  -5228830.458 9  -4052312.22848  21475197.043    21475198.6734   21475205.2554
      3679.105        2866.835
   1431746.605 9   1111951.471 9  21203704.273    21203705.940    21203711.849
     -1392.554       -1085.107
  -2957130.110 9  -2294711.46447  23696973.588    23696975.3834   23696982.1944
      1925.378        1500.294
    389689.338 9    303027.28748  21191625.789    21191627.3164   21191633.3014
      -375.976        -292.968
 96 10 31 16 42 59.9990000  0  7 21  3 17  1 28  9 23               -0.000439182
  -2397584.755 9  -1721798.53148  20719182.365    20719183.9194   20719190.3654
      1614.854        1258.328
  -2549267.647 9  -1814807.93348  21240523.139    21240525.1864   21240531.2764
      1445.065        1126.025
   1154947.008 9    897323.93248  21527190.278    21527191.8804   21527198.6674
     -1050.653        -818.691
  -5339044.721 9  -4138193.46448  21454223.987    21454225.5424   21454232.0854
      3669.066        2859.012
   1473706.416 9   1144647.414 9  21211688.863    21211690.601    21211696.520
     -1404.291       -1094.253
  -3014725.912 9  -2339591.34047  23686013.206    23686015.3244   23686022.0434
      1914.660        1491.943
    401004.376 9    311844.19848  21193779.006    21193780.5024   21193786.4294
      -377.761        -294.359
 96 10 31 16 43 29.9990000  0  8 21  3 17  1 31 28  9 23            -0.000457960
  -2446017.093 9  -1759538.01848  20709965.970    20709967.5374   20709973.9674
      1613.584        1257.338
  -2592392.958 9  -1848412.08748  21232316.728    21232318.7534   21232324.7934
      1429.660        1114.021
   1186553.762 9    921952.53448  21533204.776    21533206.4534   21533213.2234
     -1056.757        -823.447
  -5449003.612 9  -4223875.70048  21433299.404    21433301.0374   21433307.5424
      3661.204        2852.886
   -259687.55718   -170166.45754  23579336.695           0.0005          0.0005
      3497.276        2725.150
   1515973.072 9   1177582.440 9  21219731.916    21219733.665    21219739.579
     -1413.789       -1101.654
  -3072038.220 9  -2384250.31447  23675107.146    23675109.0874   23675115.8584
      1905.843        1485.072
    412321.399 9    320662.64448  21195932.532    21195934.0554   21195939.9594
      -376.894        -293.684
 96 10 31 16 43 59.9990000  0  8 21  3 17  1 31 28  9 23            -0.000476819
  -2494362.486 9  -1797209.75548  20700766.143    20700767.7154   20700774.1164
      1609.301        1254.001
  -2635015.286 9  -1881624.30948  21224205.983    21224208.0254   21224214.0194
      1411.859        1100.150
   1218379.639 9    946751.88548  21539261.039    21539262.7414   21539269.5024
     -1064.796        -829.711
  -5558683.677 9  -4309340.66848  21412428.010    21412429.5834   21412436.0604
      3650.773        2844.758
   -364450.622 8      -752.68152  23559397.698           0.0005          0.0005
      3486.958        2717.110
   1558561.427 9   1210768.144 9  21227836.152    21227837.958    21227843.869
     -1425.417       -1110.715
  -3129047.555 9  -2428673.19647  23664258.940    23664260.5544   23664267.3114
      1894.718        1476.404
    423645.934 9    329486.94848  21198087.484    21198089.0464   21198094.9334
      -378.264        -294.751
 96 10 31 16 44 29.9990000  0  8 21  3 17  1 31 28  9 23            -0.000495736
  -2542588.917 9  -1834788.79348  20691589.016    20691590.5394   20691596.9084
      1605.458        1251.006
  -2677116.742 9  -1914430.64648  21216194.291    21216196.3584   21216202.3534
      1394.391        1086.538
   1250418.636 9    971717.30648  21545357.903    21545359.5704   21545366.3614
     -1071.586        -835.002
  -5668069.997 9  -4394576.74648  21391612.423    21391614.0464   21391620.4864
      3641.302        2837.378
   -468927.367 8    -82162.93245  23539517.290           0.0004          0.0004
      3477.708        2709.902
   1601480.196 9   1244211.312 9  21236003.328    21236005.146    21236011.042
     -1436.339       -1119.225
  -3185742.245 9  -2472850.88247  23653470.109    23653471.8724   23653478.6714
      1884.353        1468.327
    435006.487 9    338339.31848  21200249.331    21200250.8964   21200256.7524
      -379.601        -295.793
 96 10 31 16 44 59.9990000  0  8 21  3 17  1 31 28  9 23            -0.000514669
  -2590689.010 9  -1872269.38348  20682435.755    20682437.3944   20682443.7774
      1601.309        1247.773
  -2718687.754 9  -1946823.65348  21208283.634    21208285.6594   21208291.6804
      1377.317        1073.234
   1282676.732 9    996853.45448  21551496.445    21551498.1004   21551504.9104
     -1078.844        -840.658
  -5777162.874 9  -4479584.17148  21370852.717    21370854.3224   21370860.7624
      3631.862        2830.022
   -573123.100 8   -163354.40755  23519690.547           0.0004          0.0005
      3468.628        2702.827
   1644737.762 9   1277918.478 9  21244234.934    21244236.807    21244242.660
     -1447.351       -1127.806
  -3242097.254 9  -2516763.87647  23642745.980    23642747.8174   23642754.6434
      1872.543        1459.124
    446417.267 9    347230.82248  21202420.767    21202422.3084   21202428.1254
      -381.020        -296.899
 96 10 31 16 45 29.9990000  0  8 21  3 17  1 31 28  9 23            -0.000533660
  -2638627.592 9  -1909624.12448  20673313.336    20673314.9664   20673321.3894
      1594.040        1242.109
  -2759736.911 9  -1978810.02948  21200472.242    21200474.2744   21200480.2724
      1358.902        1058.885
   1315173.475 9   1022175.56148  21557680.366    21557682.0454   21557688.8594
     -1088.229        -847.971
  -5885949.540 9  -4564352.99048  21350151.257    21350152.8884   21350159.3004
      3619.981        2820.764
   -677014.213 8   -244308.54255  23499921.288           0.0005   23499930.8315
      3456.692        2693.526
   1688349.449 9   1311901.583 9  21252533.977    21252535.848    21252541.701
     -1460.676       -1138.189
  -3298057.049 9  -2560368.89147  23632097.207    23632099.0534   23632105.8764
      1857.654        1447.523
    457899.488 9    356177.99348  21204605.713    21204607.3004   21204613.1174
      -385.109        -300.085
 96 10 31 16 45 59.9990000  0  8 21  3 17  1 31 28  9 23            -0.000552735
  -2686399.266 9  -1946848.81048  20664222.769    20664224.3624   20664230.7674
      1589.782        1238.791
  -2800290.055 9  -2010409.89048  21192755.194    21192757.2614   21192763.3264
      1343.446        1046.841
   1347897.031 9   1047674.40748  21563907.487    21563909.1594   21563915.9814
     -1094.407        -852.785
  -5994435.499 9  -4648887.49148  21329507.002    21329508.6814   21329515.0664
      3611.408        2814.084
   -780594.381 8   -325020.34846  23480210.926    23480213.6115   23480220.3254
      3447.447        2686.322
   1732307.712 9   1346154.746 9  21260898.935    21260900.830    21260906.698
     -1470.933       -1146.182
  -3353621.836 9  -2603666.10647  23621523.479    23621525.3804   23621532.2614
      1845.659        1438.176
    469457.552 9    365184.26948  21206805.113    21206806.7404   21206812.5534
      -386.561        -301.216
 96 10 31 16 46 29.9990000  0  8 21  3 17  1 31 28  9 23            -0.000571893
  -2734040.374 9  -1983971.74848  20655156.969    20655158.5624   20655164.9654
      1584.930        1235.010
  -2840355.459 9  -2041629.70448  21185131.024    21185133.0944   21185139.1094
      1326.149        1033.363
   1380828.263 9   1073335.07548  21570174.172    21570175.7804   21570182.6284
     -1102.497        -859.089
  -6102656.185 9  -4733215.28748  21308913.294    21308914.9474   21308921.3674
      3601.882        2806.661
   -883877.981 9   -405501.06956  23460556.935    23460559.0645   23460565.4575
      3436.516        2677.805
   1776589.539 9   1380660.039 9  21269325.550    21269327.403    21269333.251
     -1482.593       -1155.267
  -3408803.334 9  -2646664.63947  23611022.764    23611024.7244   23611031.5734
      1831.679        1427.282
    481072.230 9    374234.66048  21209015.330    21209016.9554   21209022.7614
      -388.953        -303.080
 96 10 31 16 46 59.9990000  0  8 21  3 17  1 31 28  9 23            -0.000591090
  -2781538.796 9  -2020983.50148  20646118.313    20646119.9324   20646126.3484
      1580.371        1231.458
  -2879906.273 9  -2072448.53348  21177604.746    21177606.8444   21177612.9144
      1309.480        1020.374
   1414010.174 9   1099191.08148  21576488.490    21576490.1154   21576496.9904
     -1110.722        -865.498
  -6210589.139 9  -4817318.88048  21288374.304    21288376.0014   21288382.3964
      3592.480        2799.335
   -986824.475 9   -485719.10446  23440967.032    23440969.1824   23440975.5674
      3425.252        2669.028
   1821216.711 9   1415434.431 9  21277817.837    21277819.681    21277825.532
     -1493.669       -1163.898
  -3463561.192 9  -2689333.06447  23600602.580    23600604.6624   23600611.4694
      1817.770        1416.444
    492740.586 9    383326.87748  21211235.727    21211237.3764   21211243.1844
      -390.112        -303.983
 96 10 31 16 47 29.9990000  0  8 21  3 17  1 31 28  9 23            -0.000610331
  -2828897.084 9  -2057886.06048  20637106.280    20637107.9304   20637114.3644
      1575.834        1227.923
  -2918952.254 9  -2102873.98448  21170174.560    21170176.6254   21170182.6914
      1292.440        1007.096
   1447437.859 9   1125238.59748  21582849.551    21582851.2014   21582858.0824
     -1118.895        -871.866
  -6318235.155 9  -4901198.88248  21267889.942    21267891.6454   21267898.0524
      3582.857        2791.837
  -1089427.471 9   -565669.49146  23421442.501    23421444.6184   23421451.0444
      3413.924        2660.200
   1866174.457 9   1450466.410 9  21286373.028    21286374.885    21286380.736
     -1504.605       -1172.419
  -3517913.998 9  -2731685.85947  23590259.763    23590261.6264   23590268.3934
      1804.909        1406.423
    504445.517 9    392447.58848  21213463.182    21213464.7854   21213470.5594
      -391.335        -304.936
 96 10 31 16 47 59.9990000  0  8 21  3 17  1 31 28  9 23            -0.000629618
  -2876131.485 9  -2094692.08948  20628117.833    20628119.5034   20628125.9754
      1572.245        1225.126
  -2957476.600 9  -2132892.97948  21162843.683    21162845.7504   21162851.7664
      1274.909         993.436
   1481112.242 9   1151478.34548  21589257.575    21589259.2654   21589266.1314
     -1126.943        -878.137
  -6425594.588 9  -4984855.57748  21247460.120    21247461.8064   21247468.2414
      3573.425        2784.487
  -1191691.147 9   -645355.46646  23401982.425    23401984.5184   23401990.9164
      3402.779        2651.516
   1911462.439 9   1485755.715 9  21294991.095    21294992.931    21294998.751
     -1515.425       -1180.851
  -3571885.529 9  -2773741.56047  23579989.598    23579991.1894   23579997.8944
      1792.340        1396.629
    516186.589 9    401596.46148  21215697.479    21215699.0524   21215704.8254
      -392.200        -305.610
 96 10 31 16 48 29.9990000  0  8 21  3 17  1 31 28  9 23            -0.000648940
  -2923240.374 9  -2131400.31048  20619153.358    20619154.9834   20619161.4604
      1567.936        1221.768
  -2995462.950 9  -2162492.74048  21155615.121    21155617.2094   21155623.2814
      1257.330         979.738
   1515048.052 9   1177921.80548  21595715.357    21595717.0434   21595723.9544
     -1135.656        -884.927
  -6532644.828 9  -5068271.34048  21227089.177    21227090.8314   21227097.2634
      3562.858        2776.253
  -1293609.523 9   -724772.38546  23382588.116    23382590.1304   23382596.5334
      3391.399        2642.649
   1957087.836 9   1521307.943 9  21303673.291    21303675.178    21303680.967
     -1526.552       -1189.521
  -3625466.803 9  -2815493.16347  23569793.452    23569794.9824   23569801.7064
      1779.503        1386.626
    527964.449 9    410774.00548  21217938.698    21217940.3004   21217946.0904
      -393.374        -306.525
 96 10 31 16 48 59.9990000  0  8 21  3 17  1 31 28  9 23            -0.000668325
  -2970224.689 9  -2168011.46648  20610212.551    20610214.1564   20610220.6454
      1563.902        1218.625
  -3032938.388 9  -2191694.39748  21148483.731    21148485.8504   21148491.9384
      1240.533         966.649
   1549220.548 9   1204549.69448  21602218.222    21602219.8854   21602226.7934
     -1142.862        -890.542
  -6639377.572 9  -5151439.70548  21206778.580    21206780.2544   21206786.6984
      3552.146        2767.906
  -1395200.877 9   -803934.47246  23363256.033    23363258.0044   23363264.3534
      3380.853        2634.431
   2003036.216 9   1557111.843 9  21312417.035    21312418.913    21312424.703
     -1537.118       -1197.754
  -3678683.755 9  -2856960.89147  23559666.374    23559668.0754   23559674.8274
      1767.899        1377.584
    539772.233 9    419974.86448  21220185.680    21220187.2724   21220193.0594
      -394.399        -307.324
 96 10 31 16 49 29.9990000  0  8 21  3 17  1 31 28  9 23            -0.000687776
  -3017068.310 9  -2204512.98248  20601298.482    20601300.0894   20601306.5924
      1559.209        1214.968
  -3069880.610 9  -2220480.55648  21141453.899    21141456.0054   21141462.1484
      1222.428         952.541
   1583626.830 9   1231359.75848  21608765.553    21608767.2144   21608774.1504
     -1150.766        -896.701
  -6745761.649 9  -5234336.37648  21186534.381    21186536.0584   21186542.4704
      3540.301        2758.676
  -1496451.730 9   -882831.23546  23343988.736    23343990.6324   23343997.0084
      3369.335        2625.456
   2049328.512 9   1593183.734 9  21321226.177    21321228.063    21321233.866
     -1548.909       -1206.942
  -3731530.271 9  -2898139.96447  23549609.753    23549611.7024   23549618.4804
      1755.312        1367.775
    551648.652 9    429229.20948  21222445.719    21222447.2844   21222453.0894
      -397.173        -309.485
 96 10 31 16 49 59.9990000  0  8 21  3 17  1 31 28  9 23            -0.000707293
  -3063790.958 9  -2240920.24048  20592407.478    20592409.0644   20592415.5654
      1555.295        1211.918
  -3106304.351 9  -2248862.71048  21134522.680    21134524.7994   21134530.9404
      1205.470         939.327
   1618248.133 9   1258337.36448  21615353.821    21615355.4884   21615362.4274
     -1157.612        -902.035
  -6851810.810 9  -5316972.07748  21166353.901    21166355.5694   21166361.9784
      3529.224        2750.045
  -1597368.494 9   -961467.67647  23324784.933    23324786.7764   23324793.1434
      3358.110        2616.709
   2095954.870 9   1629515.930 9  21330098.901    21330100.802    21330106.590
     -1559.810       -1215.436
  -3784011.159 9  -2939034.13847  23539622.866    23539624.9184   23539631.6474
      1743.071        1358.237
    563581.387 9    438527.43048  21224716.466    21224718.0034   21224723.8204
      -398.617        -310.611
 96 10 31 16 50 29.9990000  0  8 21  3 17  1 31 28  9 23            -0.000726872
  -3110386.314 9  -2277228.31048  20583540.733    20583542.2784   20583548.7834
      1551.408        1208.889
  -3142213.621 9  -2276843.97248  21127689.377    21127691.4694   21127697.6494
      1188.879         926.399
   1653079.724 9   1285478.83748  21621982.097    21621983.7464   21621990.6944
     -1164.044        -907.047
  -6957509.328 9  -5399334.54948  21146240.184    21146241.8284   21146248.2404
      3517.867        2741.195
  -1697940.849 9  -1039835.72847  23305646.651    23305648.4614   23305654.8874
      3346.882        2607.960
   2142913.749 9   1666107.234 9  21339034.924    21339036.801    21339042.639
     -1570.417       -1223.702
  -3836117.492 9  -2979636.45447  23529707.137    23529709.3774   23529716.0804
      1730.985        1348.819
    575564.374 9    447864.81448  21226996.675    21226998.3094   21227004.1074
      -399.918        -311.624
 96 10 31 16 50 59.9990000  0  8 21  3 17  1 31 28  9 23            -0.000746522
  -3156865.644 9  -2313445.96748  20574696.031    20574697.5764   20574704.0794
      1547.300        1205.688
  -3177625.393 9  -2304437.57848  21120950.740    21120952.8554   21120959.0414
      1171.857         913.135
   1688096.704 9   1312764.77248  21628645.665    21628647.2934   21628654.2354
     -1170.660        -912.203
  -7062879.060 9  -5481440.82248  21126188.961    21126190.6404   21126197.0644
      3506.820        2732.587
  -1798169.529 9  -1117935.98847  23286573.784    23286575.5354   23286582.0244
      3334.876        2598.605
   2190187.736 9   1702944.074 9  21348030.848    21348032.771    21348038.635
     -1581.143       -1232.059
  -3887860.956 9  -3019956.01847  23519860.814    23519862.9514   23519869.6634
      1718.423        1339.031
    587583.184 9    457230.11348  21229283.872    21229285.4354   21229291.2234
      -401.276        -312.683
 96 10 31 16 51 29.9990000  0  8 21  3 17  1 31 28  9 23            -0.000766209
  -3203213.367 9  -2349561.06948  20565876.332    20565877.8944   20565884.3894
      1542.554        1201.990
  -3212512.201 9  -2331622.11248  21114311.978    21114314.1404   21114320.3534
      1154.024         899.239
   1723340.688 9   1340227.60048  21635352.438    21635354.0564   21635360.9614
     -1179.029        -918.724
  -7167910.631 9  -5563283.59448  21106202.041    21106203.7914   21106210.2124
      3495.400        2723.688
  -1898016.671 9  -1195738.94447  23267573.488    23267575.2864   23267581.7624
      3321.609        2588.267
   2237792.842 9   1740038.938 9  21357089.905    21357091.784    21357097.617
     -1592.422       -1240.848
  -3939207.010 9  -3059965.92847  23510089.798    23510092.1014   23510098.8194
      1704.705        1328.341
    599651.117 9    466633.68848  21231580.302    21231581.9074   21231587.6854
      -403.169        -314.158
 96 10 31 16 51 59.9990000  0  8 21  3 17  1 31 28  9 23            -0.000785938
  -3249437.668 9  -2385580.00148  20557080.026    20557081.6934   20557088.1854
      1539.062        1199.269
  -3246888.358 9  -2358408.74748  21107770.526    21107772.6054   21107778.7204
      1137.585         886.430
   1758819.680 9   1367873.54548  21642103.895    21642105.5084   21642112.4504
     -1186.382        -924.454
  -7272618.884 9  -5644874.43048  21086276.759    21086278.4754   21086284.9064
      3485.045        2715.619
  -1997488.597 9  -1273249.52246  23248644.601    23248646.3884   23248652.9014
      3309.809        2579.072
   2285708.812 9   1777376.026 9  21366208.052    21366209.907    21366215.782
     -1602.049       -1248.350
  -3990164.350 9  -3099672.95347  23500393.065    23500395.2634   23500401.9314
      1692.355        1318.718
    611748.066 9    476059.87748  21233882.309    21233883.9094   21233889.6744
      -403.474        -314.395
 96 10 31 16 52 29.9990000  0  8 21  3 17  1 31 28  9 23            -0.000805718
  -3295537.080 9  -2421501.62248  20548307.677    20548309.2904   20548315.7764
      1534.894        1196.021
  -3280746.930 9  -2384792.06448  21101327.440    21101329.5384   21101335.6924
      1120.462         873.087
   1794539.258 9   1395706.95848  21648901.033    21648902.7044   21648909.6954
     -1194.154        -930.510
  -7376993.328 9  -5726205.15548  21066414.933    21066416.6854   21066423.1404
      3474.244        2707.203
  -2096595.023 9  -1350475.29946  23229785.232    23229787.0054   23229793.5954
      3297.982        2569.856
   2333932.106 9   1814952.587 9  21375384.631    21375386.518    21375392.421
     -1612.030       -1256.127
  -4040732.492 9  -3139076.70047  23490770.375    23490772.3884   23490779.0754
      1679.594        1308.774
    623882.716 9    485515.43948  21236191.470    21236193.0684   21236198.8184
      -404.722        -315.368
 96 10 31 16 52 59.9990000  0  8 21  3 17  1 31 28  9 23            -0.000825561
  -3341504.333 9  -2457320.26448  20539560.371    20539562.0304   20539568.5134
      1530.025        1192.227
  -3314084.626 9  -2410769.50648  21094983.465    21094985.6054   21094991.7404
      1102.489         859.082
   1830502.346 9   1423730.12148  21655744.640    21655746.2944   21655753.2534
     -1203.024        -937.421
  -7481050.584 9  -5807288.72248  21046613.511    21046615.2284   21046621.6814
      3463.273        2698.654
  -2195347.891 9  -1427425.56346  23210993.198    23210994.9524   23211001.5384
      3286.091        2560.590
   2382457.081 9   1852764.227 9  21384618.682    21384620.536    21384626.460
     -1622.509       -1264.293
  -4090910.930 9  -3178176.79147  23481221.811    23481223.7534   23481230.4224
      1666.023        1298.200
    636058.809 9    495003.29648  21238508.500    21238510.0974   21238515.8584
      -406.558        -316.798
 96 10 31 16 53 29.9990000  0  8 21  3 17  1 31 28  9 23            -0.000845459
  -3387330.604 9  -2493029.04248  20530839.907    20530841.5754   20530848.0504
      1525.568        1188.754
  -3346887.988 9  -2436330.58148  21088741.158    21088743.3034   21088749.4344
      1084.983         845.441
   1866732.996 9   1451961.77348  21662639.067    21662640.7254   21662647.7304
     -1211.601        -944.105
  -7584780.777 9  -5888117.43248  21026874.295    21026876.0154   21026882.4784
      3452.616        2690.350
  -2293747.734 9  -1504100.77246  23192268.326    23192270.0634   23192276.6434
      3274.482        2551.544
   2431294.175 9   1890819.074 9  21393912.053    21393913.929    21393919.895
     -1632.776       -1272.293
  -4140678.646 9  -3216956.83847  23471751.444    23471753.2854   23471759.9334
      1652.436        1287.612
    648286.890 9    504531.66748  21240835.465    21240837.0284   21240842.7974
      -408.144        -318.034
 96 10 31 16 53 59.9990000  0  8 21  3 17  1 31 28  9 23            -0.000865417
  -3433015.276 9  -2528627.48748  20522146.385    20522148.0964   20522154.5644
      1520.181        1184.557
  -3379159.199 9  -2461476.99248  21082600.138    21082602.2814   21082608.4224
      1066.455         831.004
   1903214.866 9   1480389.18048  21669581.359    21669583.0314   21669590.0414
     -1220.298        -950.882
  -7688179.906 9  -5968688.17448  21007198.083    21007199.8034   21007206.2614
      3440.746        2681.101
  -2391801.271 9  -1580506.12346  23173609.434    23173611.1384   23173617.6544
      3262.389        2542.121
   2480446.332 9   1929119.427 9  21403265.423    21403267.293    21403273.313
     -1644.002       -1281.041
  -4190029.414 9  -3255411.99147  23462360.331    23462362.2234   23462368.8224
      1637.647        1276.089
    660568.816 9    514101.99248  21243172.648    21243174.2074   21243179.9834
      -410.603        -319.950
 96 10 31 16 54 29.9990000  0  8 21  3 17  1 31 28  9 23            -0.000885443
  -3478577.240 9  -2564130.31948  20513476.288    20513477.9634   20513484.4084
      1516.477        1181.670
  -3410914.008 9  -2486221.01948  21076557.502    21076559.6054   21076565.7344
      1049.838         818.056
   1939913.073 9   1508985.16848  21676564.832    21676566.5124   21676573.5414
     -1227.008        -956.110
  -7791267.389 9  -6049016.07348  20987581.223    20987582.8964   20987589.3844
      3430.959        2673.475
  -2489520.631 9  -1656651.08746  23155014.013    23155015.8044   23155022.2164
      3251.291        2533.474
   2529895.694 9   1967651.360 9  21412675.325    21412677.218    21412683.249
     -1653.368       -1288.339
  -4238972.995 9  -3293549.85747  23453046.701    23453048.6254   23453055.2104
      1624.437        1265.795
    672883.788 9    523698.06848  21245516.180    21245517.7054   21245523.4434
      -411.190        -320.408
 96 10 31 16 54 59.9990000  0  8 21  3 17  1 31 28  9 23            -0.000905516
  -3524005.379 9  -2599528.86248  20504831.629    20504833.2784   20504839.7134
      1511.907        1178.109
  -3442146.788 9  -2510558.26148  21070614.075    21070616.2174   21070622.4024
      1032.171         804.289
   1976841.196 9   1537760.30948  21683592.024    21683593.7034   21683600.7514
     -1235.110        -962.423
  -7894032.081 9  -6129092.44048  20968025.743    20968027.4584   20968033.9064
      3419.637        2664.652
  -2586872.390 9  -1732509.59847  23136488.646    23136490.3854   23136496.7644
      3238.366        2523.402
   2579651.743 9   2006422.281 9  21422143.596    21422145.508    21422151.545
     -1663.963       -1296.595
  -4287488.118 9  -3331353.84747  23443814.567    23443816.5094   23443823.0904
      1609.745        1254.347
    685244.375 9    533329.69348  21247868.243    21247869.8654   21247875.5904
      -413.200        -321.974
 96 10 31 16 55 29.9990000  0  8 21  3 17  1 31 28  9 23            -0.000925629
  -3569316.904 9  -2634836.54648  20496209.169    20496210.8094   20496217.2464
      1508.294        1175.294
  -3472871.123 9  -2534499.31148  21064767.402    21064769.5764   21064775.8214
      1015.501         791.299
   2013987.831 9   1566705.71748  21690660.729    21690662.4544   21690669.5184
     -1241.854        -967.678
  -7996469.215 9  -6208913.57448  20948532.634    20948534.3044   20948540.7504
      3408.873        2656.265
  -2683838.312 9  -1808067.46947  23118036.676    23118038.4124   23118044.7294
      3225.341        2513.253
   2629711.024 9   2045429.478 9  21431669.625    21431671.512    21431677.569
     -1673.846       -1304.296
  -4335582.248 9  -3368829.78647  23434662.511    23434664.5494   23434671.0594
      1596.053        1243.678
    697659.586 9    543003.87748  21250230.707    21250232.4194   21250238.1054
      -415.158        -323.500
 96 10 31 16 55 59.9990000  0  8 21  3 17  1 31 28  9 23            -0.000945781
  -3614506.223 9  -2670048.99648  20487609.887    20487611.5294   20487617.9964
      1504.646        1172.451
  -3503078.487 9  -2558037.53148  21059019.154    21059021.3384   21059027.5734
       998.643         778.163
   2051349.171 9   1595818.43048  21697770.359    21697772.1094   21697779.1634
     -1248.620        -972.951
  -8098563.413 9  -6288467.48648  20929104.741    20929106.3994   20929112.8624
      3397.790        2647.629
  -2780403.359 9  -1883312.97247  23099660.936    23099662.6844   23099669.0104
      3212.466        2503.220
   2680074.364 9   2084673.603 9  21441253.452    21441255.343    21441261.437
     -1683.365       -1311.713
  -4383258.012 9  -3405979.72047  23425590.098    23425592.1094   23425598.6524
      1582.712        1233.282
    710152.535 9    552738.63748  21252608.157    21252609.7644   21252615.4384
      -417.394        -325.242
 96 10 31 16 56 29.9990000  0  8 21  3 17  1 31 28  9 23            -0.000965979
  -3659574.505 9  -2705167.13548  20479033.626    20479035.2764   20479041.7944
      1499.577        1168.502
  -3532770.872 9  -2581174.46548  21053368.927    21053371.1024   21053377.3314
       980.566         764.077
   2088929.478 9   1625101.76648  21704921.728    21704923.4654   21704930.4724
     -1257.026        -979.501
  -8200317.968 9  -6367756.73848  20909741.433    20909743.1244   20909749.6154
      3385.432        2637.999
  -2876566.580 9  -1958245.34247  23081361.735    23081363.4664   23081369.7394
      3198.188        2492.095
   2730731.592 9   2124146.740 9  21450893.225    21450895.125    21450901.203
     -1694.090       -1320.070
  -4430527.334 9  -3442812.95147  23416595.152    23416597.0534   23416603.6154
      1568.296        1222.049
    722726.661 9    562536.65348  21255000.860    21255002.5544   21255008.2214
      -421.071        -328.107
 96 10 31 16 56 59.9990000  0  8 21  3 17  1 31 28  9 23            -0.000986236
  -3704519.274 9  -2740189.03248  20470480.948    20470482.5584   20470489.0914
      1497.357        1166.772
  -3561954.488 9  -2603914.95648  21047815.457    21047817.6204   21047823.8454
       965.542         752.370
   2126731.604 9   1654557.94148  21712115.320    21712116.9774   21712124.0264
     -1262.447        -983.725
  -8301729.019 9  -6446778.32848  20890443.590    20890445.2354   20890451.7484
      3375.859        2630.539
  -2972343.299 9  -2032876.54947  23063136.114    23063137.7734   23063144.1034
      3187.655        2483.887
   2781676.646 9   2163844.152 9  21460587.785    21460589.661    21460595.772
     -1701.665       -1325.973
  -4477398.186 9  -3479335.67147  23407675.846    23407677.7694   23407684.4014
      1557.053        1213.288
    735373.184 9    572391.08148  21257407.440    21257409.1484   21257414.7934
      -421.290        -328.278
 96 10 31 16 57 29.9990000  0  8 21  3 17  1 31 28  9 23            -0.001006602
  -3749394.806 9  -2775156.97648  20461941.459    20461943.0064   20461949.5494
      1494.226        1164.332
  -3590681.277 9  -2626299.48048  21042348.999    21042351.1034   21042357.3654
       949.406         739.797
   2164699.268 9   1684143.10948  21719340.336    21719342.0234   21719349.0534
     -1268.877        -988.735
  -8402846.752 9  -6525571.36048  20871201.524    20871203.1534   20871209.6734
      3365.156        2622.199
  -3067810.936 9  -2107266.91847  23044969.246    23044970.9104   23044977.2124
      3176.747        2475.387
   2832848.817 9   2203718.535 9  21470325.500    21470327.425    21470333.591
     -1709.825       -1332.331
  -4523932.503 9  -3515596.15447  23398820.606    23398822.5634   23398829.1944
      1545.099        1203.973
    748018.584 9    582244.62948  21259813.868    21259815.4894   21259821.1364
      -421.571        -328.497
 96 10 31 16 57 59.9980000  0  8 21  3 17  1 31 28  9 23            -0.001027056
  -3794152.760 9  -2810033.30448  20453424.322    20453425.8614   20453432.4194
      1490.426        1161.371
  -3618899.175 9  -2648287.46248  21036979.327    21036981.4254   21036987.7244
       932.455         726.588
   2202883.073 9   1713896.70548  21726606.441    21726608.1854   21726615.2144
     -1276.094        -994.359
  -8503615.935 9  -6604092.79148  20852025.735    20852027.4004   20852033.9434
      3353.696        2613.270
  -3162937.669 9  -2181391.63947  23026867.205    23026868.8944   23026875.2334
      3165.691        2466.772
   2884278.419 9   2243793.519 9  21480112.290    21480114.200    21480120.357
     -1718.309       -1338.942
  -4570091.262 9  -3551563.99447  23390036.653    23390038.7904   23390045.4644
      1532.873        1194.446
    760669.765 9    592102.68448  21262221.331    21262222.9414   21262228.5964
      -421.150        -328.169
 96 10 31 16 58 29.9980000  0  8 21  3 17  1 31 28  9 23            -0.001047603
  -3838802.416 9  -2844825.24048  20444927.732    20444929.3254   20444935.8684
      1487.135        1158.806
  -3646616.572 9  -2669885.44748  21031704.879    21031706.9974   21031713.2754
       916.171         713.899
   2241275.287 9   1743812.69148  21733912.283    21733913.9874   21733921.0484
     -1282.611        -999.437
  -8604048.287 9  -6682351.75748  20832914.131    20832915.7424   20832922.2794
      3342.606        2604.628
  -3257738.288 9  -2255262.23847  23008827.211    23008828.9544   23008835.3094
      3155.151        2458.559
   2935960.964 9   2284065.598 9  21489947.227    21489949.078    21489955.245
     -1726.349       -1345.207
  -4615887.419 9  -3587249.28847  23381322.067    23381324.0524   23381330.7274
      1520.986        1185.184
    773297.611 9    601942.55948  21264624.347    21264625.9564   21264631.6164
      -419.901        -327.196
 96 10 31 16 58 59.9980000  0  8 21  3 17  1 31 28  9 23            -0.001068233
  -3883333.289 9  -2879524.62848  20436453.778    20436455.3744   20436461.9404
      1482.826        1155.449
  -3673823.510 9  -2691085.67448  21026527.598    21026529.7074   21026535.9784
       898.641         700.240
   2279889.783 9   1773901.88348  21741260.358    21741262.1284   21741269.1704
     -1290.567       -1005.637
  -8704128.637 9  -6760336.43548  20813869.388    20813871.0914   20813877.6144
      3330.583        2595.259
  -3352197.539 9  -2328866.83747  22990852.186    22990853.9524   22990860.3454
      3143.066        2449.142
   2987906.407 9   2324542.533 9  21499832.127    21499833.999    21499840.181
     -1735.573       -1352.395
  -4661301.835 9  -3622637.11047  23372680.068    23372681.9584   23372688.6404
      1507.645        1174.788
    785913.697 9    611773.26448  21267025.072    21267026.7264   21267032.3774
      -420.207        -327.434
 96 10 31 16 59 29.9980000  0  8 21  3 17  1 31 28  9 23            -0.001088934
  -3927766.206 9  -2914147.67548  20427998.487    20428000.0834   20428006.6604
      1479.050        1152.506
  -3700518.413 9  -2711886.90548  21021447.677    21021449.8324   21021456.1464
       880.819         686.352
   2318721.684 9   1804160.48048  21748649.897    21748651.6514   21748658.6704
     -1298.417       -1011.754
  -8803874.311 9  -6838060.32348  20794888.442    20794890.1034   20794896.6524
      3319.023        2586.252
  -3446303.868 9  -2402196.42047  22972944.331    22972946.1064   22972952.5084
      3130.274        2439.175
   3040105.268 9   2365216.938 9  21509765.257    21509767.146    21509773.341
     -1744.539       -1359.381
  -4706335.277 9  -3657728.07147  23364110.537    23364112.3614   23364119.0754
      1494.265        1164.362
    798527.604 9    621602.27548  21269425.479    21269427.0794   21269432.7374
      -420.958        -328.019
 96 10 31 16 59 59.9980000  0  8 21  3 17  1 31 28  9 23            -0.001109687
  -3972090.464 9  -2948686.05748  20419563.829    20419565.4404   20419572.0204
      1475.236        1149.534
  -3726689.432 9  -2732279.91448  21016467.468    21016469.6354   21016475.9934
       863.372         672.757
   2357777.732 9   1834593.74248  21756082.117    21756083.8224   21756090.8254
     -1305.855       -1017.549
  -8903290.106 9  -6915527.16248  20775970.186    20775971.8984   20775978.4344
      3308.031        2577.686
  -3540027.817 9  -2475228.04747  22955109.257    22955111.0614   22955117.4644
      3117.244        2429.021
   3092568.183 9   2406097.098 9  21519748.641    21519750.534    21519756.731
     -1753.680       -1366.504
  -4750967.853 9  -3692506.66447  23355617.209    23355619.0564   23355625.7724
      1480.421        1153.575
    811162.906 9    631447.95648  21271829.894    21271831.5204   21271837.1944
      -422.210        -328.995
 96 10 31 17  0 29.9980000  0  8 21  3 17  1 31 28  9 23            -0.001130478
  -4016302.433 9  -2983136.93948  20411150.593    20411152.1884   20411158.7474
      1471.267        1146.442
  -3752347.400 9  -2752273.15048  21011584.920    21011587.0954   21011593.4764
       846.097         659.296
   2397053.602 9   1865198.28347  21763556.032    21763557.7794   21763564.7824
     -1313.570       -1023.561
  -9002373.880 9  -6992735.28748  20757115.140    20757116.8734   20757123.4234
      3296.646        2568.815
  -3633354.766 9  -2547950.34047  22937349.738    22937351.5604   22937357.9414
      3103.659        2418.436
   3145305.359 9   2447190.971 9  21529784.173    21529786.132    21529792.333
     -1763.011       -1373.775
  -4795167.130 9  -3726947.61947  23347206.317    23347208.1794   23347214.9034
      1465.399        1141.869
    823846.756 9    641331.46948  21274243.544    21274245.1744   21274250.8714
      -424.305        -330.627
 96 10 31 17  0 59.9980000  0  8 21  3 17  1 31 28  9 23            -0.001151300
  -4060388.157 9  -3017489.44748  20402761.317    20402762.9304   20402769.5034
      1466.932        1143.064
  -3777484.805 9  -2771860.75848  21006801.522    21006803.6604   21006809.9964
       828.879         645.880
   2436565.756 9   1895986.94847  21771074.953    21771076.7164   21771083.7414
     -1321.325       -1029.604
  -9101112.162 9  -7069674.19548  20738325.840    20738327.5994   20738334.1794
      3284.960        2559.709
  -3726277.007 9  -2620357.28747  22919667.311    22919669.0894   22919675.4364
      3090.209        2407.955
   3198321.909 9   2488502.536 9  21539872.934    21539874.873    21539881.126
     -1772.269       -1380.989
  -4838909.688 9  -3761032.68547  23338882.404    23338884.2384   23338890.9574
      1450.039        1129.900
    836593.488 9    651263.98048  21276669.148    21276670.7824   21276676.5104
      -426.215        -332.115
 96 10 31 17  1 29.9980000  0  8 21  3 17  1 31 28  9 23            -0.001172168
  -4104354.986 9  -3051749.31348  20394394.635    20394396.3194   20394402.8934
      1462.375        1139.513
  -3802118.607 9  -2791055.94748  21002113.875    21002116.0304   21002122.3544
       811.853         632.613
   2476290.197 9   1926941.03747  21778634.309    21778636.0244   21778643.0704
     -1328.668       -1035.326
  -9199508.364 9  -7146346.54748  20719601.639    20719603.4124   20719610.0144
      3273.045        2550.425
  -3818807.720 9  -2692459.16647  22902059.386    22902061.1094   22902067.4004
      3076.780        2397.491
   3251599.281 9   2530017.342 9  21550011.267    21550013.244    21550019.527
     -1781.247       -1387.985
  -4882206.193 9  -3794770.19147  23330643.261    23330645.2164   23330651.8724
      1434.806        1118.031
    849375.660 9    661224.10548  21279101.546    21279103.1764   21279108.9194
      -427.636        -333.223
 96 10 31 17  1 59.9980000  0  8 21  3 17  1 31 28  9 23            -0.001193104
  -4148195.101 9  -3085910.43848  20386052.245    20386053.8334   20386060.3794
      1459.473        1137.252
  -3826267.223 9  -2809873.06848  20997518.585    20997520.7144   20997527.0364
       797.158         621.162
   2516218.510 9   1958053.98147  21786232.408    21786234.1294   21786241.1664
     -1334.156       -1039.602
  -9297553.720 9  -7222745.51448  20700944.332    20700946.0064   20700952.6014
      3262.332        2542.077
  -3910960.277 9  -2764266.36847  22884523.388    22884525.0864   22884531.3004
      3065.763        2388.906
   3305131.261 9   2571730.541 9  21560198.148    21560200.104    21560206.360
     -1788.371       -1393.536
  -4925064.980 9  -3828166.61847  23322487.490    23322489.5344   23322496.0894
      1421.613        1107.750
    862179.917 9    671201.43948  21281538.073    21281539.7444   21281545.5084
      -426.847        -332.608
 96 10 31 17  2 29.9980000  0  8 21  3 17  1 31 28  9 23            -0.001214108
  -4191895.322 9  -3119962.55848  20377736.411    20377737.9924   20377744.5204
      1454.179        1133.126
  -3849921.103 9  -2828304.67848  20993017.438    20993019.5534   20993025.8904
       779.884         607.702
   2556370.258 9   1989341.02947  21793873.029    21793874.7704   21793881.8044
     -1342.353       -1045.989
  -9395217.443 9  -7298847.10548  20682359.580    20682361.2234   20682367.8074
      3249.015        2531.700
  -4002727.354 9  -2835773.19447  22867060.687    22867062.3944   22867068.5334
      3052.328        2378.437
   3358922.107 9   2613645.453 9  21570434.208    21570436.195    21570442.474
     -1797.337       -1400.522
  -4967483.249 9  -3861219.78847  23314415.568    23314417.6104   23314424.1214
      1406.811        1096.216
    875013.794 9    681201.85048  21283980.298    21283981.9674   21283987.7514
      -428.415        -333.830
 96 10 31 17  2 59.9980000  0  8 21  3 17  1 31 28  9 23            -0.001235197
  -4235451.420 9  -3153902.36748  20369447.895    20369449.5384   20369456.0784
      1450.992        1130.643
  -3873074.544 9  -2846346.33448  20988611.466    20988613.6034   20988619.9544
       765.042         596.137
   2596745.700 9   2020802.38947  21801556.292    21801557.9834   21801565.0364
     -1348.113       -1050.478
  -9492503.163 9  -7374654.14748  20663846.700    20663848.3734   20663854.9434
      3237.955        2523.082
  -4094111.528 9  -2906981.64147  22849670.773    22849672.5614   22849678.6654
      3040.888        2369.523
   3412959.403 9   2655752.402 9  21580717.236    21580719.175    21580725.464
     -1803.900       -1405.636
  -5009487.135 9  -3893950.06447  23306422.586    23306424.4694   23306430.9634
      1394.655        1086.744
    887873.836 9    691222.65448  21286427.499    21286429.1494   21286434.9424
      -427.643        -333.228
 96 10 31 17  3 29.9980000  0  8 21  3 17  1 31 28  9 23            -0.001256402
  -4278948.519 9  -3187796.20648  20361170.717    20361172.3464   20361178.8544
      1449.549        1129.519
  -3895803.385 9  -2864057.13648  20984286.369    20984288.4894   20984294.8404
       751.023         585.213
   2637272.913 9   2052382.00247  21809268.420    21809270.0804   21809277.1454
     -1352.968       -1054.261
  -9589486.551 9  -7450225.60948  20645391.306    20645393.0194   20645399.6314
      3228.307        2515.564
  -4185164.840 9  -2977932.27447  22832343.837    22832345.6794   22832351.8024
      3030.041        2361.071
   3467166.007 9   2697991.283 9  21591032.403    21591034.380    21591040.656
     -1809.104       -1409.691
  -5051151.205 9  -3926415.56747  23298494.113    23298496.0534   23298502.5244
      1383.742        1078.241
    900689.408 9    701208.79848  21288866.250    21288867.8684   21288873.6884
      -426.056        -331.992
 96 10 31 17  3 59.9980000  0  8 21  3 17  1 31 28  9 23            -0.001277687
  -4322346.738 9  -3221612.99648  20352912.294    20352913.9484   20352920.4394
      1443.308        1124.656
  -3918056.515 9  -2881397.25648  20980051.832    20980053.8834   20980060.2444
       732.113         570.478
   2678005.668 9   2084121.78447  21817019.652    21817021.3224   21817028.3914
     -1362.878       -1061.983
  -9686118.457 9  -7525523.18448  20627002.873    20627004.5764   20627011.1844
      3213.469        2504.002
  -4275833.932 9  -3048583.48247  22815090.054    22815091.8874   22815098.0564
      3014.037        2348.600
   3521581.424 9   2740392.874 9  21601387.391    21601389.298    21601395.600
     -1818.907       -1417.330
  -5092430.869 9  -3958581.52747  23290638.878    23290640.7504   23290647.2574
      1367.899        1065.895
    913510.086 9    711198.92948  21291306.028    21291307.5894   21291313.3834
      -428.946        -334.244
 96 10 31 17  4 29.9980000  0  8 21  3 17  1 31 28  9 23            -0.001299001
  -4365568.839 9  -3255292.55048  20344687.321    20344689.0254   20344695.5624
      1437.364        1120.024
  -3939755.584 9  -2898305.63748  20975922.629    20975924.6924   20975931.0624
       713.795         556.204
   2719017.431 9   2116078.97847  21824823.856    21824825.6394   21824832.7304
     -1371.801       -1068.936
  -9782322.408 9  -7600487.29148  20608695.877    20608697.5784   20608704.1614
      3199.483        2493.104
  -4366029.425 9  -3118865.65847  22797926.463    22797928.2204   22797934.4634
      2998.244        2336.294
   3576275.130 9   2783011.310 9  21611795.235    21611797.202    21611803.513
     -1828.073       -1424.472
  -5133246.582 9  -3990385.98747  23282871.916    23282873.8044   23282880.2694
      1352.505        1053.900
    926407.856 9    721249.12748  21293760.445    21293761.9804   21293767.7704
      -431.552        -336.274
 96 10 31 17  4 59.9980000  0  8 21  3 17  1 31 28  9 23            -0.001320337
  -4408589.423 9  -3288815.08048  20336500.794    20336502.4974   20336508.9934
      1430.962        1115.035
  -3960890.546 9  -2914774.45448  20971900.780    20971902.8444   20971909.2174
       695.268         541.767
   2760311.612 9   2148256.22947  21832681.920    21832683.6854   21832690.7764
     -1381.022       -1076.121
  -9878090.501 9  -7675111.76848  20590471.805    20590473.5114   20590480.0904
      3185.166        2481.948
  -4455736.354 9  -3188767.14947  22780855.788    22780857.5424   22780863.8804
      2982.278        2323.853
   3631265.998 9   2825861.302 9  21622259.760    21622261.664    21622267.962
     -1837.903       -1432.132
  -5173579.309 9  -4021814.08447  23275196.933    23275198.7754   23275205.2144
      1336.396        1041.348
    939396.669 9    731370.26948  21296232.112    21296233.6634   21296239.4364
      -434.243        -338.371
 96 10 31 17  5 29.9980000  0  8 21  3 17  1 31 28  9 23            -0.001341711
  -4451453.952 9  -3322216.00648  20328343.960    20328345.6644   20328352.1554
      1426.810        1111.800
  -3981493.000 9  -2930828.33448  20967980.287    20967982.3214   20967988.6844
       678.365         528.596
   2801857.622 9   2180629.70947  21840587.965    21840589.6274   21840596.7454
     -1388.496       -1081.945
  -9973461.311 9  -7749426.67348  20572323.372    20572325.0744   20572331.6214
      3172.996        2472.464
  -4544995.500 9  -3258319.71447  22763870.331    22763872.1144   22763878.4664
      2968.664        2313.245
   3686523.129 9   2868918.774 9  21632774.870    21632776.779    21632783.049
     -1845.704       -1438.211
  -5213457.772 9  -4052888.22547  23267608.269    23267610.1624   23267616.5784
      1322.448        1030.479
    952435.052 9    741530.03748  21298713.192    21298714.8044   21298720.5904
      -434.760        -338.774
 96 10 31 17  5 59.9980000  0  8 21  3 17  1 31 28  9 23            -0.001363155
  -4494196.186 9  -3355521.64148  20320210.351    20320212.0624   20320218.5694
      1421.817        1107.909
  -4001596.251 9  -2946493.21948  20964154.719    20964156.7924   20964163.1534
       660.957         515.031
   2843617.471 9   2213169.82147  21848534.538    21848536.2934   21848543.4304
     -1396.294       -1088.021
 -10068472.957 9  -7823461.70348  20554243.257    20554244.9674   20554251.4984
      3160.309        2462.578
  -4633857.086 9  -3327562.49947  22746960.579    22746962.3144   22746968.6574
      2954.520        2302.223
   3742007.407 9   2912153.243 9  21643333.170    21643335.122    21643341.389
     -1854.068       -1444.728
  -5252929.842 9  -4083645.68947  23260096.904    23260098.8394   23260105.2404
      1308.145        1019.334
    965476.411 9    751692.12348  21301194.887    21301196.5304   21301202.2984
      -435.513        -339.361
 96 10 31 17  6 29.9980000  0  8 21  3 17  1 31 28  9 23            -0.001384666
  -4536805.630 9  -3388723.80348  20312102.036    20312103.7614   20312110.2534
      1418.472        1105.303
  -4021190.848 9  -2961761.75548  20960425.996    20960428.0964   20960434.4504
       644.845         502.477
   2885595.864 9   2245880.22947  21856522.932    21856524.5954   21856531.6734
     -1402.713       -1093.023
 -10163126.834 9  -7897217.95648  20536231.245    20536232.9414   20536239.4434
      3149.482        2454.142
  -4722316.168 9  -3396491.65447  22730127.394    22730129.1414   22730135.4654
      2942.173        2292.602
   3797728.997 9   2955572.627 9  21653936.714    21653938.632    21653944.893
     -1861.120       -1450.223
  -5291987.329 9  -4114080.11147  23252664.438    23252666.3944   23252672.7854
      1295.287        1009.315
    978535.113 9    761867.72648  21303679.869    21303681.5334   21303687.3084
      -435.530        -339.374
 96 10 31 17  6 59.9980000  0  8 21  3 17  1 31 28  9 23            -0.001406245
  -4579316.626 9  -3421849.25148  20304012.589    20304014.1874   20304020.6674
      1415.148        1102.713
  -4040285.566 9  -2976640.77748  20956792.424    20956794.5574   20956800.8704
       627.485         488.949
   2927783.826 9   2278753.93847  21864550.988    21864552.6964   21864559.8234
     -1410.379       -1098.997
 -10257445.027 9  -7970712.63748  20518283.076    20518284.7934   20518291.2704
      3137.779        2445.023
  -4810399.588 9  -3465128.09247  22713365.724    22713367.4854   22713373.7804
      2929.169        2282.469
   3853671.163 9   2999163.888 9  21664582.096    21664584.070    21664590.339
     -1868.890       -1456.278
  -5330645.892 9  -4144203.66747  23245307.933    23245309.9444   23245316.3114
      1281.209         998.345
    991606.776 9    772053.42748  21306167.353    21306169.0184   21306174.7934
      -436.441        -340.084
 96 10 31 17  7 29.9980000  0  8 21  3 17  1 31 28  9 23            -0.001427852
  -4621712.196 9  -3454884.75848  20295944.982    20295946.6004   20295953.0584
      1411.088        1099.549
  -4058840.102 9  -2991098.87548  20953261.680    20953263.7734   20953270.0884
       609.405         474.861
   2970218.024 9   2311819.50847  21872625.958    21872627.6724   21872634.8314
     -1418.586       -1105.392
 -10351391.953 9  -8043918.01648  20500405.560    20500407.2864   20500413.7724
      3125.163        2435.192
  -4898060.757 9  -3533435.50147  22696684.379    22696686.1264   22696692.3914
      2914.661        2271.164
   3909860.269 9   3042947.569 9  21675274.603    21675276.561    21675282.778
     -1877.080       -1462.660
  -5368856.202 9  -4173977.95547  23238036.772    23238038.7814   23238045.1654
      1265.907         986.421
   1004719.626 9    782271.22148  21308662.695    21308664.3414   21308670.0844
      -437.830        -341.166
 96 10 31 17  7 59.9980000  0  8 21  3 17  1 31 28  9 23            -0.001449491
  -4663995.911 9  -3487833.10448  20287898.714    20287900.2784   20287906.7164
      1407.916        1097.077
  -4076870.706 9  -3005148.70948  20949830.576    20949832.6684   20949839.0194
       592.908         462.006
   3012874.211 9   2345058.06647  21880743.207    21880744.9214   21880752.0684
     -1425.024       -1110.408
 -10444969.679 9  -8116835.71048  20482598.303    20482600.0324   20482606.5194
      3113.461        2426.073
  -4985294.901 9  -3601410.15947  22680084.146    22680085.9364   22680092.2354
      2901.109        2260.604
   3966280.707 9   3086911.505 9  21686011.110    21686013.073    21686019.267
     -1884.066       -1468.103
  -5406611.141 9  -4203397.39347  23230852.158    23230854.2614   23230860.6594
      1251.153         974.924
   1017862.603 9    792512.48848  21311163.782    21311165.3844   21311171.1534
      -438.228        -341.476
 96 10 31 17  8 29.9980000  0  8 21  3 17  1 31 28  9 23            -0.001471167
  -4706165.646 9  -3520692.63448  20279874.114    20279875.6354   20279882.0824
      1403.735        1093.819
  -4094393.598 9  -3018802.92448  20946496.046    20946498.1564   20946504.5224
       575.681         448.583
   3055741.602 9   2378461.19647  21888900.638    21888902.3374   21888909.4684
     -1432.513       -1116.244
 -10538171.186 9  -8189460.24248  20464862.627    20464864.3654   20464870.8724
      3100.289        2415.810
  -5072105.700 9  -3669054.92547  22663564.518    22663566.3154   22663572.6354
      2886.495        2249.217
   4022930.447 9   3131054.124 9  21696791.184    21696793.187    21696799.391
     -1892.187       -1474.431
  -5443894.005 9  -4232448.99347  23223757.519    23223759.5804   23223765.9824
      1234.775         962.162
   1031040.557 9    802781.01448  21313671.463    21313673.0544   21313678.8454
      -439.815        -342.713
 96 10 31 17  8 59.9980000  0  8 21  3 17  1 31 28  9 23            -0.001492861
  -4748201.410 9  -3553447.77248  20271874.954    20271876.4994   20271882.9264
      1398.924        1090.071
  -4111396.375 9  -3032051.85448  20943260.592    20943262.6644   20943269.0424
       558.143         434.917
   3098842.638 9   2412046.37347  21897102.562    21897104.2134   21897111.3844
     -1440.435       -1122.417
 -10630968.459 9  -8261769.78848  20447203.916    20447205.6364   20447212.1414
      3086.480        2405.049
  -5158461.651 9  -3736345.27047  22647131.529    22647133.3244   22647139.6814
      2870.879        2237.049
   4079825.822 9   3175388.143 9  21707618.064    21707620.045    21707626.242
     -1900.498       -1480.908
  -5480677.317 9  -4261111.32847  23216757.989    23216759.9284   23216766.3624
      1217.789         948.926
   1044257.833 9    813080.17948  21316186.528    21316188.2204   21316194.0294
      -441.009        -343.643
 96 10 31 17  9 29.9980000  0  8 21  3 17  1 31 28  9 23            -0.001514586
  -4790087.459 9  -3586086.25148  20263904.346    20263905.8914   20263912.2954
      1396.148        1087.908
  -4127881.044 9  -3044897.07348  20940123.705    20940125.7404   20940132.1044
       543.349         423.389
   3142172.339 9   2445809.73847  21905347.742    21905349.6734   21905356.8034
     -1445.727       -1126.541
 -10723350.704 9  -8333755.93748  20429624.133    20429625.8784   20429632.3824
      3074.923        2396.044
  -5244354.711 9  -3803274.92748  22630786.654    22630788.4214   22630794.7864
      2858.046        2227.049
   4136964.300 9   3219911.593 9  21718491.221    21718493.145    21718499.387
     -1906.111       -1485.281
  -5516965.937 9  -4289388.20147  23209852.473    23209854.4344   23209860.8714
      1204.237         938.366
   1057504.992 9    823402.62748  21318707.535    21318709.0854   21318714.9134
      -439.705        -342.627
 96 10 31 17  9 59.9980000  0  8 21  3 17  1 31 28  9 23            -0.001536372
  -4831841.863 9  -3618622.14648  20255958.794    20255960.3014   20255966.6904
      1388.754        1082.146
  -4143869.376 9  -3057355.52448  20937081.200    20937083.2594   20937089.6564
       523.901         408.235
   3185716.893 9   2479740.52447  21913634.083    21913635.9944   21913643.1274
     -1456.050       -1134.584
 -10815336.207 9  -8405432.93248  20412119.902    20412121.6254   20412128.1194
      3058.773        2383.459
  -5329819.295 9  -3869870.69748  22614523.322    22614525.1034   22614531.4844
      2840.939        2213.719
   4194321.622 9   3264605.571 9  21729405.956    21729407.925    21729414.175
     -1916.331       -1493.245
  -5552808.899 9  -4317317.80847  23203031.714    23203033.7724   23203040.2184
      1186.719         924.716
   1070777.197 9    833744.59448  21321233.179    21321234.6914   21321240.5724
      -443.806        -345.823
 96 10 31 17 10 29.9980000  0  8 21  3 17  1 31 28  9 23            -0.001558215
  -4873459.370 9  -3651051.36948  20248039.170    20248040.7414   20248047.1344
      1385.084        1079.286
  -4159351.488 9  -3069419.52148  20934135.037    20934137.1284   20934143.5414
       507.534         395.481
   3229502.851 9   2513859.41047  21921966.249    21921968.1814   21921975.3354
     -1463.544       -1140.424
 -10906920.992 9  -8476797.67948  20394691.884    20394693.6094   20394700.0964
      3046.309        2373.747
  -5414848.958 9  -3936127.57148  22598342.753    22598344.5524   22598350.9554
      2826.990        2202.849
   4251899.991 9   3309471.789 9  21740362.854    21740364.772    21740371.008
     -1922.853       -1498.327
  -5588220.827 9  -4344911.53547  23196293.247    23196295.1244   23196301.6024
      1173.433         914.363
   1084093.549 9    844120.96548  21323767.163    21323768.7044   21323774.6234
      -444.556        -346.407
 96 10 31 17 10 59.9980000  0  8 21  3 17  1 31 28  9 23            -0.001580117
  -4914950.212 9  -3683381.89148  20240143.695    20240145.3054   20240151.6974
      1380.324        1075.577
  -4174318.372 9  -3081082.04948  20931286.926    20931289.0664   20931295.4614
       489.552         381.469
   3273529.364 9   2548165.74847  21930344.303    21930346.1464   21930353.3374
     -1471.962       -1146.983
 -10998113.643 9  -8547856.87448  20377338.520    20377340.2424   20377346.7134
      3032.493        2362.982
  -5499444.560 9  -4002046.21247  22582244.766    22582246.5584   22582253.0144
      2812.186        2191.314
   4309689.263 9   3354502.349 9  21751359.686    21751361.712    21751367.977
     -1930.371       -1504.185
  -5623220.786 9  -4372184.24247  23189633.038    23189634.8644   23189641.3124
      1159.171         903.250
   1097451.512 9    854529.75248  21326309.033    21326310.6754   21326316.5924
      -446.698        -348.076
 96 10 31 17 11 29.9980000  0  8 21  3 17  1 31 28  9 23            -0.001602076
  -4956290.855 9  -3715595.38448  20232276.784    20232278.4394   20232284.8044
      1376.106        1072.290
  -4188735.871 9  -3092316.47748  20928543.383    20928545.5284   20928551.9204
       471.992         367.786
   3317810.655 9   2582670.60447  21938770.761    21938772.6054   21938779.8454
     -1479.806       -1153.096
 -11088878.628 9  -8618582.81648  20360066.548    20360068.2624   20360074.7114
      3018.960        2352.436
  -5583599.538 9  -4067621.50547  22566230.518    22566232.3484   22566238.8334
      2798.344        2180.528
   4367709.151 9   3399712.610 9  21762400.569    21762402.550    21762408.851
     -1937.240       -1509.538
  -5657788.577 9  -4399120.20147  23183054.794    23183056.8374   23183063.2784
      1145.503         892.600
   1110884.537 9    864997.03048  21328865.204    21328866.9084   21328872.8524
      -448.384        -349.390
 96 10 31 17 11 59.9980000  0  8 21  3 17  1 31 28  9 23            -0.001624088
  -4997490.779 9  -3747699.22648  20224436.705    20224438.3624   20224444.7274
      1371.585        1068.768
  -4202613.834 9  -3103130.49648  20925902.496    20925904.6634   20925911.0544
       454.478         354.139
   3362341.526 9   2617369.94747  21947244.687    21947246.5854   21947253.8244
     -1487.649       -1159.207
 -11179225.355 9  -8688982.84548  20342874.175    20342875.8564   20342882.2924
      3005.307        2341.798
  -5667319.071 9  -4132857.50247  22550299.166    22550301.0084   22550307.5194
      2784.023        2169.369
   4425949.535 9   3445094.686 9  21773483.374    21773485.334    21773491.691
     -1944.245       -1514.996
  -5691913.496 9  -4425711.05747  23176561.045    23176563.0924   23176569.5514
      1130.630         881.010
   1124379.280 9    875512.39748  21331433.158    21331434.8914   21331440.8524
      -449.961        -350.619
 96 10 31 17 12 29.9980000  0  8 21  3 17  1 31 28  9 23            -0.001646153
  -5038538.389 9  -3779684.37748  20216625.713    20216627.2694   20216633.6444
      1365.425        1063.967
  -4215948.029 9  -3113520.79348  20923365.129    20923367.2634   20923373.6804
       434.948         338.921
   3407116.426 9   2652259.43447  21955765.068    21955766.9914   21955774.2304
     -1496.682       -1166.246
 -11269140.061 9  -8759046.23448  20325763.963    20325765.6674   20325772.1064
      2989.429        2329.425
  -5750600.687 9  -4197752.29047  22534451.176    22534453.0084   22534459.5044
      2768.467        2157.247
   4484414.907 9   3490652.078 9  21784608.972    21784610.936    21784617.337
     -1952.936       -1521.768
  -5725573.870 9  -4451939.92847  23170155.733    23170157.7864   23170164.1894
      1113.824         867.915
   1137932.887 9    886073.63648  21334012.475    21334014.0664   21334020.0434
      -453.024        -353.006
 96 10 31 17 12 59.9980000  0  8 21  3 17  1 31 28  9 23            -0.001668280
  -5079447.595 9  -3811561.68648  20208840.944    20208842.5254   20208848.8804
      1361.749        1061.103
  -4228747.452 9  -3123494.38748  20920929.485    20920931.6304   20920938.0604
       418.244         325.904
   3452110.005 9   2687319.32847  21964327.143    21964329.0554   21964336.2744
     -1502.954       -1171.133
 -11358617.477 9  -8828768.87648  20308736.926    20308738.6644   20308745.1294
      2975.689        2318.719
  -5833460.078 9  -4262318.07447  22518683.627    22518685.4404   22518691.8334
      2755.256        2146.953
   4543096.935 9   3536378.291 9  21795775.803    21795777.776    21795784.206
     -1959.316       -1526.740
  -5758766.518 9  -4477804.33247  23163839.342    23163841.4424   23163847.8364
      1098.947         856.322
   1151530.614 9    896669.24848  21336600.054    21336601.6494   21336607.6294
      -453.532        -353.401
 96 10 31 17 13 29.9980000  0  8 21  3 17  1 31 28  9 23            -0.001690460
  -5120212.884 9  -3843326.84848  20201083.540    20201085.1714   20201091.5224
      1356.908        1057.331
  -4241012.876 9  -3133051.87348  20918595.461    20918597.6094   20918604.0494
       400.595         312.152
   3497327.291 9   2722553.53947  21972931.727    21972933.6574   21972940.8524
     -1510.682       -1177.155
 -11447656.588 9  -8898149.98448  20291793.341    20291795.0854   20291801.5574
      2961.437        2307.613
  -5915882.012 9  -4326542.97248  22502999.349    22503001.1224   22503007.4574
      2740.212        2135.230
   4602002.329 9   3582278.555 9  21806985.191    21806987.158    21806993.585
     -1966.770       -1532.548
  -5791478.388 9  -4503294.10047  23157614.465    23157616.5554   23157622.9454
      1082.799         843.739
   1165174.636 9    907300.93948  21339196.424    21339198.0374   21339204.0374
      -455.141        -354.655
 96 10 31 17 13 59.9980000  0  8 21  3 17  1 31 28  9 23            -0.001712671
  -5160839.569 9  -3874984.01048  20193352.529    20193354.2024   20193360.5404
      1351.972        1053.485
  -4252761.842 9  -3142206.93448  20916359.756    20916361.8774   20916368.2924
       383.157         298.564
   3542775.235 9   2757967.46847  21981580.276    21981582.1304   21981589.3474
     -1518.673       -1183.381
 -11536278.654 9  -8967206.12248  20274929.118    20274930.8594   20274937.3434
      2947.004        2296.367
  -5997842.225 9  -4390408.08648  22487402.932    22487404.6994   22487410.9824
      2724.056        2122.641
   4661129.147 9   3628351.354 9  21818236.701    21818238.669    21818245.108
     -1974.610       -1538.657
  -5823706.386 9  -4528406.82647  23151481.704    23151483.8294   23151490.1864
      1066.269         830.859
   1178870.487 9    917973.01248  21341802.664    21341804.2754   21341810.2994
      -457.632        -356.596
 96 10 31 17 14 29.9980000  0  8 21  3 17  1 31 28  9 23            -0.001734909
  -5201334.287 9  -3906538.33948  20185646.724    20185648.3334   20185654.6554
      1348.637        1050.886
  -4264005.076 9  -3150967.91148  20914220.207    20914222.3654   20914228.7894
       367.487         286.353
   3588444.624 9   2793553.96147  21990270.888    21990272.7904   21990279.9754
     -1525.020       -1188.327
 -11624477.502 9  -9035932.47748  20258145.438    20258147.1564   20258153.6704
      2933.999        2286.233
  -6079322.588 9  -4453899.27248  22471897.801    22471899.5384   22471905.8394
      2708.673        2110.654
   4720478.851 9   3674597.831 9  21829530.613    21829532.591    21829539.040
     -1981.004       -1543.639
  -5855454.075 9  -4553145.27747  23145440.461    23145442.4274   23145448.8274
      1051.153         819.080
   1192626.984 9    928692.34648  21344420.339    21344422.0584   21344428.0964
      -458.441        -357.227
 96 10 31 17 14 59.9980000  0  8 21  3 17  1 31 28  9 23            -0.001757165
  -5241713.968 9  -3938003.02748  20177962.776    20177964.3474   20177970.6554
      1343.651        1047.001
  -4274770.884 9  -3159356.86848  20912171.566    20912173.7364   20912180.1834
       350.523         273.135
   3634325.348 9   2829305.13447  21999001.782    21999003.6744   21999010.8344
     -1533.458       -1194.902
 -11712277.932 9  -9104348.37648  20241437.526    20241439.2804   20241445.8254
      2919.799        2275.168
  -6160310.270 9  -4517006.52648  22456486.277    22456488.0974   22456494.4784
      2690.759        2096.695
   4780033.263 9   3721003.817 9  21840863.537    21840865.469    21840871.918
     -1988.888       -1549.783
  -5886724.385 9  -4577511.75047  23139489.889    23139491.8804   23139498.3144
      1033.859         805.604
   1206419.110 9    939439.43948  21347044.947    21347046.6134   21347052.6514
      -460.738        -359.017
 96 10 31 17 15 29.9980000  0  8 21  3 17  1 31 28  9 23            -0.001779415
  -5281944.960 9  -3969351.85648  20170307.028    20170308.6334   20170314.9344
      1338.730        1043.166
  -4285035.244 9  -3167355.08948  20910218.289    20910220.5144   20910226.9294
       334.098         260.336
   3680456.023 9   2865251.07547  22007780.207    22007782.0754   22007789.1944
     -1541.845       -1201.438
 -11799664.024 9  -9172441.41948  20224808.473    20224810.2424   20224816.7774
      2906.063        2264.465
  -6240764.800 9  -4579698.33447  22441176.309    22441178.1154   22441184.5734
      2673.044        2082.891
   4839811.594 9   3767584.292 9  21852238.931    21852240.895    21852247.412
     -1996.044       -1555.359
  -5917487.863 9  -4601483.28047  23133635.851    23133637.7514   23133644.1884
      1017.189         792.615
   1220274.657 9    950235.94948  21349681.597    21349683.2544   21349689.2964
      -462.829        -360.646
 96 10 31 17 15 59.9980000  0  8 21  3 17  1 31 28  9 23            -0.001801675
  -5322040.669 9  -4000595.27448  20162677.126    20162678.7034   20162684.9784
      1334.355        1039.757
  -4294822.058 9  -3174981.19748  20908355.856    20908358.1714   20908364.6004
       318.254         247.990
   3726824.776 9   2901382.52147  22016603.962    22016605.7504   22016612.8954
     -1549.308       -1207.253
 -11886642.614 9  -9240216.92548  20208256.997    20208258.7574   20208265.3104
      2892.379        2253.802
  -6320701.495 9  -4641986.65347  22425964.815    22425966.6454   22425973.1494
      2656.262        2069.814
   4899790.473 9   3814321.036 9  21863652.521    21863654.529    21863661.070
     -2002.469       -1560.365
  -5947760.385 9  -4625072.25347  23127875.126    23127877.1254   23127883.5314
      1001.181         780.141
   1234179.123 9    961070.58348  21352327.504    21352329.2014   21352335.2484
      -464.067        -361.611
 96 10 31 17 16 29.9980000  0  8 21  3 17  1 31 28  9 23            -0.001823951
  -5361979.701 9  -4031716.60048  20155076.975    20155078.5544   20155084.8234
      1328.128        1034.905
  -4304099.921 9  -3182210.71748  20906590.333    20906592.6534   20906599.1064
       300.084         233.832
   3773439.251 9   2937705.44347  22025474.465    22025476.2634   22025483.4124
     -1558.548       -1214.453
 -11973190.315 9  -9307656.66948  20191787.491    20191789.2504   20191795.8024
      2877.447        2242.166
  -6400126.304 9  -4703876.13247  22410850.792    22410852.6024   22410859.1094
      2638.765        2056.180
   4959980.436 9   3861222.263 9  21875106.350    21875108.353    21875114.904
     -2010.213       -1566.400
  -5977534.518 9  -4648272.85347  23122209.358    23122211.2904   23122217.7224
       983.815         766.609
   1248138.383 9    971947.91048  21354983.962    21354985.5834   21354991.6604
      -466.537        -363.535
 96 10 31 17 16 59.9980000  0  8 21  3 17  1 31 28  9 23            -0.001846248
  -5401739.372 9  -4062698.16948  20147510.956    20147512.5594   20147518.8164
      1322.397        1030.439
  -4312834.201 9  -3189016.66148  20904928.329    20904930.6134   20904937.0594
       281.906         219.667
   3820321.118 9   2974236.72847  22034395.768    22034397.6394   22034404.8234
     -1567.030       -1221.062
 -12059304.646 9  -9374758.72948  20175400.499    20175402.2264   20175408.7664
      2863.306        2231.148
  -6479053.497 9  -4765377.89547  22395831.521    22395833.3274   22395839.6814
      2622.928        2043.840
   5020386.513 9   3908291.887 9  21886601.218    21886603.273    21886609.844
     -2017.051       -1571.728
  -6006809.794 9  -4671084.75147  23116638.429    23116640.4204   23116646.8564
       967.821         754.146
   1262165.741 9    982878.30048  21357653.285    21357654.9374   21357661.0144
      -468.788        -365.289
 96 10 31 17 17 29.9980000  0  8 21  3 17  1 31 28  9 23            -0.001868583
  -5441328.680 9  -4093546.98748  20139977.302    20139978.9484   20139985.2004
      1317.485        1026.612
  -4321019.616 9  -3195394.93048  20903370.771    20903373.0184   20903379.4054
       264.400         206.026
   3867455.524 9   3010964.78547  22043365.182    22043367.0294   22043374.2144
     -1574.641       -1226.993
 -12144991.364 9  -9441527.58248  20159094.943    20159096.5824   20159103.1284
      2849.579        2220.451
  -6557513.566 9  -4826515.65648  22380901.129    22380902.8914   22380909.1024
      2608.293        2032.436
   5080996.296 9   3955520.240 9  21898134.941    21898136.956    21898143.532
     -2023.107       -1576.447
  -6035610.513 9  -4693526.86147  23111157.783    23111159.7854   23111166.2044
       952.705         742.368
   1276256.808 9    993858.33348  21360334.729    21360336.3814   21360342.4834
      -469.930        -366.179
 96 10 31 17 17 59.9980000  0  8 21  3 17  1 31 28  9 23            -0.001890982
  -5480772.998 9  -4124282.82448  20132471.288    20132472.9434   20132479.1814
      1312.441        1022.681
  -4328680.012 9  -3201364.08648  20901913.022    20901915.2814   20901921.6854
       246.648         192.193
   3914805.038 9   3047860.46747  22052375.613    22052377.3884   22052384.5424
     -1581.644       -1232.450
 -12230269.035 9  -9507977.69548  20142867.055    20142868.7684   20142875.3084
      2835.820        2209.730
  -6635542.334 9  -4887317.30048  22366052.826    22366054.5504   22366060.7124
      2593.878        2021.204
   5141784.147 9   4002887.354 9  21909702.473    21909704.511    21909711.092
     -2029.116       -1581.129
  -6063960.828 9  -4715618.02047  23105762.848    23105764.8584   23105771.2734
       937.634         730.624
   1290370.275 9   1004855.82448  21363020.477    21363022.0824   21363028.2204
      -470.670        -366.756
 96 10 31 17 18 29.9980000  0  8 21  3 17  1 31 28  9 23            -0.001913429
  -5520036.485 9  -4154877.75348  20124999.724    20125001.3604   20125007.6114
      1305.330        1017.140
  -4335780.036 9  -3206896.59148  20900561.984    20900564.1954   20900570.6014
       227.030         176.906
   3962395.765 9   3084944.10147  22061431.790    22061433.6904   22061440.8144
     -1590.861       -1239.632
 -12315100.047 9  -9574079.76748  20126724.214    20126725.9504   20126732.4864
      2819.738        2197.198
  -6713111.475 9  -4947760.76248  22351291.809    22351293.5714   22351299.8524
      2577.454        2008.406
   5202779.107 9   4050415.845 9  21921309.429    21921311.480    21921318.080
     -2036.960       -1587.242
  -6091829.560 9  -4737333.91847  23100459.563    23100461.5834   23100468.0574
       920.443         717.228
   1304538.193 9   1015895.74348  21365716.503    21365718.1744   21365724.3094
      -473.648        -369.076
 96 10 31 17 18 59.9980000  0  8 21  3 17  1 31 28  9 23            -0.001935898
  -5559086.684 9  -4185306.48448  20117568.733    20117570.3754   20117576.6264
      1297.965        1011.401
  -4342304.690 9  -3211980.75448  20899320.336    20899322.6464   20899329.0654
       207.854         161.964
   4010265.146 9   3122244.87447  22070541.231    22070543.0184   22070550.1484
     -1600.606       -1247.225
 -12399436.098 9  -9639796.15348  20110675.599    20110677.3294   20110683.8794
      2802.436        2183.716
  -6790177.019 9  -5007811.79248  22336626.706    22336628.4204   22336634.8684
      2559.864        1994.699
   5264008.718 9   4098127.186 9  21932961.067    21932963.127    21932969.758
     -2045.210       -1593.670
  -6119180.045 9  -4758645.98547  23095254.910    23095256.9714   23095263.3984
       902.507         703.252
   1318796.863 9   1027006.38248  21368429.857    21368431.5224   21368437.6524
      -477.138        -371.796
 96 10 31 17 19 29.9980000  0  8 21  3 17  1 31 28  9 23            -0.001958414
  -5597966.795 9  -4215602.67848  20110170.145    20110171.7254   20110177.9824
      1292.436        1007.093
  -4348307.177 9  -3216658.03348  20898178.210    20898180.4294   20898186.8384
       190.828         148.697
   4058387.788 9   3159742.98847  22079698.734    22079700.4774   22079707.5954
     -1609.085       -1253.832
 -12483291.265 9  -9705137.82848  20094718.477    20094720.2204   20094726.7794
      2786.445        2171.256
  -6866750.854 9  -5067479.69648  22322055.193    22322056.9224   22322063.4354
      2543.404        1981.873
   5325441.440 9   4145996.790 9  21944651.502    21944653.433    21944660.101
     -2051.821       -1598.822
  -6146024.913 9  -4779564.07747  23090146.454    23090148.5454   23090154.9724
       885.651         690.118
   1333111.546 9   1038160.66548  21371153.898    21371155.5184   21371161.6364
      -478.745        -373.048
 96 10 31 17 19 59.9980000  0  8 21  3 17  1 31 28  9 23            -0.001980958
  -5636670.914 9  -4245761.73748  20102804.971    20102806.5644   20102812.8494
      1287.327        1003.112
  -4353787.572 9  -3220928.49048  20897135.372    20897137.5414   20897143.9634
       174.050         135.623
   4106771.802 9   3197444.76847  22088905.977    22088907.6994   22088914.7984
     -1616.948       -1259.959
 -12566657.793 9  -9770098.74748  20078854.377    20078856.0984   20078862.6454
      2770.866        2159.116
  -6942809.466 9  -5126746.15648  22307581.759    22307583.4754   22307590.0244
      2526.706        1968.862
   5387083.058 9   4194029.174 9  21956381.467    21956383.474    21956390.164
     -2058.098       -1603.713
  -6172353.934 9  -4800080.20147  23085136.392    23085138.3164   23085144.6924
       869.298         677.375
   1347496.811 9   1049369.94848  21373891.232    21373892.9424   21373899.0624
      -480.854        -374.691
 96 10 31 17 20 29.9980000  0  8 21  3 17  1 31 28  9 23            -0.002003535
  -5675222.705 9  -4275802.09648  20095468.795    20095470.4004   20095476.7064
      1281.862         998.854
  -4358760.172 9  -3224803.26348  20896189.040    20896191.2634   20896197.7064
       156.495         121.944
   4155401.033 9   3235337.62947  22098159.923    22098161.6244   22098168.6484
     -1625.780       -1266.841
 -12649553.455 9  -9834692.75348  20063079.835    20063081.5944   20063088.1004
      2754.654        2146.484
  -7018365.039 9  -5185620.65248  22293204.032    22293205.7704   22293212.2654
      2509.358        1955.344
   5448917.003 9   4242211.421 9  21968148.056    21968150.103    21968156.799
     -2065.091       -1609.162
  -6198189.432 9  -4820211.76647  23080220.066    23080221.9974   23080228.3694
       852.163         664.023
   1361957.648 9   1060638.11348  21376643.079    21376644.7634   21376650.8714
      -484.068        -377.196
 96 10 31 17 20 59.9970000  0  8 21  3 17  1 31 28  9 23            -0.002026130
  -5713628.857 9  -4305728.97348  20088160.260    20088161.9564   20088168.2474
      1279.471         996.990
  -4363223.879 9  -3228281.49548  20895339.727    20895341.8594   20895348.2864
       141.857         110.538
   4204274.196 9   3273420.56747  22107460.152    22107461.9024   22107468.9684
     -1631.669       -1271.430
 -12731981.532 9  -9898922.40848  20047394.232    20047396.0464   20047402.5414
      2741.722        2136.407
  -7093406.046 9  -5244094.19347  22278924.245    22278925.9994   22278932.3664
      2494.307        1943.616
   5510943.637 9   4290543.817 9  21979951.413    21979953.416    21979960.110
     -2069.319       -1612.456
  -6223523.053 9  -4839952.25447  23075399.384    23075401.1794   23075407.5774
       837.546         652.633
   1376498.421 9   1071968.56748  21379410.094    21379411.7904   21379417.8874
      -484.408        -377.461
 96 10 31 17 21 29.9970000  0  8 21  3 17  1 31 28  9 23            -0.002048743
  -5751901.427 9  -4335551.76148  20080877.277    20080878.9494   20080885.2474
      1272.248         991.362
  -4367184.532 9  -3231367.73848  20894586.052    20894588.1724   20894594.6144
       122.544          95.489
   4253375.721 9   3311681.44047  22116803.925    22116805.6394   22116812.7044
     -1641.340       -1278.966
 -12813980.225 9  -9962817.48048  20031790.442    20031792.2234   20031798.7174
      2725.238        2123.562
  -7167942.584 9  -5302174.62747  22264740.397    22264742.1194   22264748.4644
      2475.218        1928.741
   5573154.363 9   4339019.660 9  21991789.793    21991791.777    21991798.493
     -2077.665       -1618.960
  -6248363.012 9  -4859308.06047  23070672.530    23070674.3484   23070680.6764
       818.969         638.158
   1391102.691 9   1083348.49848  21382189.285    21382190.9344   21382197.0424
      -488.824        -380.902
 96 10 31 17 21 59.9970000  0  8 21  3 17  1 31 28  9 23            -0.002071367
  -5790003.764 9  -4365241.89448  20073626.654    20073628.3394   20073634.6464
      1267.546         987.698
  -4370613.480 9  -3234039.66448  20893933.526    20893935.7034   20893942.1124
       105.717          82.377
   4302711.668 9   3350124.98947  22126192.219    22126193.9794   22126201.0324
     -1648.195       -1284.308
 -12895533.503 9 -10026365.47648  20016271.454    20016273.1574   20016279.6364
      2711.141        2112.577
  -7241959.024 9  -5359849.73847  22250655.376    22250657.1164   22250663.5694
      2458.870        1916.003
   5635565.873 9   4387651.957 9  22003666.278    22003668.309    22003675.075
     -2083.433       -1623.454
  -6272695.263 9  -4878268.25147  23066042.277    23066044.1074   23066050.3974
       802.803         625.561
   1405795.602 9   1094797.50148  21384985.275    21384986.9364   21384993.0264
      -491.047        -382.634
 96 10 31 17 22 29.9970000  0  8 21  3 17  1 31 28  9 23            -0.002093996
  -5827922.500 9  -4394788.96848  20066410.969    20066412.6404   20066418.9744
      1260.070         981.873
  -4373504.535 9  -3236292.45948  20893383.325    20893385.5984   20893391.9774
        86.850          67.675
   4352304.306 9   3388768.55147  22135629.468    22135631.2014   22135638.2584
     -1658.228       -1292.126
 -12976619.148 9 -10089549.08248  20000841.379    20000843.0634   20000849.5404
      2694.352        2099.495
  -7315451.438 9  -5417116.54848  22236670.255    22236672.0024   22236678.4944
      2440.075        1901.357
   5698186.009 9   4436446.817 9  22015582.439    22015584.544    22015591.319
     -2091.458       -1629.707
  -6296496.196 9  -4896814.43847  23061513.059    23061514.9484   23061521.2334
       783.694         610.671
   1420590.282 9   1106325.80148  21387800.616    21387802.3044   21387808.3754
      -495.338        -385.978
 96 10 31 17 22 59.9970000  0  8 21  3 17  1 31 28  9 23            -0.002116605
  -5865611.004 9  -4424156.63848  20059239.056    20059240.7484   20059247.0964
      1253.222         976.537
  -4375831.122 9  -3238105.40448  20892940.747    20892942.8974   20892949.3304
        68.917          53.702
   4402200.361 9   3427648.53947  22145124.431    22145126.1444   22145133.1874
     -1667.578       -1299.411
 -13057202.070 9 -10152340.95748  19985506.875    19985508.6354   19985515.1014
      2678.488        2087.133
  -7388372.009 9  -5473937.76448  22222794.010    22222795.7644   22222802.2354
      2421.989        1887.264
   5761045.494 9   4485428.186 9  22027544.275    22027546.359    22027553.087
     -2098.427       -1635.138
  -6319720.849 9  -4914911.56547  23057093.471    23057095.4714   23057101.7374
       765.461         596.463
   1435501.040 9   1117944.55348  21390638.042    21390639.7694   21390645.8224
      -497.963        -388.023
 96 10 31 17 23 29.9970000  0  8 21  3 17  1 31 28  9 23            -0.002139224
  -5903093.734 9  -4453363.96248  20052106.358    20052108.0534   20052114.3734
      1245.601         970.598
  -4377619.971 9  -3239499.33248  20892600.385    20892602.5214   20892608.9514
        50.283          39.181
   4452377.787 9   3466747.78547  22154672.895    22154674.6114   22154681.6924
     -1677.718       -1307.313
 -13137305.557 9 -10214759.24648  19970263.722    19970265.4504   19970271.9164
      2661.482        2073.882
  -7460761.442 9  -5530345.11048  22209018.833    22209020.5874   22209027.0684
      2403.813        1873.101
   5824105.837 9   4534566.076 9  22039544.293    22039546.367    22039553.120
     -2105.691       -1640.798
  -6342408.848 9  -4932590.51647  23052776.162    23052778.0924   23052784.3904
       747.108         582.162
   1450486.781 9   1129621.73448  21393489.713    21393491.4824   21393497.5414
      -501.241        -390.577
 96 10 31 17 23 59.9970000  0  8 21  3 17  1 31 28  9 23            -0.002161856
  -5940359.970 9  -4482402.59448  20045014.901    20045016.5604   20045022.8614
      1238.773         965.278
  -4378863.514 9  -3240468.34448  20892363.700    20892365.8974   20892372.3704
        32.495          25.321
   4502860.519 9   3506084.93147  22164279.217    22164281.1974   22164288.3264
     -1687.983       -1315.311
 -13216893.260 9 -10276775.62448  19955118.691    19955120.3914   19955126.8664
      2644.337        2060.522
  -7532603.314 9  -5586325.78548  22195347.817    22195349.5934   22195356.0704
      2385.471        1858.809
   5887376.554 9   4583867.880 9  22051584.247    22051586.379    22051593.181
     -2112.419       -1646.041
  -6364556.380 9  -4949848.33447  23048561.505    23048563.5434   23048569.8624
       729.395         568.360
   1465569.029 9   1141374.11348  21396359.859    21396361.5464   21396367.6324
      -504.213        -392.893
 96 10 31 17 24 29.9970000  0  8 21  3 17  1 31 28  9 23            -0.002184490
  -5977406.107 9  -4511269.71748  20037965.297    20037966.9134   20037973.2284
      1230.511         958.840
  -4379557.270 9  -3241008.95548  20892231.658    20892233.9084   20892240.3854
        13.238          10.315
   4553664.121 9   3545672.10947  22173947.014    22173948.8234   22173955.9784
     -1699.237       -1324.081
 -13295961.258 9 -10338387.03648  19940072.487    19940074.2554   19940080.7034
      2626.494        2046.619
  -7603880.230 9  -5641866.24947  22181784.278    22181786.0494   22181792.4874
      2365.836        1843.509
   5950856.542 9   4633332.755 9  22063664.162    22063666.262    22063673.076
     -2120.031       -1651.972
  -6386172.008 9  -4966691.68547  23044448.175    23044450.1874   23044456.4654
       711.220         554.197
   1480742.130 9   1153197.28348  21399247.197    21399248.9064   21399254.9874
      -507.714        -395.621
 96 10 31 17 24 59.9970000  0  8 21  3 17  1 31 28  9 23            -0.002207142
  -6014242.441 9  -4539973.36048  20030955.574    20030957.1914   20030963.5104
      1224.598         954.232
  -4379703.093 9  -3241122.60548  20892203.940    20892206.1814   20892212.6734
        -4.152          -3.235
   4604757.671 9   3585485.20947  22183669.791    22183671.6174   22183678.7654
     -1707.555       -1330.562
 -13374530.543 9 -10399609.84248  19925121.276    19925123.0224   19925129.4634
      2610.819        2034.404
  -7674608.412 9  -5696979.11647  22168324.970    22168326.7714   22168333.3014
      2348.867        1830.286
   6014527.621 9   4682946.538 9  22075780.430    22075782.548    22075789.316
     -2125.319       -1656.093
  -6407282.960 9  -4983141.77447  23040431.064    23040432.9624   23040439.2224
       695.476         541.929
   1495983.065 9   1165073.31248  21402147.474    21402149.1664   21402155.2314
      -509.168        -396.754
 96 10 31 17 25 29.9970000  0  8 21  3 17  1 31 28  9 23            -0.002229818
  -6050873.974 9  -4568517.41248  20023984.831    20023986.4544   20023992.7644
      1217.142         948.422
  -4379305.760 9  -3240813.01648  20892279.662    20892281.8424   20892288.3264
       -22.658         -17.655
   4656122.948 9   3625510.05247  22193444.419    22193446.1764   22193453.3844
     -1716.954       -1337.886
 -13452606.781 9 -10460448.45648  19910263.849    19910265.6154   19910272.0384
      2594.016        2021.311
  -7744802.142 9  -5751675.52747  22154967.409    22154969.2644   22154975.7954
      2330.243        1815.774
   6078384.120 9   4732704.799 9  22087931.986    22087934.104    22087940.840
     -2132.160       -1661.423
  -6427892.727 9  -4999201.33847  23036509.256    23036511.1014   23036517.3224
       678.020         528.327
   1511305.881 9   1177013.14548  21405063.354    21405065.0474   21405071.0904
      -512.812        -399.594
 96 10 31 17 25 59.9970000  0  8 21  3 17  1 31 28  9 23            -0.002252490
  -6087289.128 9  -4596892.86648  20017055.283    20017056.9014   20017063.2104
      1210.405         943.173
  -4378349.466 9  -3240067.87348  20892461.786    20892463.8264   20892470.3564
       -41.281         -32.167
   4707767.026 9   3665752.13347  22203272.070    22203273.7934   22203281.0204
     -1726.028       -1344.957
 -13530189.075 9 -10520902.18148  19895500.410    19895502.1664   19895508.5874
      2578.050        2008.870
  -7814438.974 9  -5805938.01247  22141715.994    22141717.7844   22141724.3084
      2312.086        1801.625
   6142446.597 9   4782623.559 9  22100122.744    22100124.801    22100131.588
     -2138.827       -1666.618
  -6447968.691 9  -5014844.94647  23032688.884    23032690.7834   23032696.9744
       660.167         514.416
   1526740.132 9   1189039.80948  21408000.343    21408002.1084   21408008.1594
      -516.220        -402.249
 96 10 31 17 26 29.9970000  0  8 21  3 17  1 31 28  9 23            -0.002275159
  -6123508.242 9  -4625115.56148  20010162.976    20010164.6364   20010170.9284
      1204.127         938.281
  -4376841.889 9  -3238893.16248  20892748.755    20892750.7324   20892757.2474
       -59.368         -46.261
   4759665.673 9   3706192.58147  22213148.025    22213149.8164   22213157.0464
     -1733.910       -1351.099
 -13607306.030 9 -10580993.30348  19880825.562    19880827.2944   19880833.7164
      2562.879        1997.049
  -7883545.776 9  -5859787.47648  22128565.584    22128567.3344   22128573.8234
      2294.857        1788.200
   6206702.382 9   4832692.948 9  22112350.283    22112352.320    22112359.160
     -2145.013       -1671.439
  -6467505.772 9  -5030068.65047  23028971.013    23028972.9624   23028979.1354
       642.071         500.315
   1542266.406 9   1201138.18448  21410954.953    21410956.6644   21410962.7294
      -519.063        -404.465
 96 10 31 17 26 59.9970000  0  8 21  3 17  1 31 28  9 23            -0.002297821
  -6159539.832 9  -4653192.13348  20003306.377    20003308.0554   20003314.3564
      1198.196         933.659
  -4374787.894 9  -3237292.67148  20893139.565    20893141.6234   20893148.1044
       -77.301         -60.235
   4811809.935 9   3746824.41947  22223070.880    22223072.6204   22223079.7754
     -1742.161       -1357.528
 -13683957.514 9 -10640721.72448  19866239.226    19866241.0184   19866247.4184
      2547.320        1984.925
  -7952129.156 9  -5913229.07748  22115514.762    22115516.4704   22115522.9584
      2277.314        1774.530
   6271151.365 9   4882912.884 9  22124614.583    22124616.602    22124623.449
     -2151.398       -1676.414
  -6486483.782 9  -5044856.72347  23025359.512    23025361.5334   23025367.7474
       623.389         485.758
   1557889.323 9   1213311.86048  21413927.834    21413929.6014   21413935.7144
      -522.349        -407.025
 96 10 31 17 27 29.9970000  0  8 21  3 17  1 31 28  9 23            -0.002320469
  -6195403.943 9  -4681138.20148  19996481.669    19996483.3584   19996489.6494
      1192.435         929.170
  -4372206.433 9  -3235281.17348  20893630.826    20893632.8674   20893639.3114
       -95.160         -74.151
   4864204.137 9   3787651.01847  22233041.176    22233042.9894   22233050.1364
     -1751.071       -1364.471
 -13760139.992 9 -10700084.68448  19851742.151    19851743.9674   19851750.3704
      2531.053        1972.249
  -8020178.171 9  -5966254.28548  22102565.483    22102567.1944   22102573.7214
      2258.870        1760.158
   6335791.784 9   4933281.988 9  22136915.287    22136917.290    22136924.143
     -2158.204       -1681.717
  -6504907.139 9  -5059212.59447  23021853.822    23021855.7554   23021861.9044
       604.640         471.148
   1573611.268 9   1225562.70948  21416919.617    21416921.3874   21416927.5394
      -525.970        -409.847
 96 10 31 17 27 59.9970000  0  8 21  3 17  1 31 28  9 23            -0.002343103
  -6231087.592 9  -4708943.64748  19989691.374    19989693.0354   19989699.2964
      1186.607         924.629
  -4369081.682 9  -3232846.32248  20894225.508    20894227.5144   20894233.9774
      -112.730         -87.842
   4916873.161 9   3828691.76147  22243063.769    22243065.6204   22243072.7724
     -1759.820       -1371.288
 -13835814.057 9 -10759051.47848  19837341.842    19837343.6694   19837350.0564
      2513.943        1958.917
  -8087670.010 9  -6018845.32547  22089722.160    22089723.9304   22089730.4624
      2240.676        1745.981
   6400637.870 9   4983811.353 9  22149255.135    22149257.155    22149263.986
     -2164.561       -1686.671
  -6522772.818 9  -5073133.91047  23018454.178    23018456.0494   23018462.1844
       586.727         457.190
   1589439.785 9   1237896.60248  21419931.669    21419933.4434   21419939.6294
      -528.874        -412.110
 96 10 31 17 28 29.9970000  0  8 21  3 17  1 31 28  9 23            -0.002365745
  -6266579.238 9  -4736599.48748  19982937.487    19982939.1944   19982945.4584
      1179.441         919.045
  -4365432.493 9  -3230002.82348  20894920.025    20894921.9644   20894928.4434
      -130.473        -101.667
   4969806.032 9   3869938.09847  22253136.556    22253138.4494   22253145.6974
     -1769.052       -1378.482
 -13910958.931 9 -10817605.91848  19823042.294    19823044.0824   19823050.4544
      2495.760        1944.748
  -8154595.418 9  -6070994.99947  22076986.644    22076988.4344   22076994.9474
      2220.894        1730.567
   6465678.480 9   5034492.293 9  22161632.023    22161634.071    22161640.888
     -2171.384       -1691.988
  -6540100.234 9  -5086635.81547  23015156.802    23015158.7654   23015164.9064
       568.658         443.110
   1605359.521 9   1250301.57248  21422961.153    21422962.8894   21422969.0834
      -532.516        -414.948
 96 10 31 17 28 59.9970000  0  8 21  3 17  1 31 28  9 23            -0.002388397
  -6301862.024 9  -4764092.57148  19976223.376    19976225.1294   19976231.3484
      1171.946         913.205
  -4361262.474 9  -3226753.47748  20895713.581    20895715.5184   20895721.9994
      -148.141        -115.434
   5023017.082 9   3911401.18647  22263262.493    22263264.2324   22263271.4874
     -1779.077       -1386.294
 -13985556.857 9 -10875734.16148  19808846.785    19808848.6034   19808854.9394
      2476.745        1929.931
  -8220927.978 9  -6122682.73547  22064364.018    22064365.8164   22064372.2064
      2200.491        1714.668
   6530912.792 9   5085324.174 9  22174045.763    22174047.835    22174054.642
     -2178.249       -1697.337
  -6556906.974 9  -5099731.97747  23011958.653    23011960.5234   23011966.7314
       551.130         429.452
   1621386.059 9   1262789.76548  21426010.905    21426012.6454   21426018.8564
      -536.619        -418.145
 96 10 31 17 29 29.9970000  0  8 21  3 17  1 31 28  9 23            -0.002411072
  -6336933.526 9  -4791421.02548  19969549.478    19969551.2634   19969557.4804
      1165.281         908.011
  -4356588.776 9  -3223111.65848  20896602.927    20896604.9284   20896611.3974
      -164.351        -128.066
   5076503.741 9   3953079.04447  22273440.769    22273442.5634   22273449.6634
     -1787.509       -1392.864
 -14059601.424 9 -10933431.21648  19794756.558    19794758.3814   19794764.7304
      2458.916        1916.038
  -8286665.737 9  -6173906.95747  22051854.630    22051856.2834   22051862.7394
      2181.382        1699.778
   6596327.321 9   5136296.474 8  22186493.693    22186495.861    22186502.663
     -2183.441       -1701.383
  -6573208.571 9  -5112434.52247  23008856.521    23008858.4474   23008864.6604
       534.819         416.742
   1637515.283 9   1275357.97048  21429080.230    21429081.9464   21429088.1724
      -539.309        -420.241
 96 10 31 17 29 59.9970000  0  8 21  3 17  1 31 28  9 23            -0.002433758
  -6371742.503 9  -4818544.91148  19962925.607    19962927.3424   19962933.5694
      1155.491         900.383
  -4351372.995 9  -3219047.43248  20897595.348    20897597.5154   20897603.9634
      -183.288        -142.822
   5130285.267 9   3994986.67247  22283675.060    22283676.9484   22283684.0194
     -1797.817       -1400.896
 -14133072.511 9 -10990681.40948  19780775.438    19780777.2854   19780783.6294
      2439.321        1900.770
  -8351788.692 9  -6224652.12847  22039462.062    22039463.7744   22039470.2574
      2160.075        1683.175
   6661938.802 9   5187422.248 8  22198979.130    22198981.356    22198988.136
     -2190.615       -1706.973
  -6588965.851 9  -5124712.92447  23005858.047    23005859.9234   23005866.1844
       515.610         401.774
   1653771.627 9   1288025.23448  21432173.786    21432175.4754   21432181.6884
      -544.329        -424.152
 96 10 31 17 30 29.9970000  0  8 21  3 17  1 31 28  9 23            -0.002456434
  -6406279.118 9  -4845456.56748  19956353.621    19956355.2424   19956361.4674
      1146.920         893.704
  -4345604.628 9  -3214552.62648  20898693.025    20898695.2134   20898701.6654
      -201.498        -157.011
   5184362.331 9   4037124.58947  22293965.592    22293967.4484   22293974.5864
     -1807.610       -1408.527
 -14205990.070 9 -11047500.27948  19766899.671    19766901.5304   19766907.8834
      2421.784        1887.104
  -8416289.377 9  -6274912.42347  22027187.883    22027189.6864   22027196.1724
      2139.886        1667.444
   6727748.595 9   5238702.548 8  22211502.426    22211504.597    22211511.367
     -2196.834       -1711.819
  -6604159.252 9  -5136551.93847  23002966.792    23002968.7234   23002974.9724
       497.135         387.378
   1670169.628 9   1300802.87648  21435294.289    21435295.9504   21435302.1484
      -548.942        -427.747
 96 10 31 17 30 59.9970000  0  8 21  3 17  1 31 28  9 23            -0.002479099
  -6440571.418 9  -4872177.84248  19949828.013    19949829.6584   19949835.8784
      1139.146         887.646
  -4339289.135 9  -3209631.48248  20899894.795    20899897.0304   20899903.4904
      -219.770        -171.249
   5238729.809 9   4079488.78247  22304311.524    22304313.2884   22304320.4994
     -1816.925       -1415.786
 -14278388.130 9 -11103914.34148  19753122.779    19753124.6364   19753130.9934
      2404.608        1873.721
  -8480200.991 9  -6324713.67947  22015025.892    22015027.7344   22015034.2264
      2120.758        1652.539
   6793740.080 9   5290124.427 8  22224060.213    22224062.434    22224069.191
     -2202.713       -1716.400
  -6618800.870 9  -5147960.99447  23000180.380    23000182.5134   23000188.7724
       478.645         372.970
   1686700.501 9   1313684.05748  21438440.066    21438441.6984   21438447.9034
      -553.113        -430.997
 96 10 31 17 31 29.9970000  0  8 21  3 17  1 31 28  9 23            -0.002501738
  -6474616.316 9  -4898706.34148  19943349.495    19943351.1324   19943357.3624
      1130.764         881.115
  -4332396.357 9  -3204260.51048  20901206.470    20901208.7074   20901215.1684
      -239.769        -186.833
   5293391.503 9   4122082.24847  22314713.413    22314715.1964   22314722.3104
     -1827.091       -1423.707
 -14350252.805 9 -11159912.78148  19739447.406    19739449.2354   19739455.6124
      2386.662        1859.737
  -8543523.705 9  -6374056.07547  22002976.022    22002977.8714   22002984.3174
      2100.915        1637.077
   6859928.215 9   5341699.531 8  22236655.501    22236657.668    22236664.440
     -2209.675       -1721.825
  -6632854.780 9  -5158912.09047  22997506.015    22997508.1894   22997514.4484
       458.412         357.204
   1703375.053 9   1326677.19248  21441613.134    21441614.7664   21441620.9864
      -558.267        -435.013
 96 10 31 17 31 59.9970000  0  8 21  3 17  1 31 28  9 23            -0.002524353
  -6508454.327 9  -4925073.62948  19936910.308    19936911.9864   19936918.1974
      1124.750         876.428
  -4324936.953 9  -3198448.00948  20902626.002    20902628.2064   20902634.6924
      -257.876        -200.942
   5348327.455 9   4164889.42847  22325167.548    22325169.2424   22325176.3324
     -1835.704       -1430.419
 -14421627.598 9 -11215529.49148  19725865.304    19725867.0554   19725873.4204
      2370.978        1847.515
  -8606293.387 9  -6422967.53147  21991031.436    21991033.2084   21991039.6424
      2083.057        1623.161
   6926289.560 9   5393409.612 8  22249283.670    22249285.857    22249292.615
     -2214.989       -1725.965
  -6646341.420 9  -5169421.16147  22994939.713    22994941.7554   22994947.9974
       440.082         342.921
   1720163.867 9   1339759.36448  21444807.943    21444809.6024   21444815.8384
      -561.450        -437.494
 96 10 31 17 32 29.9970000  0  8 21  3 17  1 31 28  9 23            -0.002546933
  -6542098.832 9  -4951290.13548  19930507.979    19930509.6474   19930515.8804
      1118.496         871.555
  -4316914.774 9  -3192196.97648  20904152.491    20904154.7694   20904161.3064
      -276.608        -215.539
   5403554.868 9   4207923.71446  22335676.996    22335678.6724   22335685.7674
     -1845.787       -1438.275
 -14492503.194 9 -11270757.22548  19712378.045    19712379.8554   19712386.2434
      2354.174        1834.421
  -8668502.198 9  -6471441.93847  21979193.458    21979195.2214   21979201.6104
      2064.421        1608.640
   6992838.085 9   5445265.548 8  22261947.504    22261949.675    22261956.414
     -2221.275       -1730.864
  -6659252.804 9  -5179481.98847  22992482.805    22992484.8074   22992491.0424
       420.987         328.042
   1737069.886 9   1352932.86648  21448025.017    21448026.7134   21448032.9574
      -565.307        -440.499
 96 10 31 17 32 59.9970000  0  8 21  3 17  1 31 28  9 23            -0.002569491
  -6575568.706 9  -4977370.56348  19924138.937    19924140.5754   19924146.7874
      1112.724         867.058
  -4308341.783 9  -3185516.74548  20905784.012    20905786.1754   20905792.7174
      -294.992        -229.864
   5459069.296 9   4251181.63647  22346241.010    22346242.7324   22346249.8754
     -1855.077       -1445.514
 -14562871.346 9 -11325589.54348  19698987.418    19698989.2404   19698995.6354
      2336.926        1820.981
  -8730161.362 9  -6519488.04447  21967460.022    21967461.7994   21967468.2544
      2045.957        1594.252
   7059563.570 9   5497259.374 8  22274645.058    22274647.162    22274653.903
     -2227.183       -1735.467
  -6671598.584 9  -5189102.09447  22990133.415    22990135.4704   22990141.6884
       401.936         313.197
   1754068.635 9   1366178.62348  21451259.822    21451261.4974   21451267.7414
      -568.100        -442.675
 96 10 31 17 33 29.9970000  0  8 21  3 17  1 31 28  9 23            -0.002592030
  -6608868.711 9  -5003318.62448  19917802.155    19917803.7984   19917809.9924
      1107.064         862.647
  -4299224.732 9  -3178412.57848  20907518.943    20907521.1214   20907527.6494
      -312.681        -243.648
   5514857.143 9   4294652.61147  22356857.226    22356858.9354   22356866.0384
     -1864.083       -1452.532
 -14632728.713 9 -11380023.84848  19685694.021    19685695.7854   19685702.1984
      2320.297        1808.024
  -8791264.473 9  -6567100.86048  21955832.459    21955834.2914   21955840.7874
      2027.494        1579.865
   7126459.088 9   5549385.691 8  22287374.809    22287376.950    22287383.787
     -2232.591       -1739.681
  -6683373.227 9  -5198277.16247  22987892.785    22987894.8094   22987901.0644
       383.053         298.483
   1771146.451 9   1379485.98848  21454509.604    21454511.3174   21454517.5614
      -570.526        -444.566
 96 10 31 17 33 59.9970000  0  8 21  3 17  1 31 28  9 23            -0.002614568
  -6642009.220 9  -5029142.40248  19911495.685    19911497.3754   19911503.5644
      1102.029         858.724
  -4289611.962 9  -3170922.12648  20909348.206    20909350.3444   20909356.9104
      -328.100        -255.662
   5570895.110 9   4338318.49647  22367521.014    22367522.6674   22367529.7974
     -1871.547       -1458.348
 -14702113.569 9 -11434089.96148  19672490.521    19672492.2924   19672498.7134
      2305.091        1796.175
  -8851837.776 9  -6614300.83848  21944305.890    21944307.6604   21944314.1874
      2010.646        1566.737
   7193495.446 9   5601621.747 8  22300131.379    22300133.547    22300140.439
     -2236.552       -1742.768
  -6694605.514 9  -5207029.61047  22985755.446    22985757.4184   22985763.6674
       365.854         285.081
   1788278.065 9   1392835.27348  21457769.678    21457771.3974   21457777.6014
      -571.731        -445.505
 96 10 31 17 34 29.9970000  0  8 21  3 17  1 31 28  9 23            -0.002637118
  -6674956.448 9  -5054815.57648  19905226.073    19905227.7474   19905233.8994
      1093.994         852.463
  -4279504.155 9  -3163045.93748  20911271.624    20911273.8344   20911280.3634
      -346.169        -269.742
   5627181.611 9   4382178.04546  22378231.753    22378233.6734   22378240.8174
     -1881.296       -1465.945
 -14771002.511 9 -11487769.64548  19659381.457    19659383.1734   19659389.5904
      2287.106        1782.161
  -8911875.048 9  -6661083.12748  21932881.209    21932882.9944   21932889.5174
      1991.291        1551.655
   7260677.844 9   5653971.606 8  22312915.796    22312917.972    22312924.865
     -2242.689       -1747.550
  -6705296.600 9  -5215360.35446  22983720.985    22983722.9854   22983729.2544
       346.609         270.085
   1805484.220 9   1406242.64448  21461043.924    21461045.6384   21461051.8424
      -575.883        -448.740
 96 10 31 17 34 59.9970000  0  8 21  3 17  1 31 28  9 23            -0.002659663
  -6707664.156 9  -5080302.11148  19899001.984    19899003.6954   19899009.8344
      1085.868         846.131
  -4268867.815 9  -3154757.89648  20913295.697    20913297.8924   20913304.4344
      -363.628        -283.346
   5683745.724 9   4426253.89546  22388995.836    22388997.4374   22389004.6124
     -1890.226       -1472.903
 -14839353.765 9 -11541030.35548  19646374.648    19646376.4024   19646382.7804
      2269.117        1768.143
  -8971336.586 9  -6707416.79647  21921566.052    21921567.8914   21921574.4054
      1972.059        1536.669
   7328033.764 9   5706456.678 8  22325733.310    22325735.444    22325742.321
     -2248.377       -1751.982
  -6715420.726 9  -5223249.31147  22981794.453    22981796.4634   22981802.7504
       327.683         255.337
   1822811.102 9   1419744.08348  21464341.099    21464342.8594   21464349.0604
      -580.057        -451.992
 96 10 31 17 35 29.9970000  0  8 21  3 17  1 31 28  9 23            -0.002682203
  -6740126.376 9  -5105597.35748  19892824.596    19892826.3854   19892832.4904
      1076.994         839.216
  -4257711.745 9  -3146064.87748  20915418.632    20915420.8334   20915427.3684
      -381.329        -297.139
   5740581.344 9   4470541.33146  22399811.237    22399812.9914   22399820.1204
     -1900.243       -1480.709
 -14907168.853 9 -11593873.27248  19633469.855    19633471.6324   19633478.0094
      2250.591        1753.707
  -9030221.223 9  -6753300.95647  21910360.684    21910362.5214   21910368.9534
      1952.211        1521.203
   7395559.738 9   5759074.257 8  22338583.130    22338585.233    22338592.161
     -2254.587       -1756.821
  -6724981.485 9  -5230699.29346  22979975.147    22979977.0994   22979983.4204
       308.456         240.355
   1840275.358 9   1433352.57348  21467664.443    21467666.2464   21467672.4164
      -585.537        -456.263
 96 10 31 17 35 59.9970000  0  8 21  3 17  1 31 28  9 23            -0.002704722
  -6772307.408 9  -5130673.49348  19886700.783    19886702.5204   19886708.6514
      1069.069         833.041
  -4246011.113 9  -3136947.52548  20917645.321    20917647.4144   20917653.9454
      -398.224        -310.304
   5797732.470 9   4515074.60746  22410686.784    22410688.5694   22410695.7524
     -1909.277       -1487.748
 -14974412.713 9 -11646271.07748  19620673.808    19620675.5454   19620681.9324
      2232.746        1739.802
  -9088496.346 9  -6798710.12447  21899271.230    21899273.0084   21899279.5364
      1933.143        1506.345
   7463283.049 9   5811845.602 8  22351470.411    22351472.564    22351479.585
     -2259.691       -1760.798
  -6733959.633 9  -5237695.28146  22978266.692    22978268.6484   22978275.0304
       290.775         226.578
   1857917.032 9   1447099.30948  21471021.608    21471023.3684   21471029.5374
      -589.919        -459.677
 96 10 31 17 36 29.9970000  0  8 21  3 17  1 31 28  9 23            -0.002727238
  -6804260.991 9  -5155572.39748  19880620.168    19880621.9544   19880628.0674
      1061.578         827.204
  -4233796.878 9  -3127429.96248  20919969.566    20919971.7164   20919978.2604
      -415.853        -324.041
   5855162.130 9   4559824.91346  22421615.385    22421617.1294   22421624.3384
     -1919.151       -1495.442
 -15041111.399 9 -11698244.07748  19607981.362    19607983.1984   19607989.5994
      2214.151        1725.312
  -9146176.866 9  -6843656.00947  21888294.975    21888296.7744   21888303.2614
      1912.206        1490.031
   7531156.688 9   5864734.080 8  22364386.291    22364388.515    22364395.609
     -2265.000       -1764.935
  -6742402.893 9  -5244274.49746  22976659.977    22976661.9704   22976668.3584
       272.270         212.158
   1875686.529 9   1460945.65048  21474403.079    21474404.8334   21474411.0064
      -594.405        -463.173
 96 10 31 17 36 59.9970000  0  8 21  3 17  1 31 28  9 23            -0.002749726
  -6835991.543 9  -5180297.50548  19874582.091    19874583.8304   19874589.9334
      1053.964         821.271
  -4221052.702 9  -3117499.46148  20922394.743    20922396.8614   20922403.4134
      -433.698        -337.946
   5912891.398 9   4604808.68046  22432600.998    22432602.6434   22432609.9604
     -1929.349       -1503.389
 -15107251.804 9 -11749782.04748  19595395.256    19595397.0924   19595403.4974
      2195.435        1710.729
  -9203218.742 9  -6888104.22248  21877440.339    21877442.1534   21877448.6184
      1890.700        1473.273
   7599191.576 9   5917748.214 8  22377332.952    22377335.163    22377342.312
     -2270.460       -1769.190
  -6750283.411 9  -5250415.20246  22975160.350    22975162.3584   22975168.7694
       253.092         197.215
   1893588.184 9   1474894.97148  21477809.764    21477811.4524   21477817.6364
      -598.824        -466.616
 96 10 31 17 37 29.9970000  0  8 21  3 17  1 31 28  9 23            -0.002772179
  -6867504.929 9  -5204853.39548  19868585.299    19868587.0434   19868593.1604
      1046.588         815.523
  -4207776.537 9  -3107154.42148  20924921.037    20924923.2314   20924929.7774
      -451.587        -351.886
   5970923.390 9   4650028.33846  22443644.189    22443645.8464   22443653.1034
     -1939.701       -1511.455
 -15172841.316 9 -11800890.75448  19582914.033    19582915.8324   19582922.2504
      2176.954        1696.328
  -9259618.814 9  -6932052.33247  21866707.787    21866709.6084   21866716.1244
      1868.899        1456.285
   7667381.644 9   5970883.267 8  22390309.145    22390311.344    22390318.543
     -2275.733       -1773.298
  -6757592.211 9  -5256110.41446  22973769.547    22973771.5214   22973777.9294
       233.812         182.191
   1911612.759 9   1488940.06948  21481239.778    21481241.4554   21481247.6424
      -603.014        -469.881
 96 10 31 17 37 59.9970000  0  8 21  3 17  1 31 28  9 23            -0.002794587
  -6898797.241 9  -5229237.02148  19862630.524    19862632.3104   19862638.4194
      1038.625         809.318
  -4193967.003 9  -3096393.77148  20927548.908    20927551.0834   20927557.6394
      -469.978        -366.217
   6029255.859 9   4695482.14746  22454744.409    22454746.2554   22454753.4744
     -1949.916       -1519.415
 -15237885.251 9 -11851574.33748  19570536.564    19570538.3824   19570544.7764
      2158.435        1681.897
  -9315361.640 9  -6975488.28647  21856100.256    21856102.0484   21856108.6904
      1846.427        1438.774
   7735724.718 9   6024137.542 8  22403314.395    22403316.641    22403323.886
     -2281.352       -1777.677
  -6764318.905 9  -5261352.03146  22972489.398    22972491.4714   22972497.9204
       213.899         166.674
   1929753.212 9   1503075.46548  21484691.730    21484693.4934   21484699.7184
      -607.370        -473.275
 96 10 31 17 38 29.9970000  0  8 21  3 17  1 31 28  9 23            -0.002816960
  -6929878.099 9  -5253455.87748  19856716.055    19856717.8314   19856723.9384
      1032.351         804.429
  -4179636.692 9  -3085227.32348  20930275.857    20930278.0584   20930284.6034
      -486.400        -379.013
   6087857.366 9   4741145.58746  22465895.937    22465897.8094   22465905.1474
     -1957.829       -1525.581
 -15302401.731 9 -11901846.91848  19558259.437    19558261.3204   19558267.6934
      2141.772        1668.913
  -9370463.059 9  -7018424.45647  21845614.787    21845616.5594   21845623.1914
      1826.096        1422.932
   7804207.615 9   6077500.769 8  22416346.404    22416348.560    22416355.861
     -2285.214       -1780.686
  -6770476.396 9  -5266150.10946  22971317.623    22971319.7184   22971326.1494
       195.667         152.468
   1948000.900 9   1517294.41748  21488164.182    21488165.9334   21488172.1494
      -610.159        -475.449
 96 10 31 17 38 59.9970000  0  8 21  3 17  1 31 28  9 23            -0.002839301
  -6960725.509 9  -5277492.83148  19850845.948    19850847.7804   19850853.8794
      1024.164         798.050
  -4164780.135 9  -3073650.80948  20933103.012    20933105.1944   20933111.7804
      -503.977        -392.709
   6146725.243 9   4787016.57946  22477098.270    22477099.9454   22477107.4504
     -1966.600       -1532.416
 -15366389.596 9 -11951707.59148  19546083.064    19546084.8384   19546091.1874
      2124.053        1655.106
  -9424939.184 9  -7060873.42147  21835248.364    21835250.1624   21835256.6454
      1805.732        1407.064
   7872840.656 9   6130980.993 8  22429406.885    22429409.058    22429416.403
     -2290.309       -1784.656
  -6776063.392 9  -5270503.63546  22970254.448    22970256.5464   22970263.0244
       176.873         137.823
   1966368.379 9   1531606.71548  21491659.415    21491661.1564   21491667.3584
      -614.366        -478.727
 96 10 31 17 39 29.9970000  0  8 21  3 17  1 31 28  9 23            -0.002861622
  -6991326.943 9  -5301338.11048  19845022.774    19845024.5434   19845030.6204
      1016.048         791.726
  -4149392.829 9  -3061660.72848  20936031.193    20936033.3564   20936039.9134
      -521.475        -406.344
   6205847.446 9   4833085.75446  22488348.717    22488350.5914   22488358.0744
     -1974.639       -1538.680
 -15429839.602 9 -12001149.15048  19534008.934    19534010.7284   19534017.0504
      2106.153        1641.158
  -9478806.602 9  -7102848.04447  21824997.804    21824999.5804   21825006.0354
      1785.672        1391.433
   7941626.940 9   6184580.627 8  22442496.558    22442498.692    22442506.094
     -2295.206       -1788.472
  -6781086.882 9  -5274418.06746  22969298.592    22969300.6404   22969307.1334
       158.443         123.462
   1984867.553 9   1546021.62948  21495179.745    21495181.4424   21495187.6704
      -618.731        -482.128
 96 10 31 17 39 59.9970000  0  8 21  3 17  1 31 28  9 23            -0.002883940
  -7021680.918 9  -5324990.56448  19839246.632    19839248.4134   19839254.4814
      1007.479         785.048
  -4133488.018 9  -3049267.39348  20939057.744    20939059.9584   20939066.5244
      -538.975        -419.981
   6265208.598 9   4879341.12746  22499644.984    22499646.7474   22499654.1694
     -1982.910       -1545.125
 -15492751.353 9 -12050171.29048  19522037.181    19522038.9984   19522045.3314
      2087.830        1626.880
  -9532087.530 9  -7144365.64647  21814858.770    21814860.5594   21814867.0554
      1766.408        1376.422
   8010560.337 9   6238294.887 8  22455614.224    22455616.348    22455623.766
     -2300.371       -1792.497
  -6785570.758 9  -5277912.01346  22968445.443    22968447.3904   22968453.9514
       140.551         109.520
   2003498.735 9   1560539.40648  21498725.151    21498726.8524   21498733.0664
      -623.418        -485.780
 96 10 31 17 40 29.9970000  0  8 21  3 17  1 31 28  9 23            -0.002906281
  -7051800.918 9  -5348460.70148  19833514.989    19833516.7944   19833522.8584
       999.410         778.761
  -4117081.518 9  -3036483.13748  20942179.895    20942182.0704   20942188.6184
      -555.897        -433.166
   6324801.515 9   4925777.11146  22510985.171    22510986.9154   22510994.3844
     -1991.213       -1551.595
 -15555124.700 9 -12098773.89648  19510167.909    19510169.7694   19510176.0664
      2069.176        1612.345
  -9584816.961 9  -7185453.51248  21804824.716    21804826.4894   21804833.0444
      1747.546        1361.724
   8079623.668 9   6292110.395 8  22468756.576    22468758.731    22468766.169
     -2305.004       -1796.107
  -6789543.966 9  -5281008.04046  22967689.329    22967691.3484   22967697.9134
       123.016          95.857
   2022242.004 9   1575144.52348  21502291.935    21502293.6054   21502299.8344
      -627.247        -488.764
 96 10 31 17 40 59.9970000  0  8 21  3 17  1 31 28  9 23            -0.002928624
  -7081663.356 9  -5371730.14348  19827832.291    19827834.1764   19827840.2134
       990.862         772.100
  -4100148.428 9  -3023288.54948  20945402.157    20945404.3444   20945410.8954
      -573.544        -446.917
   6384674.791 9   4972431.53546  22522378.683    22522380.4454   22522388.0194
     -2000.836       -1559.093
 -15616911.787 9 -12146919.67848  19498410.152    19498412.0544   19498418.3584
      2049.292        1596.851
  -9636956.136 9  -7226081.44447  21794902.975    21794904.7104   21794911.3124
      1727.701        1346.261
   8148845.833 9   6346049.671 8  22481929.305    22481931.362    22481938.807
     -2310.326       -1800.254
  -6792966.875 9  -5283675.26246  22967037.972    22967040.0174   22967046.5874
       104.437          81.379
   2041120.905 9   1589855.33548  21505884.477    21505886.1474   21505892.4024
      -632.006        -492.472
 96 10 31 17 41 29.9970000  0  8 21  3 17  1 31 28  9 23            -0.002950967
  -7111284.229 9  -5394811.34948  19822195.717    19822197.5294   19822203.5484
       983.451         766.325
  -4082698.357 9  -3009691.12148  20948722.860    20948725.0194   20948731.5434
      -590.178        -459.879
   6444833.001 9   5019307.97546  22533826.577    22533828.2764   22533835.8724
     -2010.307       -1566.473
 -15678109.270 9 -12194606.02548  19486764.664    19486766.5764   19486772.8694
      2030.243        1582.008
  -9688502.972 9  -7266247.82148  21785093.913    21785095.7034   21785102.2584
      1708.330        1331.166
   8218216.859 9   6400104.945 8  22495130.117    22495132.265    22495139.766
     -2314.846       -1803.776
  -6795826.518 9  -5285903.58246  22966493.784    22966495.9094   22966502.4934
        85.776          66.838
   2060132.515 9   1604669.54748  21509502.224    21509503.9704   21509510.2404
      -635.793        -495.423
 96 10 31 17 41 59.9970000  0  8 21  3 17  1 31 28  9 23            -0.002973317
  -7140701.723 9  -5417734.07948  19816597.772    19816599.5874   19816605.6034
       977.735         761.871
  -4064770.644 9  -2995721.50448  20952134.372    20952136.5504   20952143.0784
      -605.205        -471.588
   6505262.783 9   5066396.03546  22545326.221    22545327.8384   22545335.4074
     -2018.402       -1572.781
 -15738762.904 9 -12241868.59248  19475222.686    19475224.5844   19475230.8754
      2013.341        1568.837
  -9739484.342 9  -7305973.56647  21775392.465    21775394.2794   21775400.8124
      1690.163        1317.010
   8287702.579 9   6454249.582 8  22508352.924    22508354.977    22508362.557
     -2317.668       -1805.975
  -6798141.067 9  -5287707.14946  22966053.340    22966055.4484   22966062.0894
        68.431          53.323
   2079233.923 9   1619553.73748  21513137.140    21513138.8794   21513145.1314
      -637.725        -496.929
 96 10 31 17 42 29.9970000  0  8 21  3 17  1 31 28  9 23            -0.002995652
  -7169915.318 9  -5440497.91948  19811038.616    19811040.4434   19811046.4504
       969.918         755.780
  -4046352.346 9  -2981369.60948  20955639.278    20955641.4984   20955648.0134
      -622.636        -485.171
   6565970.020 9   5113700.30146  22556878.318    22556880.1224   22556887.6814
     -2028.705       -1580.809
 -15798880.258 9 -12288713.27848  19463782.794    19463784.6414   19463790.9174
      1994.608        1554.240
  -9789868.964 9  -7345234.33647  21765804.670    21765806.4554   21765812.8744
      1668.735        1300.313
   8357304.947 9   6508485.121 8  22521597.619    22521599.877    22521607.534
     -2322.511       -1809.749
  -6799893.581 9  -5289072.76946  22965720.037    22965722.0004   22965728.6724
        48.378          37.697
   2098423.218 9   1634506.41348  21516788.815    21516790.5024   21516796.7724
      -641.629        -499.971
 96 10 31 17 42 59.9970000  0  8 21  3 17  1 31 28  9 23            -0.003017955
  -7198927.109 9  -5463104.51948  19805517.881    19805519.6774   19805525.6774
       962.550         750.039
  -4027439.054 9  -2966632.00548  20959238.456    20959240.6104   20959247.1114
      -639.922        -498.641
   6626953.247 9   5161219.62246  22568483.246    22568484.8094   22568492.4844
     -2038.211       -1588.216
 -15858482.475 9 -12335156.55748  19452440.853    19452442.7364   19452448.9934
      1977.375        1540.812
  -9839647.986 9  -7384023.19847  21756332.043    21756333.8904   21756340.2144
      1648.243        1284.345
   8427020.319 9   6562808.714 8  22534864.091    22534866.319    22534874.014
     -2326.768       -1813.066
  -6801073.783 9  -5289992.43046  22965495.589    22965497.4884   22965504.1274
        28.747          22.400
   2117708.052 9   1649533.53548  21520458.550    21520460.3054   21520466.5714
      -645.608        -503.071
 96 10 31 17 43 29.9960000  0  8 21  3 17  1 31 28  9 23            -0.003040200
  -7227699.798 9  -5485524.80448  19800042.655    19800044.4354   19800050.4104
       954.157         743.499
  -4007996.141 9  -2951481.71448  20962938.354    20962940.5114   20962946.9944
      -657.712        -512.503
   6688231.791 9   5208969.05346  22580143.858    22580145.7364   22580153.3954
     -2048.507       -1596.239
 -15917561.473 9 -12381192.13648  19441198.533    19441200.3694   19441206.6284
      1959.838        1527.146
  -9888799.595 9  -7422323.15948  21746978.796    21746980.7034   21746987.0584
      1627.093        1267.865
   8496871.461 9   6617238.096 8  22548156.334    22548158.554    22548166.332
     -2331.592       -1816.825
  -6801653.094 9  -5290443.87246  22965385.386    22965387.2924   22965393.9094
         8.511           6.632
   2137118.942 9   1664658.87348  21524152.402    21524154.1044   21524160.3704
      -649.984        -506.481
 96 10 31 17 43 59.9960000  0  8 21  3 17  1 31 28  9 23            -0.003062385
  -7256199.525 9  -5507732.39348  19794619.358    19794621.1114   19794627.1104
       945.394         736.671
  -3988007.918 9  -2935906.50148  20966741.938    20966744.1694   20966750.6664
      -675.239        -526.160
   6749821.862 9   5256961.23146  22591864.235    22591866.0894   22591873.6664
     -2057.857       -1603.525
 -15976098.379 9 -12426805.30348  19430059.328    19430061.1614   19430067.4394
      1942.135        1513.352
  -9937311.014 9  -7460124.27048  21737747.498    21737749.3434   21737755.7074
      1606.454        1251.782
   8566879.059 9   6671789.394 8  22561478.421    22561480.586    22561488.432
     -2335.996       -1820.257
  -6801628.391 9  -5290424.64546  22965390.029    22965392.0114   22965398.6634
       -10.646          -8.296
   2156680.544 9   1679901.65448  21527874.795    21527876.5534   21527882.8664
      -654.580        -510.062
 96 10 31 17 44 29.9960000  0  8 21  3 17  1 31 28  9 23            -0.003084546
  -7284443.515 9  -5529740.71148  19789244.675    19789246.4744   19789252.4594
       938.752         731.495
  -3967514.900 9  -2919937.94448  20970641.651    20970643.8694   20970650.3624
      -689.732        -537.454
   6811677.721 9   5305160.51646  22603635.170    22603636.9604   22603644.5874
     -2064.856       -1608.979
 -16034113.855 9 -12472012.16748  19419019.379    19419021.1794   19419027.4484
      1926.662        1501.295
  -9985222.821 9  -7497458.15747  21728630.180    21728631.9754   21728638.3404
      1588.923        1238.122
   8637000.458 9   6726429.362 8  22574822.104    22574824.254    22574832.191
     -2337.618       -1821.521
  -6801043.975 9  -5289969.28746  22965501.161    22965503.1964   22965509.8524
       -27.166         -21.168
   2176364.866 9   1695240.06448  21531620.544    21531622.3544   21531628.7074
      -656.547        -511.595
 96 10 31 17 44 59.9960000  0  8 21  3 17  1 31 28  9 23            -0.003106699
  -7312433.929 9  -5551551.43048  19783918.209    19783920.0564   19783926.0804
       928.493         723.501
  -3946539.692 9  -2903593.65148  20974633.160    20974635.3564   20974641.8184
      -707.337        -551.172
   6873792.075 9   5353561.23446  22615455.329    22615457.0054   22615464.5964
     -2074.836       -1616.755
 -16091612.064 9 -12516815.96248  19408077.838    19408079.6044   19408085.9124
      1907.650        1486.481
 -10032569.021 9  -7534351.31047  21719620.486    21719622.3344   21719628.7194
      1568.540        1222.239
   8707222.152 9   6781147.484 8  22588184.966    22588187.059    22588195.017
     -2342.605       -1825.406
  -6799915.024 9  -5289089.60546  22965715.992    22965718.0364   22965724.6974
       -46.783         -36.454
   2196169.685 9   1710672.36748  21535389.282    21535391.1114   21535397.4894
      -662.482        -516.220
 96 10 31 17 45 29.9960000  0  8 21  3 17  1 31 28  9 23            -0.003128857
  -7340169.118 9  -5573163.27348  19778640.367    19778642.2314   19778648.2664
       920.567         717.325
  -3925101.955 9  -2886888.94748  20978712.678    20978714.8474   20978721.3044
      -721.948        -562.557
   6936154.954 9   5402155.60346  22627322.246    22627324.2814   22627331.9124
     -2082.725       -1622.903
 -16148587.225 9 -12561212.18648  19397235.785    19397237.6164   19397243.9194
      1890.529        1473.139
 -10079349.688 9  -7570803.78948  21710718.408    21710720.2794   21710726.6644
      1549.928        1207.736
   8777536.479 9   6835937.798 8  22601565.123    22601567.524    22601575.485
     -2345.114       -1827.361
  -6798255.365 9  -5287796.37346  22966031.943    22966033.8564   22966040.5284
       -63.837         -49.743
   2216089.975 9   1726194.64548  21539180.101    21539181.8534   21539188.1874
      -665.703        -518.730
 96 10 31 17 45 59.9960000  0  8 21  3 17  1 31 28  9 23            -0.003151024
  -7367661.022 9  -5594585.54948  19773408.882    19773410.7334   19773416.7524
       912.220         710.821
  -3903217.682 9  -2869836.29048  20982877.107    20982879.3024   20982885.7604
      -737.277        -574.502
   6998760.400 9   5450938.98546  22639235.628    22639237.7434   22639245.3994
     -2090.933       -1629.298
 -16205037.672 9 -12605199.54448  19386493.541    19386495.4524   19386501.7764
      1872.829        1459.347
 -10125561.184 9  -7606812.75747  21701924.703    21701926.5364   21701932.9364
      1530.543        1192.631
   8847934.292 9   6890793.154 8  22614961.532    22614963.837    22614971.810
     -2348.207       -1829.772
  -6796074.910 9  -5286097.33146  22966446.848    22966448.7904   22966455.5094
       -81.623         -63.602
   2236123.056 9   1741804.81248  21542992.348    21542994.0874   21543000.3904
      -669.841        -521.954
 96 10 31 17 46 29.9960000  0  8 21  3 17  1 31 28  9 23            -0.003173158
  -7394884.789 9  -5615798.88648  19768228.465    19768230.2334   19768236.2344
       902.843         703.514
  -3880835.461 9  -2852395.62348  20987136.326    20987138.5124   20987145.0104
      -754.895        -588.230
   7061653.468 9   5499946.49746  22651203.794    22651205.9704   22651213.6284
     -2101.798       -1637.765
 -16260933.639 9 -12648754.83948  19375856.984    19375858.7944   19375865.1554
      1853.517        1444.299
 -10171149.673 9  -7642336.28347  21693249.496    21693251.3264   21693257.6414
      1508.602        1175.534
   8918458.081 9   6945746.677 8  22628381.658    22628384.072    22628392.082
     -2353.308       -1833.746
  -6793324.760 9  -5283954.36546  22966970.135    22966972.1834   22966978.8604
      -101.611         -79.177
   2256304.391 9   1757530.50248  21546832.699    21546834.4794   21546840.7914
      -675.580        -526.426
 96 10 31 17 46 59.9960000  0  8 21  3 17  1 31 28  9 23            -0.003195243
  -7421862.303 9  -5636820.33148  19763094.768    19763096.6124   19763102.6004
       895.935         698.131
  -3857943.513 9  -2834557.76448  20991492.548    20991494.7354   20991501.2234
      -770.989        -600.771
   7124839.321 9   5549182.14146  22663228.057    22663229.9254   22663237.6304
     -2110.376       -1644.449
 -16316266.719 9 -12691871.51848  19365327.435    19365329.2714   19365335.6004
      1835.498        1430.258
 -10216093.927 9  -7677357.80547  21684696.955    21684698.7344   21684705.0424
      1487.796        1159.322
   8989113.625 9   7000802.861 8  22641827.235    22641829.423    22641837.437
     -2356.762       -1836.438
  -6789998.678 9  -5281362.63246  22967603.127    22967605.1214   22967611.8294
      -119.965         -93.479
   2276640.413 9   1773376.73148  21550702.557    21550704.3094   21550710.6214
      -679.806        -529.719
 96 10 31 17 47 29.9960000  0  8 21  3 17  1 31 28  9 23            -0.003217314
  -7448658.238 9  -5657700.28748  19757995.726    19757997.5374   19758003.5234
       891.025         694.305
  -3834587.875 9  -2816358.59148  20995936.951    20995939.2014   20995945.7094
      -785.627        -612.177
   7188259.689 9   5598600.52146  22675296.673    22675298.4424   22675306.2654
     -2117.249       -1649.804
 -16371071.356 9 -12734576.42048  19354898.478    19354900.3214   19354906.6344
      1818.621        1417.107
 -10260430.823 9  -7711906.03247  21676259.838    21676261.6864   21676268.1044
      1468.485        1144.274
   9059849.978 9   7055922.016 8  22655288.032    22655290.195    22655298.173
     -2358.506       -1837.797
  -6786134.139 9  -5278351.31646  22968338.448    22968340.5174   22968347.2254
      -137.029        -106.776
   2297075.874 9   1789300.44148  21554591.383    21554593.0904   21554599.4104
      -682.213        -531.595
 96 10 31 17 47 59.9960000  0  8 21  3 17  1 31 28  9 23            -0.003239363
  -7475267.542 9  -5678434.81248  19752932.202    19752933.9724   19752939.9664
       883.356         688.329
  -3810746.840 9  -2797781.18348  21000473.820    21000476.0074   21000482.5204
      -803.270        -625.925
   7251920.622 9   5648206.36046  22687411.016    22687412.7044   22687420.6094
     -2126.327       -1656.878
 -16425325.675 9 -12776852.50748  19344574.272    19344576.0774   19344582.4244
      1798.954        1401.782
 -10304153.795 9  -7745975.89147  21667939.645    21667941.4814   21667947.9164
      1446.863        1127.426
   9130679.094 9   7111113.453 8  22668766.451    22668768.641    22668776.585
     -2362.897       -1841.218
  -6781725.005 9  -5274915.65546  22969177.488    22969179.5194   22969186.2774
      -156.390        -121.862
   2317633.039 9   1805318.98648  21558503.332    21558505.0244   21558511.3354
      -687.654        -535.834
 96 10 31 17 48 29.9960000  0  8 21  3 17  1 31 28  9 23            -0.003261405
  -7501702.080 9  -5699033.16348  19747901.861    19747903.6804   19747909.6634
       878.712         684.711
  -3786432.022 9  -2778834.59848  21005100.752    21005102.9774   21005109.5074
      -817.633        -637.117
   7315799.505 9   5697982.03146  22699566.831    22699568.5584   22699576.4654
     -2132.333       -1661.558
 -16479044.844 9 -12818711.59348  19334351.759    19334353.6944   19334360.0184
      1782.142        1388.682
 -10347281.907 9  -7779582.24147  21659732.675    21659734.4764   21659740.8974
      1428.220        1112.899
   9201583.886 9   7166363.849 8  22682259.081    22682261.500    22682269.412
     -2364.178       -1842.217
  -6776790.292 9  -5271070.44746  22970116.478    22970118.5274   22970125.3464
      -172.600        -134.494
   2338295.200 9   1821419.34848  21562435.197    21562436.9624   21562443.2644
      -690.045        -537.697
 96 10 31 17 48 59.9960000  0  8 21  3 17  1 31 28  9 23            -0.003283452
  -7527962.832 9  -5719496.09848  19742904.582    19742906.4094   19742912.4324
       871.504         679.094
  -3761671.677 9  -2759540.84348  21009812.458    21009814.7294   21009821.2884
      -833.364        -649.375
   7379877.910 9   5747913.17146  22711760.726    22711762.4024   22711770.2444
     -2139.892       -1667.448
 -16532233.660 9 -12860157.41748  19324230.229    19324232.2244   19324238.5344
      1763.518        1374.170
 -10389828.839 9  -7812735.69347  21651636.220    21651638.0694   21651644.5634
      1407.884        1097.052
   9272548.840 9   7221661.128 8  22695763.388    22695765.748    22695773.680
     -2367.161       -1844.541
  -6771344.649 9  -5266827.11846  22971152.674    22971154.7324   22971161.6004
      -190.770        -148.652
   2359061.855 9   1837601.12648  21566386.977    21566388.7604   21566395.0734
      -694.751        -541.364
 96 10 31 17 49 29.9960000  0  8 21  3 17  1 31 28  9 23            -0.003305496
  -7554012.484 9  -5739794.53748  19737947.510    19737949.3404   19737955.3574
       864.992         674.020
  -3736458.221 9  -2739894.01648  21014610.483    21014612.6684   21014619.2824
      -847.621        -660.484
   7444173.648 9   5798013.65546  22723995.651    22723997.5014   22724005.3994
     -2146.607       -1672.681
 -16584886.857 9 -12901185.87648  19314210.753    19314212.6884   19314218.9944
      1746.726        1361.085
 -10431784.921 9  -7845428.78147  21643652.329    21643654.1664   21643660.6274
      1388.882        1082.246
   9343586.613 9   7277015.145 8  22709281.533    22709283.855    22709291.799
     -2368.839       -1845.849
  -6765376.869 9  -5262176.95046  22972288.349    22972290.4334   22972297.2544
      -207.159        -161.423
   2379955.461 9   1853881.83348  21570362.992    21570364.7084   21570371.0394
      -698.354        -544.172
 96 10 31 17 49 59.9960000  0  8 21  3 17  1 31 28  9 23            -0.003327512
  -7579815.928 9  -5759901.12848  19733037.281    19733039.1094   19733045.1484
       857.482         668.168
  -3710775.269 9  -2719881.34948  21019497.764    21019499.9654   21019506.5564
      -862.345        -671.957
   7508723.446 9   5848312.11746  22736279.106    22736280.9204   22736288.9164
     -2154.474       -1678.811
 -16636998.106 9 -12941792.03648  19304294.349    19304296.2634   19304302.5374
      1729.700        1347.818
 -10473125.621 9  -7877642.32547  21635785.466    21635787.2614   21635793.7974
      1369.336        1067.015
   9414719.486 9   7332443.274 8  22722817.682    22722820.076    22722828.042
     -2371.101       -1847.611
  -6758871.516 9  -5257107.87846  22973526.310    22973528.4294   22973535.2284
      -224.407        -174.863
   2401001.186 9   1870281.07648  21574367.799    21574369.5774   21574375.9484
      -702.317        -547.260
 96 10 31 17 50 29.9960000  0  8 21  3 17  1 31 28  9 23            -0.003349496
  -7605375.860 9  -5779817.96448  19728173.366    19728175.2104   19728181.2514
       848.251         660.975
  -3684629.044 9  -2699507.68948  21024473.345    21024475.4784   21024482.0614
      -878.919        -684.872
   7573533.943 9   5898813.70446  22748612.325    22748614.0214   22748622.0584
     -2164.607       -1686.707
 -16688583.133 9 -12981988.15548  19294478.032    19294479.9904   19294486.2424
      1710.837        1333.120
 -10513852.657 9  -7909377.68947  21628035.277    21628037.1074   21628043.7804
      1347.469        1049.976
   9485939.044 9   7387938.960 8  22736370.535    22736372.806    22736380.805
     -2375.179       -1850.789
  -6751819.650 9  -5251612.95646  22974868.290    22974870.4094   22974877.2044
      -243.958        -190.097
   2422183.112 9   1886786.44348  21578398.538    21578400.3784   21578406.7914
      -708.112        -551.776
 96 10 31 17 50 59.9960000  0  8 21  3 17  1 31 28  9 23            -0.003371460
  -7630715.391 9  -5799563.06148  19723351.385    19723353.2874   19723359.3244
       842.181         656.245
  -3658045.339 9  -2678793.13348  21029532.069    21029534.1994   21029540.8004
      -892.296        -695.296
   7638595.502 9   5949510.93546  22760993.218    22760994.9564   22761002.9264
     -2171.733       -1692.259
 -16739657.542 9 -13021786.39048  19284759.002    19284760.8684   19284767.1264
      1695.171        1320.912
 -10553981.476 9  -7940646.90047  21620399.005    21620400.7874   21620407.5404
      1328.938        1035.536
   9557222.828 9   7443484.673 8  22749935.307    22749937.698    22749945.798
     -2375.968       -1851.404
  -6744238.566 9  -5245705.65146  22976310.920    22976313.0554   22976319.8594
      -260.300        -202.831
   2443479.030 9   1903380.64248  21582451.108    21582452.8744   21582459.3214
      -710.383        -553.545
 96 10 31 17 51 29.9960000  0  8 21  3 17  1 31 28  9 23            -0.003393413
  -7655845.089 9  -5819144.65448  19718569.389    19718571.2614   19718577.2984
       833.627         649.579
  -3631027.092 9  -2657739.97648  21034673.436    21034675.6144   21034682.2004
      -908.499        -707.921
   7703901.619 9   6000398.73546  22773420.524    22773422.4034   22773430.2864
     -2181.402       -1699.794
 -16790224.869 9 -13061189.49748  19275136.316    19275138.2234   19275144.4584
      1676.435        1306.313
 -10593529.699 9  -7971463.72648  21612873.290    21612875.1024   21612881.7684
      1307.997        1019.218
   9628558.771 9   7499071.033 8  22763509.906    22763512.508    22763520.696
     -2379.309       -1854.007
  -6736136.480 9  -5239392.37846  22977852.561    22977854.8374   22977861.6134
      -279.384        -217.702
   2464863.812 9   1920044.07948  21586520.513    21586522.2924   21586528.7634
      -714.770        -556.964
 96 10 31 17 51 59.9960000  0  8 21  3 17  1 31 28  9 23            -0.003415336
  -7680724.851 9  -5838531.49148  19713834.999    19713836.8294   19713842.8254
       826.078         643.697
  -3603532.166 9  -2636315.37848  21039905.576    21039907.7344   21039914.3274
      -923.512        -719.620
   7769484.430 9   6051502.13346  22785900.729    22785902.4144   22785910.3574
     -2189.659       -1706.228
 -16840234.010 9 -13100157.65848  19265619.810    19265621.7774   19265628.0124
      1658.453        1292.301
 -10632459.888 9  -8001798.96348  21605465.290    21605467.0254   21605473.6114
      1288.394        1003.943
   9699983.442 9   7554726.537 8  22777101.714    22777104.264    22777112.462
     -2381.245       -1855.516
  -6727463.577 9  -5232634.30046  22979503.090    22979505.2424   22979512.0964
      -297.569        -231.872
   2486367.401 9   1936800.09548  21590612.507    21590614.2824   21590620.8094
      -717.758        -559.292
 96 10 31 17 52 29.9960000  0  8 21  3 17  1 31 28  9 23            -0.003437264
  -7705394.144 9  -5857754.32148  19709140.576    19709142.4134   19709148.4194
       818.385         637.702
  -3575604.664 9  -2614553.70848  21045220.037    21045222.1714   21045228.7944
      -938.357        -731.187
   7835293.610 9   6102781.92546  22798423.735    22798425.6004   22798433.4954
     -2197.707       -1712.499
 -16889717.072 9 -13138715.87948  19256203.544    19256205.4584   19256211.7184
      1640.191        1278.071
 -10670814.556 9  -8031685.73047  21598166.634    21598168.3964   21598174.9774
      1268.388         988.354
   9771448.380 9   7610413.423 8  22790701.190    22790703.673    22790711.872
     -2383.225       -1857.058
  -6718267.913 9  -5225468.88946  22981252.995    22981255.2164   22981262.0334
      -315.517        -245.857
   2507946.771 9   1953615.16048  21594718.934    21594720.7054   21594727.2564
      -720.961        -561.788
 96 10 31 17 52 59.9960000  0  9 25 21  3 17  1 31 28  9 23         -0.003459200
   -365099.23318   -255784.52455  23560278.742           0.0005          0.0005
      4422.202        3445.872
  -7729844.968 9  -5876806.92248  19704487.854    19704489.6054   19704495.5844
       811.598         632.414
  -3547253.496 9  -2592461.91848  21050615.132    21050617.2614   21050623.8484
      -951.868        -741.715
   7901315.716 9   6154227.64146  22810987.455    22810989.2974   22810997.1824
     -2203.881       -1717.310
 -16938669.574 9 -13176860.68248  19246888.220    19246890.0994   19246896.3624
      1623.284        1264.897
 -10708589.019 9  -8061120.38047  21590978.243    21590980.0934   21590986.7464
      1249.849         973.908
   9842955.012 9   7666132.792 8  22804308.677    22804311.010    22804319.226
     -2383.963       -1857.634
  -6708551.844 9  -5217897.95946  22983101.977    22983104.1324   22983110.9954
      -332.193        -258.852
   2529601.871 9   1970489.22448  21598839.860    21598841.5484   21598848.1174
      -722.886        -563.288
 96 10 31 17 53 29.9960000  0  9 25 21  3 17  1 31 28  9 23         -0.003481137
   -497769.385 8   -359163.81355  23535030.984    23535034.4385   23535043.4475
      4424.212        3447.438
  -7754061.922 9  -5895677.28148  19699879.562    19699881.3064   19699887.2364
       804.626         626.981
  -3518464.760 9  -2570029.16548  21056093.389    21056095.5994   21056102.1444
      -965.615        -752.427
   7967551.209 9   6205839.61946  22823591.740    22823593.6044   22823601.5854
     -2210.131       -1722.180
 -16987087.124 9 -13214588.64448  19237674.594    19237676.5374   19237682.8094
      1606.445        1251.775
 -10745780.313 9  -8090100.62747  21583901.034    21583902.8944   21583909.5544
      1231.167         959.351
   9914511.240 9   7721890.805 8  22817925.645    22817927.804    22817936.008
     -2384.751       -1858.248
  -6698306.579 9  -5209914.67946  22985051.754    22985053.8004   22985060.6864
      -348.938        -271.900
   2551352.138 9   1987437.45148  21602978.747    21602980.5184   21602987.0534
      -725.570        -565.379
 96 10 31 17 53 59.9960000  0  9 25 21  3 17  1 31 28  9 23         -0.003503059
   -630478.796 8   -462573.70255  23509777.537    23509781.0144   23509788.2975
      4423.670        3447.015
  -7778045.271 9  -5914365.60548  19695315.694    19695317.4424   19695323.3644
       794.797         619.322
  -3489240.364 9  -2547256.93148  21061654.639    21061656.8254   21061663.4054
      -982.113        -765.283
   8034003.127 9   6257620.24646  22836236.914    22836239.0224   22836247.0524
     -2219.489       -1729.472
 -17034979.314 9 -13251907.22948  19228560.925    19228562.9484   19228569.2094
      1586.916        1236.558
 -10782381.428 9  -8118620.98847  21576936.211    21576937.9664   21576944.6034
      1209.424         942.408
   9986119.094 9   7777689.046 8  22831552.318    22831554.379    22831562.617
     -2388.471       -1861.146
  -6687531.750 9  -5201518.74146  22987102.198    22987104.2744   22987111.0934
      -368.647        -287.257
   2573220.618 9   2004477.78948  21607140.218    21607141.9894   21607148.5424
      -731.794        -570.229
 96 10 31 17 54 29.9960000  0  9 25 21  3 17  1 31 28  9 23         -0.003524956
   -763226.486 8   -566013.37745  23484515.851    23484520.0405   23484527.4224
      4426.295        3449.061
  -7801792.867 9  -5932870.23148  19690796.720    19690798.4524   19690804.3764
       788.444         614.372
  -3459574.675 9  -2524140.83148  21067299.833    21067302.0314   21067308.6474
      -995.472        -775.692
   8100673.181 9   6309570.85046  22848923.956    22848925.9494   22848933.9954
     -2225.123       -1733.862
 -17082347.527 9 -13288817.52348  19219547.124    19219549.0614   19219555.3254
      1571.018        1224.170
 -10818381.102 9  -8146672.68447  21570085.610    21570087.3674   21570094.1274
      1190.555         927.705
  10057785.779 9   7833533.116 8  22845189.936    22845192.147    22845200.413
     -2389.197       -1861.712
  -6676224.241 9  -5192707.72946  22989253.932    22989256.0714   22989262.8754
      -385.200        -300.156
   2595222.455 9   2021622.04248  21611327.130    21611328.8364   21611335.4194
      -734.808        -572.578
 96 10 31 17 54 59.9960000  0  9 25 21  3 17  1 31 28  9 23         -0.003546843
   -896046.881 8   -669509.68246  23459241.139    23459244.7204   23459252.4704
      4428.148        3450.505
  -7825340.952 9  -5951219.39248  19686315.726    19686317.4164   19686323.3504
       780.993         608.566
  -3429502.494 9  -2500707.98248  21073022.498    21073024.6304   21073031.2734
     -1009.721        -786.796
   8167518.990 9   6361658.41346  22861644.376    22861646.3884   22861654.3934
     -2231.739       -1739.017
 -17129231.007 9 -13325350.10348  19210625.410    19210627.4434   19210633.7214
      1554.090        1210.979
 -10853811.928 9  -8174281.13247  21563343.202    21563345.0714   21563351.8464
      1171.169         912.599
  10129475.948 9   7889395.496 8  22858832.092    22858834.444    22858842.683
     -2390.525       -1862.747
  -6664408.910 9  -5183501.02246  22991502.305    22991504.4564   22991511.2364
      -402.841        -313.902
   2617322.257 9   2038842.62648  21615532.607    21615534.3584   21615540.9314
      -738.903        -575.769
 96 10 31 17 55 29.9960000  0  9 25 21  3 17  1 31 28  9 23         -0.003568720
  -1028932.409 8   -773056.73546  23433954.227    23433957.4944   23433965.2984
      4430.360        3452.229
  -7848670.771 9  -5969398.47948  19681876.169    19681877.8824   19681883.8324
       773.780         602.945
  -3399009.294 9  -2476947.07448  21078825.229    21078827.3424   21078833.9784
     -1023.622        -797.628
   8234566.066 9   6413902.80546  22874403.131    22874405.1214   22874413.0864
     -2238.700       -1744.442
 -17175604.519 9 -13361485.30248  19201800.844    19201802.8724   19201809.1584
      1536.861        1197.554
 -10888668.912 9  -8201442.43147  21556710.249    21556712.0064   21556718.8024
      1151.932         897.609
  10201200.851 9   7945284.941 8  22872480.877    22872483.356    22872491.574
     -2391.739       -1863.693
  -6652065.952 9  -5173883.16446  22993851.157    22993853.2894   22993859.9984
      -420.545        -327.697
   2639540.647 9   2056155.62048  21619760.757    21619762.4384   21619769.0084
      -742.796        -578.802
 96 10 31 17 55 59.9960000  0  9 25 21  3 17  1 31 28  9 23         -0.003590564
  -1161850.674 8   -876629.27446  23408660.454    23408663.8754   23408671.7604
      4430.243        3452.137
  -7871748.453 9  -5987381.09548  19677484.578    19677486.3474   19677492.3074
       764.040         595.356
  -3368064.564 9  -2452834.32348  21084713.821    21084715.9544   21084722.5714
     -1039.928        -810.334
   8301864.935 9   6466343.39046  22887209.870    22887211.7334   22887219.8294
     -2248.367       -1751.974
 -17221419.762 9 -13397185.49048  19193082.625    19193084.5164   19193090.8024
      1516.890        1181.992
 -10922907.864 9  -8228122.15047  21550194.913    21550196.5714   21550203.3144
      1130.125         880.617
  10272997.340 9   8001230.173 8  22886143.426    22886145.882    22886154.062
     -2395.266       -1866.441
  -6639149.461 9  -5163818.39846  22996309.148    22996311.2474   22996317.9604
      -440.968        -343.611
   2661905.237 9   2073582.54048  21624016.547    21624018.3224   21624024.8934
      -748.584        -583.312
 96 10 31 17 56 29.9960000  0  9 25 21  3 17  1 31 28  9 23         -0.003612397
  -1294820.519 8   -980241.99846  23383357.408    23383360.4564   23383368.3484
      4431.653        3453.236
  -7894590.308 9  -6005179.95148  19673137.890    19673139.6744   19673145.6434
       756.228         589.269
  -3336692.001 9  -2428388.18548  21090683.799    21090685.9324   21090692.6094
     -1054.052        -821.339
   8369396.959 9   6518965.65246  22900060.901    22900062.6304   22900070.8724
     -2256.343       -1758.189
 -17266698.060 9 -13432467.27848  19184466.429    19184468.3604   19184474.6384
      1499.009        1168.059
 -10956558.576 9  -8254343.50347  21543791.359    21543793.1214   21543799.8484
      1110.695         865.477
  10344834.421 9   8057207.020 8  22899813.872    22899816.120    22899824.290
     -2396.456       -1867.368
  -6625689.728 9  -5153330.33946  22998870.456    22998872.5384   22998879.3364
      -458.828        -357.528
   2684376.695 9   2091092.73748  21628292.790    21628294.5354   21628301.0964
      -752.113        -586.062
 96 10 31 17 56 59.9960000  0  9 25 21  3 17  1 31 28  9 23         -0.003634211
  -1427800.207 8  -1083862.36346  23358052.280    23358055.0934   23358063.0384
      4433.445        3454.632
  -7917170.604 9  -6022774.99548  19668841.072    19668842.7944   19668848.7734
       749.024         583.655
  -3304876.138 9  -2403596.62648  21096738.140    21096740.3144   21096746.9714
     -1067.175        -831.565
   8437200.022 9   6571799.12146  22912963.285    22912965.2844   22912973.4524
     -2263.980       -1764.140
 -17311408.453 9 -13467306.54548  19175958.300    19175960.2584   19175966.5164
      1481.560        1154.462
 -10989606.622 9  -8280095.21747  21537502.352    21537504.2704   21537511.0544
      1092.311         851.151
  10416728.786 9   8113228.513 8  22913495.064    22913497.276    22913505.391
     -2396.717       -1867.572
  -6611676.520 9  -5142410.98546  23001536.940    23001539.1964   23001545.9724
      -475.418        -370.456
   2706985.607 9   2108710.02748  21632595.148    21632596.9244   21632603.4754
      -755.388        -588.614
 96 10 31 17 57 29.9960000  0  9 25 21  3 17  1 31 28  9 23         -0.003656031
  -1560820.361 8  -1187514.28246  23332739.671    23332742.1184   23332750.0824
      4433.239        3454.472
  -7939535.297 9  -6040202.04048  19664585.261    19664586.9484   19664592.9384
       740.801         577.248
  -3272660.515 9  -2378493.57248  21102868.603    21102870.7544   21102877.3874
     -1081.771        -842.938
   8505241.212 9   6624818.15046  22925911.142    22925913.2334   22925921.2444
     -2273.117       -1771.260
 -17355593.831 9 -13501736.70748  19167550.090    19167552.0834   19167558.3164
      1463.130        1140.101
 -11022099.145 9  -8305414.07647  21531319.269    21531321.1424   21531327.9294
      1072.510         835.722
  10488637.147 9   8169260.907 8  22927178.929    22927181.100    22927189.181
     -2398.318       -1868.819
  -6597166.758 9  -5131104.70046  23004298.148    23004300.3254   23004307.1254
      -492.959        -384.124
   2729697.586 9   2126407.63548  21636917.068    21636918.9204   21636925.4674
      -759.890        -592.122
 96 10 31 17 57 59.9960000  0  9 25 21  3 17  1 31 28  9 23         -0.003677829
  -1693831.960 8  -1291159.53246  23307428.136    23307430.7694   23307438.7454
      4434.296        3455.296
  -7961648.138 9  -6057432.83948  19660377.372    19660379.0354   19660385.0224
       733.589         571.628
  -3240010.264 9  -2353051.83748  21109081.724    21109083.8624   21109090.5094
     -1094.731        -853.037
   8573546.014 9   6678042.59746  22938909.193    22938911.2274   22938919.4014
     -2280.117       -1776.715
 -17399236.869 9 -13535744.26348  19159245.157    19159247.0974   19159253.3014
      1446.676        1127.280
 -11053992.118 9  -8330265.74247  21525250.230    21525252.0584   21525258.8944
      1053.962         821.269
  10560589.497 9   8225327.584 8  22940871.103    22940873.248    22940881.348
     -2398.302       -1868.807
  -6582142.177 9  -5119397.27147  23007157.301    23007159.4684   23007166.2944
      -508.523        -396.252
   2752542.776 9   2144209.05048  21641264.444    21641266.2494   21641272.8054
      -763.079        -594.607
 96 10 31 17 58 29.9960000  0  9 25 21  3 17  1 31 28  9 23         -0.003699605
  -1826824.694 8  -1394790.10046  23282119.624    23282123.0664   23282131.0324
      4432.167        3453.637
  -7983507.978 9  -6074466.49648  19656217.531    19656219.2624   19656225.2614
       724.112         564.243
  -3206937.317 9  -2327280.73048  21115375.289    21115377.4484   21115384.1324
     -1109.880        -864.841
   8642090.499 9   6731453.79046  22951952.796    22951954.9044   22951962.9914
     -2289.130       -1783.738
 -17442346.410 9 -13569336.11248  19151041.655    19151043.6254   19151049.8234
      1427.507        1112.343
 -11085289.675 9  -8354653.45547  21519294.547    21519296.3664   21519303.1404
      1032.731         804.725
  10632578.249 9   8281422.622 8  22954570.077    22954572.316    22954580.427
     -2400.714       -1870.686
  -6566610.299 9  -5107294.53647  23010112.988    23010115.1274   23010121.9674
      -526.804        -410.497
   2775532.976 9   2162123.45448  21645639.385    21645641.1534   21645647.7134
      -769.304        -599.458
 96 10 31 17 58 59.9960000  0  9 25 21  3 17  1 31 28  9 23         -0.003721357
  -1959798.106 8  -1498405.62746  23256815.371    23256818.9994   23256826.7554
      4431.777        3453.333
  -8005126.914 9  -6091312.43748  19652103.622    19652105.3254   19652111.3334
       716.116         558.012
  -3173451.979 9  -2301188.28048  21121747.418    21121749.5374   21121756.2154
     -1123.650        -875.571
   8710854.344 8   6785035.91446  22965038.185    22965040.2534   22965048.4374
     -2296.157       -1789.213
 -17484924.402 9 -13602513.76148  19142939.379    19142941.3124   19142947.4924
      1410.037        1098.730
 -11115984.942 9  -8378571.83847  21513453.509    21513455.3354   21513462.0994
      1012.424         788.902
  10704601.310 9   8337544.395 8  22968275.702    22968277.926    22968286.033
     -2401.926       -1871.631
  -6550564.935 9  -5094791.68947  23013166.416    23013168.4934   23013175.3274
      -544.046        -423.932
   2798660.979 9   2180145.24648  21650040.596    21650042.2954   21650048.8674
      -773.569        -602.781
 96 10 31 17 59 29.9960000  0  9 25 21  3 17  1 31 28  9 23         -0.003743086
  -2092771.520 8  -1602021.15746  23231511.736    23231514.9034   23231522.6794
      4432.660        3454.021
  -8026521.846 9  -6107983.82648  19648032.237    19648034.0144   19648040.0284
       709.697         553.011
  -3139557.113 9  -2274776.71748  21128197.436    21128199.5324   21128206.2054
     -1136.470        -885.561
   8779817.660 9   6838773.46846  22978161.505    22978163.5754   22978171.7944
     -2301.821       -1793.627
 -17526991.852 9 -13635293.58748  19134934.217    19134936.1644   19134942.3014
      1393.921        1086.172
 -11146081.596 9  -8402023.79247  21507726.373    21507728.1754   21507734.8644
       993.354         774.042
  10776646.858 9   8393683.682 8  22981985.645    22981987.829    22981995.933
     -2401.631       -1871.401
  -6534004.657 9  -5081887.60147  23016317.916    23016319.8894   23016326.7104
      -560.413        -436.685
   2821895.672 9   2198250.16648  21654462.031    21654463.7484   21654470.3024
      -776.007        -604.681
 96 10 31 17 59 59.9960000  0  9 25 21  3 17  1 31 28  9 23         -0.003764793
  -2225750.059 8  -1705640.70546  23206206.933    23206209.8604   23206217.5594
      4434.658        3455.578
  -8047701.868 9  -6124487.75548  19644001.873    19644003.6094   19644009.6264
       704.555         549.004
  -3105254.075 9  -2248047.10248  21134725.158    21134727.2204   21134733.8944
     -1148.291        -894.772
   8848975.442 9   6892662.55946  22991322.385    22991323.9624   22991332.2604
     -2306.602       -1797.352
 -17568544.260 9 -13667672.08148  19127026.992    19127029.0064   19127035.1654
      1378.359        1074.046
 -11175575.977 9  -8425006.44247  21502113.865    21502115.6274   21502122.2254
       975.135         759.845
  10848709.132 9   8449836.013 8  22995698.669    22995700.923    22995708.994
     -2400.350       -1870.403
  -6516923.789 9  -5068577.87147  23019568.154    23019570.3194   23019577.1724
      -576.119        -448.924
   2845235.425 9   2216436.94748  21658903.358    21658905.1974   21658911.7514
      -777.977        -606.216
 96 10 31 18  0 29.9960000  0  9 25 21  3 17  1 31 28  9 23         -0.003786482
  -2358736.486 9  -1809266.40446  23180901.004    23180903.3794   23180911.0964
      4432.530        3453.919
  -8068687.032 9  -6140839.84448  19640008.535    19640010.2794   19640016.3044
       695.682         542.090
  -3070543.564 9  -2220999.97148  21141330.382    21141332.4534   21141339.0814
     -1164.370        -907.301
   8918328.091 9   6946703.51146  23004519.480    23004521.3744   23004529.6044
     -2315.763       -1804.491
 -17609577.644 9 -13699646.14048  19119218.610    19119220.6184   19119226.7844
      1358.566        1058.623
 -11204478.297 9  -8447527.73247  21496614.033    21496615.7284   21496622.3564
       952.893         742.514
  10920782.455 9   8505996.947 8  23009413.825    23009416.088    23009424.163
     -2403.148       -1872.583
  -6499318.912 9  -5054859.81547  23022918.226    23022920.4114   23022927.3154
      -596.013        -464.426
   2868679.992 9   2234705.41348  21663364.727    21663366.5924   21663373.1284
      -783.506        -610.524
 96 10 31 18  0 59.9960000  0  9 25 21  3 17  1 31 28  9 23         -0.003808151
  -2491725.820 9  -1912894.39446  23155594.028    23155596.3744   23155604.0204
      4432.166        3453.636
  -8089465.230 9  -6157030.66848  19636054.583    19636056.3394   19636062.3424
       688.243         536.293
  -3035407.276 9  -2193621.07048  21148016.624    21148018.6904   21148025.3224
     -1179.221        -918.874
   8987894.862 8   7000911.30046  23017757.458    23017759.4384   23017767.8644
     -2323.563       -1810.569
 -17650081.316 9 -13731207.44348  19111511.074    19111513.0434   19111519.2154
      1340.398        1044.466
 -11232779.874 9  -8469580.90747  21491228.407    21491230.0294   21491236.7734
       932.458         726.591
  10992873.617 8   8562171.792 8  23023132.322    23023134.652    23023142.741
     -2404.198       -1873.401
  -6481189.758 9  -5040733.24247  23026368.087    23026370.2924   23026377.2174
      -613.864        -478.336
   2892224.325 9   2253051.60948  21667845.166    21667846.9634   21667853.5144
      -787.443        -613.592
 96 10 31 18  1 29.9960000  0  9 25 21  3 17  1 31 28  9 23         -0.003829790
  -2624697.281 9  -2016508.45846  23130290.513    23130292.6784   23130300.3324
      4432.026        3453.527
  -8110013.316 9  -6173042.17348  19632144.412    19632146.1704   19632152.1674
       681.139         530.758
  -2999824.137 9  -2165893.97248  21154787.917    21154789.9634   21154796.5814
     -1193.279        -929.828
   9057704.902 9   7055308.62746  23031042.526    23031043.9074   23031052.4644
     -2330.906       -1816.290
 -17690024.999 9 -13762332.38048  19103910.125    19103912.0224   19103918.2014
      1322.008        1030.136
 -11260463.639 9  -8491152.68547  21485960.325    21485961.9824   21485968.7614
       912.589         711.108
  11064999.109 9   8618373.381 8  23036857.544    23036859.750    23036867.876
     -2404.686       -1873.781
  -6462519.965 9  -5026185.38447  23029920.996    23029923.0324   23029930.0184
      -631.216        -491.857
   2915899.050 9   2271499.42348  21672350.448    21672352.1564   21672358.7244
      -791.382        -616.661
 96 10 31 18  1 59.9960000  0  9 25 21  3 17  1 31 28  9 23         -0.003851423
  -2757670.817 9  -2120124.14646  23104986.598    23104988.5444   23104996.3244
      4432.409        3453.825
  -8130350.359 9  -6188889.23748  19628274.372    19628276.1604   19628282.1784
       674.371         525.484
  -2963835.937 9  -2137851.24448  21161636.235    21161638.2894   21161644.8954
     -1206.222        -939.913
   9127726.802 8   7109871.04746  23044367.307    23044368.7334   23044377.2984
     -2337.459       -1821.397
 -17729425.902 9 -13793034.38348  19096412.343    19096414.3104   19096420.4894
      1304.497        1016.491
 -11287558.378 9  -8512265.49147  21480804.253    21480806.0084   21480812.7554
       893.535         696.261
  11137129.586 8   8674578.848 8  23050583.632    23050585.779    23050593.944
     -2404.333       -1873.506
  -6443340.967 9  -5011240.75347  23033570.508    23033572.7244   23033579.7264
      -647.659        -504.669
   2939683.104 9   2290032.41947  21676876.327    21676878.1144   21676884.7034
      -794.479        -619.075
 96 10 31 18  2 29.9960000  0  9 25 21  3 17  1 31 28  9 23         -0.003873040
  -2890615.487 9  -2223717.35546  23079688.299    23079689.9264   23079697.6594
      4430.381        3452.245
  -8150446.504 9  -6204548.58248  19624450.185    19624452.0084   19624458.0304
       664.880         518.088
  -2927434.283 9  -2109486.34048  21168563.141    21168565.3044   21168571.9094
     -1220.831        -951.297
   9197972.112 8   7164607.55646  23057734.436    23057736.0184   23057744.5714
     -2345.858       -1827.941
 -17768272.542 9 -13823304.48948  19089019.983    19089022.0424   19089028.2364
      1284.924        1001.239
 -11314054.080 9  -8532911.50947  21475762.352    21475764.0944   21475770.8314
       872.404         679.795
  11209278.420 8   8730798.614 8  23064313.217    23064315.325    23064323.467
     -2405.938       -1874.757
  -6423639.575 9  -4995889.05447  23037319.698    23037321.8064   23037328.8184
      -665.986        -518.950
   2963583.232 9   2308655.86547  21681424.500    21681426.1924   21681432.7944
      -799.168        -622.728
 96 10 31 18  2 59.9960000  0  9 25 21  3 17  1 31 28  9 23         -0.003894645
  -3023533.354 9  -2327289.68146  23054394.796    23054396.2794   23054404.2244
      4430.562        3452.386
  -8170284.105 9  -6220006.46748  19620675.271    19620677.0434   19620683.0804
       657.492         512.331
  -2890629.387 9  -2080807.22448  21175566.883    21175569.0714   21175575.6754
     -1232.840        -960.655
   9268440.598 8   7219517.97546  23071144.119    23071145.7914   23071154.2674
     -2352.087       -1832.795
 -17806561.544 9 -13853140.07548  19081733.857    19081735.8864   19081742.0724
      1267.585         987.729
 -11339947.369 9  -8553088.10547  21470835.104    21470836.8274   21470843.5564
       853.622         665.160
  11281444.717 8   8787032.008 8  23078045.931    23078048.176    23078056.300
     -2405.263       -1874.231
  -6403422.655 9  -4980135.65447  23041166.806    23041168.9954   23041175.9684
      -681.981        -531.414
   2987599.877 9   2327370.10647  21685994.690    21685996.4474   21686003.0494
      -802.122        -625.030
 96 10 31 18  3 29.9960000  0  9 25 21  3 17  1 31 28  9 23         -0.003916237
  -3156418.438 9  -2430836.47046  23029107.326    23029109.0594   23029116.9874
      4428.789        3451.004
  -8189869.045 9  -6235267.47548  19616948.430    19616950.1904   19616956.1874
       648.529         505.347
  -2853438.835 9  -2051827.60148  21182644.048    21182646.2184   21182652.7654
     -1246.094        -970.982
   9339124.539 8   7274596.28546  23084594.895    23084596.5824   23084605.0214
     -2359.786       -1838.794
 -17844305.626 9 -13882551.05148  19074551.426    19074553.4364   19074559.6144
      1249.222         973.420
 -11365247.423 9  -8572802.45847  21466020.607    21466022.3774   21466029.1144
       833.468         649.456
  11353622.224 8   8843274.114 8  23091780.939    23091783.221    23091791.279
     -2406.178       -1874.944
  -6382692.478 9  -4963982.31647  23045111.772    23045113.8684   23045120.8794
      -699.534        -545.091
   3011738.831 9   2346179.64047  21690588.300    21690589.9904   21690596.5884
      -806.732        -628.622
 96 10 31 18  3 59.9960000  0  9 25 21  3 17  1 31 28  9 23         -0.003937807
  -3289257.286 9  -2534347.23446  23003828.553    23003830.5794   23003838.4864
      4427.854        3450.276
  -8209190.012 9  -6250322.78348  19613271.792    19613273.5634   19613279.5484
       640.159         498.825
  -2815865.221 9  -2022549.49548  21189794.052    21189796.2304   21189802.8014
     -1258.106        -980.342
   9410029.378 8   7329846.70245  23098087.688    23098089.2994   23098097.9084
     -2366.561       -1844.074
 -17881518.174 9 -13911547.84248  19067470.164    19067472.1104   19067478.3114
      1232.378         960.295
 -11389958.719 9  -8592058.02747  21461318.273    21461319.9814   21461326.7174
       814.527         634.696
  11425812.732 8   8899526.372 8  23105518.471    23105520.731    23105528.731
     -2405.898       -1874.726
  -6361454.391 9  -4947433.20747  23049153.301    23049155.3864   23049162.3994
      -715.684        -557.676
   3036009.943 9   2365092.15447  21695206.972    21695208.6294   21695215.2584
      -810.783        -631.779
 96 10 31 18  4 29.9960000  0  9 25 21  3 17  1 31 28  9 23         -0.003959366
  -3422082.295 9  -2637847.20746  22978552.427    22978554.7824   22978562.7324
      4427.150        3449.727
  -8228260.130 9  -6265182.62148  19609642.917    19609644.6624   19609650.6494
       630.932         491.635
  -2777945.197 9  -1993001.44848  21197009.937    21197012.1914   21197018.7874
     -1270.156        -989.732
   9481135.569 8   7385254.01446  23111618.980    23111620.6124   23111629.0944
     -2373.970       -1849.847
 -17918231.503 9 -13940155.62648  19060483.797    19060485.7964   19060491.9954
      1215.028         946.775
 -11414103.340 9  -8610872.01547  21456723.658    21456725.3374   21456732.1874
       794.726         619.267
  11497990.512 8   8955768.709 8  23119253.659    23119255.779    23119263.775
     -2406.090       -1874.875
  -6339733.579 9  -4930507.93647  23053286.652    23053288.7304   23053295.8204
      -732.548        -570.817
   3060405.811 9   2384101.88947  21699849.301    21699851.0414   21699857.6804
      -815.788        -635.679
 96 10 31 18  4 59.9960000  0  9 25 21  3 17  1 31 28  9 23         -0.003980897
  -3554893.430 9  -2741336.35846  22953279.485    22953281.6694   22953289.5924
      4426.726        3449.397
  -8247062.294 9  -6279833.66648  19606064.982    19606066.7404   19606072.7334
       622.561         485.112
  -2739666.528 9  -1963173.94048  21204294.123    21204296.3924   21204302.9984
     -1281.934        -998.910
   9552451.887 8   7440825.07046  23125190.229    23125191.7584   23125200.3974
     -2380.578       -1854.996
 -17954436.484 9 -13968367.29648  19053594.176    19053596.2224   19053602.4194
      1198.620         933.990
 -11437659.748 9  -8629227.67847  21452241.046    21452242.7704   21452249.6284
       775.546         604.322
  11570169.853 8   9012012.252 8  23132988.928    23132991.061    23132999.106
     -2405.900       -1874.727
  -6317513.122 9  -4913193.33847  23057515.034    23057517.1464   23057524.2764
      -748.966        -583.610
   3084955.034 9   2403231.12047  21704520.886    21704522.6474   21704529.2994
      -820.909        -639.669
 96 10 31 18  5 29.9960000  0  9 25 21  3 17  1 31 28  9 23         -0.004002394
  -3687688.799 9  -2844813.23246  22928009.476    22928011.5574   22928019.5704
      4426.496        3449.218
  -8265606.319 9  -6294283.56148  19602536.152    19602537.9454   19602543.9254
       614.113         478.530
  -2701026.953 9  -1933065.20448  21211647.049    21211649.2774   21211655.8854
     -1293.888       -1008.224
   9623967.024 8   7496551.05046  23138799.068    23138800.7304   23138809.4554
     -2386.918       -1859.936
 -17990153.616 9 -13996198.82848  19046797.338    19046799.4944   19046805.6824
      1182.535         921.456
 -11460636.348 9  -8647131.54447  21447868.670    21447870.5004   21447877.3154
       756.321         589.341
  11642342.370 8   9068250.469 8  23146722.778    23146725.025    23146733.163
     -2405.338       -1874.289
  -6294798.229 9  -4895493.45647  23061837.574    23061839.7294   23061846.8364
      -764.978        -596.087
   3109659.272 9   2422481.14047  21709221.956    21709223.6904   21709230.4084
      -825.658        -643.370
 96 10 31 18  5 59.9950000  0  9 25 21  3 17  1 31 28  9 23         -0.004023862
  -3820464.990 9  -2948275.17246  22902743.007    22902745.1614   22902753.0024
      4425.304        3448.289
  -8283893.008 9  -6308532.93948  19599056.246    19599058.1074   19599064.0964
       604.865         471.323
  -2662018.125 9  -1902668.74548  21219070.209    21219072.4644   21219079.0824
     -1307.076       -1018.501
   9695672.664 8   7552425.45745  23152444.091    23152445.9674   23152454.6304
     -2393.791       -1865.292
 -18025364.104 9 -14023635.56548  19040096.985    19040099.1644   19040105.3584
      1164.657         907.525
 -11483018.409 9  -8664572.12147  21443609.499    21443611.2834   21443618.1194
       735.605         573.199
  11714506.341 8   9124482.045 8  23160455.126    23160457.391    23160465.625
     -2405.942       -1874.760
  -6271597.094 9  -4877414.68147  23066252.674    23066254.7834   23066261.8964
      -782.185        -609.495
   3134511.446 9   2441846.43347  21713951.145    21713952.9544   21713959.6754
      -831.307        -647.772
 96 10 31 18  6 29.9950000  0  9 25 21  3 17  1 31 28  9 23         -0.004045301
  -3953229.842 9  -3051728.27146  22877478.921    22877480.8414   22877488.6634
      4425.571        3448.497
  -8301935.406 9  -6322591.95748  19595622.985    19595624.7684   19595630.7514
       598.081         466.037
  -2622623.158 9  -1871971.39348  21226566.837    21226569.1054   21226575.7064
     -1319.270       -1028.003
   9767562.047 8   7608443.04645  23166124.118    23166125.9964   23166134.7384
     -2398.661       -1869.086
 -18060058.856 9 -14050670.43348  19033494.836    19033496.9764   19033503.1644
      1148.409         894.864
 -11504800.237 9  -8681544.98647  21439464.506    21439466.3574   21439473.1794
       716.637         558.418
  11786667.372 8   9180711.318 8  23174187.073    23174189.248    23174197.509
     -2404.775       -1873.851
  -6247892.304 9  -4858943.45847  23070763.550    23070765.6724   23070772.8154
      -797.994        -621.813
   3159501.059 9   2461318.82647  21718706.692    21718708.3644   21718715.0794
      -834.495        -650.256
 96 10 31 18  6 59.9950000  0  9 25 21  3 17  1 31 28  9 23         -0.004066727
  -4085979.406 9  -3155169.45846  22852217.254    22852219.4154   22852227.1544
      4424.338        3447.536
  -8319771.979 9  -6336490.58748  19592228.859    19592230.6004   19592236.5814
       591.129         460.620
  -2582840.806 9  -1840972.18748  21234137.189    21234139.4404   21234146.0654
     -1332.697       -1038.465
   9839604.534 8   7664579.93645  23179833.053    23179835.3964   23179844.0094
     -2404.352       -1873.521
 -18094259.887 9 -14077320.58348  19026986.584    19026988.7734   19026994.9274
      1131.578         881.749
 -11526011.345 9  -8698073.14147  21435428.182    21435430.0444   21435436.8654
       697.457         543.473
  11858799.311 8   9236917.921 8  23187913.261    23187915.562    23187923.864
     -2404.128       -1873.346
  -6223712.573 9  -4840102.13047  23075364.782    23075366.9334   23075374.0874
      -814.053        -634.327
   3184589.004 9   2480867.84047  21723480.702    21723482.4704   21723489.2024
      -837.996        -652.984
 96 10 31 18  7 29.9950000  0  9 25 21  3 17  1 31 28  9 23         -0.004088133
  -4218678.484 9  -3258571.29146  22826965.515    22826967.5094   22826975.3494
      4422.406        3446.031
  -8337391.299 9  -6350219.94048  19588876.036    19588877.7834   19588883.7564
       583.678         454.814
  -2542656.351 9  -1809659.65048  21241784.053    21241786.3294   21241792.9994
     -1346.028       -1048.853
   9911833.196 8   7720861.91245  23193577.975    23193580.1504   23193588.7974
     -2410.853       -1878.587
 -18127942.927 9 -14103567.10748  19020577.044    19020579.0764   19020585.2474
      1113.969         868.028
 -11546646.174 9  -8714152.23747  21431501.602    21431503.3894   21431510.2454
       678.245         528.503
  11930917.643 8   9293113.954 8  23201636.974    23201639.297    23201647.633
     -2403.722       -1873.030
  -6199035.965 9  -4820873.63147  23080060.611    23080062.7864   23080069.9404
      -831.003        -647.535
   3209784.964 9   2500501.01847  21728275.378    21728277.1404   21728283.8484
      -841.463        -655.685
 96 10 31 18  7 59.9950000  0  9 25 21  3 17  1 31 28  9 23         -0.004109516
  -4351312.230 9  -3361922.21846  22801726.008    22801728.1124   22801735.9444
      4421.648        3445.440
  -8354786.094 9  -6363774.33648  19585565.972    19585567.6824   19585573.6524
       577.669         450.132
  -2502073.194 9  -1778036.44148  21249506.840    21249509.0454   21249515.7474
     -1357.566       -1057.844
   9984261.809 8   7777299.67945  23207360.862    23207362.8654   23207371.6694
     -2416.059       -1882.643
 -18161086.839 9 -14129393.53248  19014269.943    19014272.0194   19014278.1714
      1097.529         855.217
 -11566698.138 9  -8729777.16047  21427685.859    21427687.6474   21427694.4984
       660.410         514.605
  12003032.096 8   9349306.899 8  23215359.959    23215362.274    23215370.659
     -2402.087       -1871.756
  -6173830.558 9  -4801233.07847  23084857.089    23084859.2794   23084866.3414
      -847.646        -660.503
   3235094.102 9   2520222.38247  21733091.498    21733093.3204   21733100.0514
      -844.044        -657.697
 96 10 31 18  8 29.9950000  0  9 25 21  3 17  1 31 28  9 23         -0.004130898
  -4483925.345 9  -3465257.08746  22776490.523    22776492.6324   22776500.4434
      4418.889        3443.290
  -8371994.295 9  -6377183.32848  19582291.349    19582293.0934   19582299.0424
       569.130         443.478
  -2461150.258 9  -1746148.46448  21257294.234    21257296.4544   21257303.1834
     -1370.854       -1068.198
  10056857.194 8   7833867.39945  23221175.730    23221177.3754   23221186.1684
     -2424.165       -1888.960
 -18193743.599 9 -14154840.35248  19008055.491    19008057.6484   19008063.7914
      1079.244         840.969
 -11586220.235 9  -8744989.18547  21423970.863    21423972.6694   21423979.5934
       640.676         499.228
  12075093.036 8   9405458.202 8  23229072.696    23229075.077    23229083.528
     -2402.311       -1871.931
  -6148125.423 9  -4781203.13747  23089748.591    23089750.8144   23089757.8924
      -866.233        -674.987
   3260486.121 9   2540008.34047  21737923.508    21737925.2724   21737931.9884
      -849.183        -661.701
 96 10 31 18  8 59.9950000  0  9 25 21  3 17  1 31 28  9 23         -0.004152233
  -4616445.530 9  -3568519.53046  22751273.079    22751274.9494   22751282.5964
      4416.400        3441.351
  -8388932.116 9  -6390381.63748  19579068.200    19579069.9374   19579075.9054
       560.643         436.865
  -2419830.632 9  -1713951.38048  21265157.129    21265159.3744   21265166.1024
     -1383.115       -1077.752
  10129710.416 8   7890636.02545  23235039.016    23235040.8194   23235049.8584
     -2432.313       -1895.309
 -18225842.271 9 -14179852.30448  19001947.322    19001949.4974   19001955.6154
      1061.086         826.820
 -11605142.372 9  -8759733.72447  21420370.141    21420371.9114   21420378.8214
       621.119         483.989
  12147168.781 8   9461621.021 7  23242788.210    23242790.688    23242799.166
     -2402.153       -1871.808
  -6121861.102 9  -4760737.46447  23094746.525    23094748.7954   23094755.8494
      -884.343        -689.098
   3286048.546 9   2559927.07047  21742787.931    21742789.6844   21742796.4164
      -854.548        -665.882
 96 10 31 18  9 29.9950000  0  9 25 21  3 17  1 31 28  9 23         -0.004173546
  -4748913.329 9  -3671741.14446  22726064.861    22726067.1454   22726074.7804
      4414.980        3440.244
  -8405627.998 9  -6403391.41948  19575891.063    19575892.8324   19575898.8014
       552.563         430.569
  -2378170.166 9  -1681488.71448  21273084.888    21273087.1324   21273093.8594
     -1394.138       -1086.341
  10202795.291 8   7947585.15445  23248946.229    23248948.5764   23248957.5154
     -2439.653       -1901.028
 -18257406.148 9 -14204447.53548  18995941.051    18995943.0734   18995949.2234
      1043.423         813.057
 -11623491.996 9  -8774032.14047  21416878.504    21416880.1354   21416886.9894
       602.099         469.168
  12219222.059 8   9517766.318 7  23256499.545    23256502.052    23256510.584
     -2401.193       -1871.059
  -6095062.333 9  -4739855.33747  23099846.129    23099848.4264   23099855.5434
      -901.849        -702.739
   3311752.133 9   2579955.80047  21747679.131    21747680.9284   21747687.6884
      -858.927        -669.294
 96 10 31 18  9 59.9950000  0  9 25 21  3 17  1 31 28  9 23         -0.004194817
  -4881306.162 9  -3774904.33046  22700871.607    22700873.6084   22700881.2444
      4412.472        3438.290
  -8422048.351 9  -6416186.50448  19572766.410    19572768.1604   19572774.1134
       543.259         423.319
  -2336139.539 9  -1648737.60748  21281083.131    21281085.3174   21281092.0774
     -1406.615       -1096.064
  10276134.357 8   8004732.36345  23262902.581    23262904.6154   23262913.4284
     -2448.188       -1907.679
 -18288398.791 9 -14228597.64948  18990043.433    18990045.3564   18990051.5194
      1024.128         798.022
 -11641220.516 9  -8787846.59947  21413504.903    21413506.5824   21413513.3234
       580.992         452.721
  12291280.82917   9573915.94417  23270211.847    23270214.3741   23270223.0081
     -2401.572       -1871.355
  -6067713.857 9  -4718544.86847  23105050.447    23105052.6724   23105059.8394
      -919.891        -716.798
   3337628.592 9   2600119.23047  21752603.296    21752605.1014   21752611.8694
      -864.855        -673.913
 96 10 31 18 10 29.9950000  0  8 25 21  3 17  1 31  9 23            -0.004216065
  -5013642.732 9  -3878023.67846  22675688.816    22675690.7714   22675698.4054
      4408.325        3435.058
  -8438202.701 9  -6428774.31548  19569692.319    19569694.0944   19569700.0194
       532.231         414.725
  -2293757.576 9  -1615712.72548  21289148.209    21289150.3714   21289157.1584
     -1420.488       -1106.874
  10349714.940 8   8062067.77445  23276905.019    23276906.7834   23276915.3594
     -2458.583       -1915.779
 -18318838.550 9 -14252316.94448  18984250.995    18984252.8454   18984259.0204
      1003.815         782.194
 -11658345.395 9  -8801190.67647  21410246.146    21410247.8694   21410254.5814
       559.016         435.597
  -6039860.284 9  -4696840.83847  23110350.912    23110353.0674   23110360.2474
      -938.457        -731.265
   3363654.065 9   2620398.77747  21757555.714    21757557.5974   21757564.3804
      -871.587        -679.159
 96 10 31 18 10 59.9950000  0  8 25 21  3 17  1 31  9 23            -0.004237284
  -5145906.488 9  -3981086.28346  22650519.693    22650521.7954   22650529.4304
      4407.555        3434.458
  -8454082.229 9  -6441147.98148  19566670.509    19566672.3154   19566678.2554
       524.787         408.925
  -2251015.229 9  -1582407.03248  21297281.839    21297283.9814   21297290.7664
     -1430.737       -1114.860
  10423534.802 8   8119589.63045  23290952.688    23290954.3634   23290963.1954
     -2464.245       -1920.191
 -18348728.843 9 -14275608.08648  18978563.103    18978564.9234   18978571.0934
       987.245         769.282
 -11674865.820 9  -8814063.74747  21407102.342    21407104.1144   21407110.8504
       540.504         421.172
  -6011509.677 9  -4674749.50947  23115745.830    23115748.0414   23115755.2074
      -953.283        -742.818
   3389816.386 9   2640784.96147  21762534.233    21762536.1464   21762542.9594
      -874.209        -681.202
 96 10 31 18 11 29.9950000  0  8 25 21  3 17  1 31  9 23            -0.004258484
  -5278105.447 9  -4084098.38546  22625363.085    22625365.1994   22625372.8064
      4405.388        3432.770
  -8469696.998 9  -6453315.33848  19563699.121    19563700.9434   19563706.8634
       515.851         401.962
  -2207922.203 9  -1548828.08648  21305482.191    21305484.3354   21305491.1064
     -1442.554       -1124.068
  10497557.367 8   8177269.44245  23305038.749    23305040.4864   23305049.3734
     -2470.775       -1925.279
 -18378083.374 9 -14298481.75548  18972977.091    18972978.9474   18972985.1334
       969.611         755.541
 -11690790.489 9  -8826472.58847  21404071.863    21404073.7714   21404080.4754
       520.830         405.841
  -5982676.358 9  -4652282.02347  23121232.646    23121234.8644   23121242.0464
      -969.104        -755.146
   3416094.622 9   2661261.46447  21767534.925    21767536.7514   21767543.5954
      -878.090        -684.226
 96 10 31 18 11 59.9950000  0  8 25 21  3 17  1 31  9 23            -0.004279656
  -5410220.074 9  -4187044.75946  22600222.573    22600224.5564   22600232.1564
      4402.372        3430.420
  -8485031.496 9  -6465264.30348  19560781.101    19560782.8984   19560788.8344
       506.531         394.699
  -2164460.975 9  -1514962.22848  21313752.610    21313754.7594   21313761.5184
     -1454.743       -1133.566
  10571779.583 8   8235104.81245  23319162.733    23319164.4674   23319173.4994
     -2477.331       -1930.388
 -18406904.780 9 -14320939.99948  18967492.566    18967494.4204   18967500.6264
       952.021         741.835
 -11706115.159 9  -8838413.90047  21401155.719    21401157.5994   21401164.2904
       501.079         390.451
  -5953362.175 9  -4629439.83547  23126811.031    23126813.2654   23126820.4064
      -985.168        -767.663
   3442508.882 9   2681843.96247  21772561.412    21772563.2464   21772570.1074
      -882.745        -687.853
 96 10 31 18 12 29.9950000  0  8 25 21  3 17  1 31  9 23            -0.004300795
  -5542238.932 9  -4289916.51946  22575099.819    22575102.0884   22575109.7164
      4398.896        3427.711
  -8500086.300 9  -6476995.33248  19557916.299    19557918.0694   19557924.0204
       497.274         387.486
  -2120634.064 9  -1480811.42448  21322092.603    21322094.7834   21322101.5814
     -1467.017       -1143.130
  10646196.699 8   8293092.05545  23333324.047    23333325.7724   23333334.7704
     -2483.575       -1935.253
 -18435207.767 9 -14342994.28248  18962106.709    18962108.5494   18962114.7364
       934.884         728.481
 -11720858.457 9  -8849902.19347  21398350.209    21398352.0594   21398358.7434
       481.804         375.432
  -5923563.744 9  -4606220.32347  23132481.562    23132483.7834   23132490.9064
     -1001.460        -780.358
   3469068.135 9   2702539.44547  21777615.466    21777617.3194   21777624.1974
      -887.925        -691.890
 96 10 31 18 12 59.9950000  0  8 25 21  3 17  1 31  9 23            -0.004321957
  -5674186.135 9  -4392732.44246  22549991.006    22549993.3124   22550000.9564
      4394.866        3424.571
  -8514905.482 9  -6488542.75348  19555096.317    19555098.0754   19555104.0454
       487.782         380.090
  -2076472.515 9  -1446399.86247  21330496.318    21330498.4564   21330505.2814
     -1479.835       -1153.118
  10720750.731 8   8351185.99245  23347511.245    23347513.1184   23347522.1224
     -2489.550       -1939.909
 -18463032.028 9 -14364675.52748  18956811.826    18956813.7624   18956819.9544
       917.146         714.659
 -11735052.578 9  -8860962.56447  21395649.036    21395650.9384   21395657.6774
       461.578         359.671
  -5893309.314 9  -4582645.47847  23138238.798    23138241.0504   23138248.1964
     -1018.383        -793.545
   3495753.595 9   2723333.26947  21782693.546    21782695.4364   21782702.3364
      -894.038        -696.653
 96 10 31 18 13 29.9950000  0  8 25 21  3 17  1 31  9 23            -0.004343018
  -5806002.490 9  -4495446.40446  22524907.326    22524909.5154   22524917.0654
      4391.548        3421.985
  -8529432.716 9  -6499862.68548  19552331.886    19552333.6414   19552339.6214
       479.399         373.558
  -2031923.075 9  -1411686.04947  21338973.828    21338975.9234   21338982.7734
     -1491.330       -1162.075
  10795495.975 8   8409428.92145  23361735.277    23361736.7054   23361745.7854
     -2494.879       -1944.062
 -18490315.391 9 -14385935.29748  18951619.881    18951621.9204   18951628.1034
       900.494         701.684
 -11748636.405 9  -8871547.39347  21393064.209    21393066.0894   21393072.7674
       442.664         344.933
  -5862536.650 9  -4558666.81547  23144094.691    23144096.9124   23144104.1184
     -1034.432        -806.051
   3522636.064 9   2744280.60147  21787809.144    21787811.0604   21787817.9404
      -899.406        -700.836
 96 10 31 18 13 59.9950000  0  8 25 21  3 17  1 31  9 23            -0.004364046
  -5937726.043 9  -4598088.05046  22499840.855    22499843.3354   22499850.8724
      4389.618        3420.482
  -8543719.311 9  -6510995.10648  19549613.232    19549615.0164   19549620.9874
       472.648         368.297
  -1987045.143 9  -1376716.26947  21347513.784    21347515.9084   21347522.7994
     -1500.963       -1169.582
  10870394.123 8   8467791.01445  23375988.247    23375989.5384   23375998.5214
     -2498.927       -1947.216
 -18517112.220 9 -14406815.94648  18946520.555    18946522.6834   18946528.8294
       885.386         689.911
 -11761667.466 9  -8881701.47447  21390584.557    21390586.3124   21390593.0534
       425.400         331.481
  -5831286.304 9  -4534315.90047  23150041.444    23150043.6374   23150050.9074
     -1049.421        -817.731
   3549669.927 9   2765345.90747  21792953.606    21792955.4514   21792962.3464
      -903.159        -703.760
 96 10 31 18 14 29.9950000  0  8 25 21  3 17  1 31  9 23            -0.004385046
  -6069367.865 9  -4700666.00746  22474789.609    22474792.5694   22474800.1694
      4386.933        3418.389
  -8557779.276 9  -6521950.93048  19546937.726    19546939.4834   19546945.4874
       465.072         362.394
  -1941855.143 9  -1341503.32547  21356113.114    21356115.2954   21356122.1604
     -1511.310       -1177.644
  10945441.731 8   8526269.56645  23390269.383    23390270.5964   23390279.7124
     -2503.856       -1951.057
 -18543431.990 9 -14427324.85948  18941512.102    18941514.2454   18941520.3674
       869.581         677.596
 -11774149.570 9  -8891427.79647  21388209.247    21388211.0534   21388217.8074
       406.971         317.120
  -5799559.487 9  -4509593.75746  23156079.055    23156081.1114   23156088.3274
     -1065.322        -830.121
   3576830.284 9   2786509.78347  21798122.153    21798123.9074   21798130.8364
      -907.146        -706.867
 96 10 31 18 14 59.9950000  0  8 25 21  3 17  1 31  9 23            -0.004406003
  -6200907.899 9  -4803164.64846  22449758.538    22449761.2904   22449768.8514
      4383.720        3415.886
  -8571585.798 9  -6532709.26848  19544310.414    19544312.2144   19544318.2054
       456.468         355.689
  -1896332.702 9  -1306031.33247  21364775.736    21364777.9384   21364784.8844
     -1522.266       -1186.181
  11020659.393 8   8584880.61845  23404582.672    23404584.2124   23404593.2024
     -2509.652       -1955.573
 -18569251.859 9 -14447444.23648  18936598.792    18936600.9214   18936607.0164
       852.882         664.583
 -11786045.677 9  -8900697.52347  21385945.416    21385947.2744   21385954.0314
       387.256         301.758
  -5767330.348 9  -4484480.16747  23162212.110    23162214.0784   23162221.3644
     -1082.072        -843.173
   3604126.967 9   2807779.88247  21803316.460    21803318.2834   21803325.2804
      -911.372        -710.160
 96 10 31 18 15 29.9950000  0  8 25 21  3 17  1 31  9 23            -0.004426932
  -6332366.378 9  -4905599.76146  22424743.018    22424745.5354   22424753.0984
      4380.662        3413.503
  -8585145.382 9  -6543275.18848  19541730.113    19541731.9324   19541737.9224
       448.048         349.128
  -1850497.612 9  -1270315.71447  21373497.898    21373500.0504   21373507.0484
     -1532.965       -1194.518
  11096051.648 8   8643627.72745  23418929.567    23418930.9894   23418939.9794
     -2516.010       -1960.527
 -18594581.416 9 -14467181.55548  18931778.751    18931780.8684   18931786.9464
       836.266         651.636
 -11797369.435 9  -8909521.22047  21383790.514    21383792.3554   21383799.2774
       368.034         286.780
  -5734610.586 9  -4458984.28946  23168438.391    23168440.5114   23168447.7504
     -1098.723        -856.148
   3631534.766 9   2829136.57047  21808532.075    21808533.8224   21808540.8214
      -915.300        -713.221
 96 10 31 18 15 59.9950000  0  8 25 21  3 17  1 31  9 23            -0.004447822
  -6463730.509 9  -5007961.34946  22399745.318    22399747.7424   22399755.2864
      4377.957        3411.395
  -8598444.761 9  -6553638.35148  19539199.309    19539201.1624   19539207.1484
       439.632         342.570
  -1804328.599 9  -1234339.90647  21382283.480    21382285.7224   21382292.7584
     -1543.957       -1203.083
  11171639.289 8   8702527.07045  23433313.214    23433315.0394   23433323.8624
     -2522.209       -1965.358
 -18619402.196 9 -14486522.42248  18927055.448    18927057.6384   18927063.7124
       819.355         638.458
 -11808105.648 9  -8917887.13247  21381747.595    21381749.3854   21381756.3284
       348.651         271.676
  -5701385.125 9  -4433094.39347  23174761.110    23174763.1434   23174770.3904
     -1115.165        -868.960
   3659068.113 9   2850591.08947  21813771.486    21813773.2884   21813780.3004
      -919.224        -716.278
 96 10 31 18 16 29.9950000  0  8 25 21  3 17  1 31  9 23            -0.004468701
  -6595039.644 9  -5110280.08946  22374758.086    22374760.3884   22374767.8224
      4376.020        3409.886
  -8611513.081 9  -6563821.46948  19536712.528    19536714.3514   19536720.3584
       431.615         336.323
  -1757855.521 9  -1198127.16247  21391127.140    21391129.2994   21391136.2984
     -1554.208       -1211.071
  11247386.125 8   8761550.46945  23447727.203    23447729.2994   23447738.2014
     -2527.388       -1969.393
 -18643737.552 9 -14505485.03648  18922424.641    18922426.7684   18922432.8204
       802.947         625.673
 -11818283.628 9  -8925818.03947  21379810.934    21379812.6334   21379819.5874
       329.933         257.091
  -5667702.570 9  -4406848.26947  23181170.564    23181172.7224   23181179.9714
     -1130.271        -880.731
   3686696.396 9   2872119.57247  21819029.097    21819030.8394   21819037.8294
      -922.734        -719.014
 96 10 31 18 16 59.9950000  0  8 25 21  3 17  1 31  9 23            -0.004489583
  -6726306.857 9  -5212566.16346  22349778.663    22349780.9614   22349788.4134
      4375.756        3409.680
  -8624362.136 9  -6573833.72948  19534267.482    19534269.2764   19534275.2824
       425.633         331.662
  -1711093.210 9  -1161689.03347  21400025.727    21400027.8934   21400034.9014
     -1562.632       -1217.635
  11323275.815 8   8820685.18545  23462168.255    23462170.6274   23462179.7084
     -2531.136       -1972.314
 -18667589.194 9 -14524070.73148  18917885.878    18917887.9714   18917894.0254
       787.770         613.847
 -11827920.529 9  -8933327.33047  21377977.150    21377978.8434   21377985.7254
       313.282         244.116
  -5633584.879 9  -4380263.13547  23187663.055    23187665.2034   23187672.4104
     -1143.475        -891.019
   3714417.953 9   2893720.74347  21824304.285    21824306.0964   21824313.0884
      -924.683        -720.532
 96 10 31 18 17 29.9950000  0  8 25 21  3 17  1 31  9 23            -0.004510495
  -6857549.725 9  -5314833.26546  22324803.751    22324806.2184   22324813.6564
      4373.091        3407.603
  -8637032.484 9  -6583706.73648  19531856.417    19531858.2344   19531864.2234
       418.460         326.073
  -1664068.458 9  -1125046.41247  21408974.270    21408976.4354   21408983.4694
     -1572.859       -1225.604
  11399279.312 8   8879908.56845  23476631.679    23476633.7254   23476642.7764
     -2536.350       -1976.377
 -18690974.863 9 -14542293.32748  18913435.872    18913437.8404   18913443.8944
       770.793         600.618
 -11837059.986 9  -8940449.01147  21376237.840    21376239.6474   21376246.4884
       295.249         230.064
  -5599071.003 9  -4353369.25947  23194230.742    23194233.0234   23194240.2284
     -1157.959        -902.306
   3742210.014 9   2915376.86247  21829592.967    21829594.8114   21829601.8024
      -928.711        -723.671
 96 10 31 18 17 59.9950000  0  8 25 21  3 17  1 31  9 23            -0.004531376
  -6988669.384 9  -5417004.37246  22299853.000    22299854.9524   22299862.3554
      4368.902        3404.339
  -8649448.328 9  -6593381.43448  19529493.774    19529495.5814   19529501.5974
       410.030         319.504
  -1616698.627 9  -1088134.89247  21417988.451    21417990.6304   21417997.7084
     -1584.124       -1234.382
  11475476.651 8   8939283.01445  23491131.045    23491133.5504   23491142.5934
     -2542.584       -1981.234
 -18713816.576 9 -14560092.06648  18909089.189    18909091.2024   18909097.2294
       752.807         586.603
 -11845614.221 9  -8947114.65947  21374610.106    21374611.8794   21374618.7504
       275.806         214.914
  -5564088.659 9  -4326110.29846  23200887.673    23200889.9274   23200897.2074
     -1173.312        -914.269
   3770160.286 9   2937156.26247  21834911.765    21834913.6064   21834920.6234
      -933.834        -727.663
 96 10 31 18 18 29.9950000  0  8 25 21  3 17  1 31  9 23            -0.004552228
  -7119653.563 9  -5519069.91246  22274927.422    22274929.4064   22274936.8834
      4363.558        3400.175
  -8661607.325 9  -6602855.99348  19527179.999    19527181.7884   19527187.8114
       400.976         312.449
  -1568994.515 9  -1050962.90147  21427066.303    21427068.4524   21427075.5624
     -1595.913       -1243.569
  11551860.275 8   8998802.61645  23505666.866    23505668.9274   23505677.9504
     -2549.539       -1986.654
 -18736113.653 9 -14577466.41748  18904846.164    18904848.2154   18904854.2364
       734.090         572.018
 -11853576.227 9  -8953318.84347  21373095.110    21373096.8164   21373103.6774
       255.190         198.849
  -5528642.922 9  -4298490.31047  23207632.975    23207635.0844   23207642.3464
     -1189.526        -926.903
   3798270.959 9   2959060.64247  21840261.000    21840262.9184   21840269.9794
      -939.816        -732.324
 96 10 31 18 18 59.9950000  0  8 25 21  3 17  1 31  9 23            -0.004573021
  -7250457.016 9  -5620994.63046  22250036.197    22250038.2384   22250045.7694
      4358.620        3396.327
  -8673487.807 9  -6612113.52148  19524919.228    19524921.0144   19524927.0394
       392.786         306.067
  -1520919.945 9  -1013502.23647  21436214.505    21436216.7364   21436223.8784
     -1607.176       -1252.345
  11628475.636 8   9058502.77945  23520246.622    23520248.5364   23520257.6924
     -2556.239       -1991.875
 -18757841.209 9 -14594396.98048  18900711.611    18900713.6124   18900719.6214
       716.390         558.226
 -11860906.904 9  -8959031.06947  21371700.006    21371701.7534   21371708.6564
       235.374         183.408
  -5492690.565 9  -4270475.52347  23214474.392    23214476.6494   23214483.9014
     -1205.284        -939.182
   3826574.254 9   2981115.11847  21845647.011    21845648.8794   21845655.9664
      -945.138        -736.471
 96 10 31 18 19 29.9950000  0  8 25 21  3 17  1 31  9 23            -0.004593783
  -7381133.888 9  -5722820.70946  22225169.251    22225171.1714   22225178.7154
      4354.921        3393.445
  -8685133.751 9  -6621188.29348  19522703.083    19522704.8734   19522710.9044
       385.282         300.220
  -1472535.407 9   -975800.03447  21445421.871    21445424.0234   21445431.2164
     -1616.692       -1259.760
  11705271.331 8   9118343.46245  23534860.531    23534862.3504   23534871.6724
     -2561.833       -1996.234
 -18779065.776 9 -14610935.60348  18896672.723    18896674.7134   18896680.7274
       700.422         545.783
 -11867662.055 9  -8964294.83947  21370414.555    21370416.3214   21370423.2144
       216.570         168.756
  -5456289.520 9  -4242111.12147  23221401.353    23221403.5654   23221410.8494
     -1219.771        -950.471
   3855015.323 9   3003276.95447  21851059.017    21851061.0194   21851068.1784
      -949.201        -739.637
 96 10 31 18 19 59.9950000  0  8 25 21  3 17  1 31  9 23            -0.004614521
  -7511702.209 9  -5824562.21846  22200322.738    22200324.8014   22200332.3374
      4350.766        3390.207
  -8696543.708 9  -6630079.18348  19520531.807    19520533.6624   19520539.6844
       376.491         293.370
  -1423868.764 9   -937878.02147  21454682.815    21454685.0544   21454692.2314
     -1626.630       -1267.504
  11782236.489 8   9178316.17045  23549506.296    23549508.1424   23549517.8814
     -2568.059       -2001.085
 -18799809.915 9 -14627099.87548  18892725.249    18892727.2564   18892733.2564
       683.517         532.611
 -11873858.386 9  -8969123.16747  21369235.500    21369237.2414   21369244.1064
       197.638         154.004
  -5419447.204 9  -4213402.83947  23228412.205    23228414.4384   23228421.7524
     -1235.164        -962.465
   3883581.581 9   3025536.34547  21856495.041    21856497.0444   21856504.1554
      -954.138        -743.484
 96 10 31 18 20 29.9950000  0  8 25 21  3 17  1 31  9 23            -0.004635239
  -7642163.720 9  -5926220.50246  22175496.504    22175498.8294   22175506.2984
      4347.042        3387.305
  -8707699.689 9  -6638772.16448  19518408.938    19518410.7514   19518416.7784
       367.604         286.445
  -1374917.794 9   -899734.44047  21463997.981    21464000.1554   21464007.3554
     -1636.427       -1275.138
  11859377.419 8   9238425.84245  23564185.753    23564187.5774   23564197.2724
     -2574.389       -2006.017
 -18820057.025 9 -14642876.84148  18888872.257    18888874.3494   18888880.3464
       666.664         519.478
 -11879505.049 9  -8973523.17447  21368160.893    21368162.6934   21368169.6044
       179.251         139.676
  -5382157.504 9  -4184345.97646  23235508.180    23235510.4584   23235517.7874
     -1250.452        -974.378
   3912286.697 9   3047903.93747  21861957.538    21861959.5054   21861966.5984
      -959.101        -747.351
 96 10 31 18 20 59.9950000  0  8 25 21  3 17  1 31  9 23            -0.004655943
  -7772516.833 9  -6027794.31146  22150691.018    22150693.3974   22150700.8464
      4344.947        3385.673
  -8718589.779 9  -6647257.96148  19516336.654    19516338.4324   19516344.4714
       359.906         280.446
  -1325680.540 9   -861367.78947  21473367.483    21473369.6794   21473376.9494
     -1644.288       -1281.263
  11936707.169 8   9298682.64345  23578901.766    23578902.8834   23578912.6934
     -2579.033       -2009.636
 -18839800.503 9 -14658261.37348  18885115.176    18885117.2974   18885123.2704
       651.130         507.374
 -11884619.654 9  -8977508.60747  21367187.691    21367189.4854   21367196.3474
       163.279         127.230
  -5344415.342 9  -4154936.52946  23242690.316    23242692.6114   23242699.9184
     -1264.028        -984.957
   3941132.533 9   3070381.17547  21867446.820    21867448.7374   21867455.8354
      -962.415        -749.934
 96 10 31 18 21 29.9950000  0  8 25 21  3 17  1 31  9 23            -0.004676688
  -7902832.496 9  -6129338.94046  22125892.546    22125895.0964   22125902.5114
      4341.819        3383.236
  -8729273.391 9  -6655582.86048  19514303.624    19514305.4394   19514311.4624
       351.650         274.013
  -1276240.887 9   -822843.41847  21482775.540    21482777.7584   21482785.0444
     -1652.613       -1287.750
  12014135.613 8   9359016.34845  23593636.029    23593637.1574   23593646.7884
     -2583.646       -2013.231
 -18859102.514 9 -14673301.90048  18881442.315    18881444.2314   18881450.2224
       634.846         494.685
 -11889285.609 9  -8981144.42847  21366299.841    21366301.6074   21366308.4774
       146.806         114.394
  -5306297.082 9  -4125234.06746  23249944.006    23249946.2634   23249953.5424
     -1278.149        -995.960
   3970050.771 9   3092914.82947  21872949.869    21872951.7664   21872958.8474
      -966.377        -753.021
 96 10 31 18 21 59.9950000  0  8 25 21  3 17  1 31  9 23            -0.004697387
  -8032965.241 9  -6230741.04746  22101129.458    22101131.6134   22101138.9954
      4335.494        3378.307
  -8739626.471 9  -6663650.20248  19512333.486    19512335.3244   19512341.3444
       340.404         265.250
  -1226459.582 9   -784052.83347  21492248.637    21492250.8354   21492258.1574
     -1664.311       -1296.866
  12091786.664 8   9419523.51045  23608411.939    23608413.7584   23608423.3754
     -2591.091       -2019.032
 -18877823.129 9 -14687889.39448  18877879.987    18877881.8274   18877887.8254
       615.077         479.281
 -11893372.048 9  -8984328.69147  21365522.237    21365524.0174   21365530.8734
       127.412          99.282
  -5267664.416 8  -4095130.67445  23257295.705    23257297.7844   23257305.2174
     -1295.358       -1009.370
   3999178.199 9   3115611.49947  21878492.702    21878494.5644   21878501.6684
      -973.560        -758.618
 96 10 31 18 22 29.9950000  0  8 25 21  3 17  1 31  9 23            -0.004718079
  -8162986.485 9  -6332056.26247  22076387.057    22076389.3484   22076396.7444
      4333.892        3377.059
  -8749719.032 9  -6671514.54348  19510412.956    19510414.7924   19510420.7934
       333.833         260.130
  -1176410.572 9   -745053.64047  21501772.800    21501774.9274   21501782.2184
     -1671.047       -1302.115
  12169580.895 8   9480142.23145  23623216.373    23623217.9174   23623227.1954
     -2593.801       -2021.144
 -18896037.532 9 -14702082.44448  18874413.873    18874415.7524   18874421.7604
       600.767         468.130
 -11896951.218 9  -8987117.68547  21364841.125    21364842.9464   21364849.8064
       112.496          87.659
  -5228598.360 8  -4064689.66455  23264729.600    23264732.2034   23264739.0445
     -1307.763       -1019.036
   4028435.405 9   3138409.28647  21884060.160    21884062.0244   21884069.2124
      -975.536        -760.158
 96 10 31 18 22 59.9950000  0  8 25 21  3 17  1 31  9 23            -0.004738809
  -8292938.684 9  -6433317.67146  22051657.954    22051660.2504   22051667.6434
      4329.894        3373.943
  -8759597.575 9  -6679212.11348  19508533.170    19508534.9854   19508541.0004
       325.048         253.284
  -1126138.661 9   -705880.76047  21511339.216    21511341.3814   21511348.7054
     -1680.029       -1309.114
  12247468.181 8   9540833.46945  23638038.209    23638039.6114   23638048.7594
     -2598.257       -2024.616
 -18913816.483 9 -14715936.17148  18871030.538    18871032.5374   18871038.5394
       584.987         455.834
 -11900061.829 9  -8989541.53647  21364249.241    21364251.0694   21364257.9574
        95.088          74.094
  -5189135.668 8  -4033939.53545  23272239.112    23272241.6324   23272248.6884
     -1322.572       -1030.576
   4057770.155 9   3161267.49647  21889642.500    21889644.2584   21889651.4694
      -979.807        -763.486
 96 10 31 18 23 29.9950000  0  8 25 21  3 17  1 31  9 23            -0.004759505
  -8422768.621 9  -6534483.80547  22026952.395    22026954.3774   22026961.8574
      4324.722        3369.913
  -8769213.368 9  -6686704.94548  19506703.353    19506705.1774   19506711.1844
       315.498         245.843
  -1075601.227 9   -666500.99247  21520956.248    21520958.4064   21520965.6844
     -1689.785       -1316.716
  12325481.342 8   9601622.80345  23652883.111    23652885.1454   23652894.5824
     -2603.386       -2028.612
 -18931138.718 9 -14729434.02348  18867734.257    18867736.2344   18867742.2094
       569.242         443.565
 -11902648.091 9  -8991556.84547  21363757.120    21363758.9674   21363765.7754
        76.679          59.750
  -5149236.850 7  -4002849.60545  23279831.610    23279833.8804   23279840.9844
     -1337.885       -1042.508
   4087229.649 9   3184222.90747  21895248.557    21895250.2744   21895257.4344
      -984.735        -767.326
 96 10 31 18 23 59.9950000  0  8 25 21  3 17  1 31  9 23            -0.004780144
  -8552439.501 9  -6635525.99947  22002276.820    22002278.8134   22002286.2964
      4321.083        3367.078
  -8778543.146 9  -6693974.90448  19504927.984    19504929.7774   19504935.8204
       307.486         239.599
  -1024775.239 9   -626896.36547  21530628.151    21530630.3024   21530637.5754
     -1697.586       -1322.794
  12403660.135 8   9662541.18945  23667760.186    23667762.4154   23667771.6004
     -2607.552       -2031.859
 -18947990.398 9 -14742565.20748  18864527.610    18864529.4624   18864535.4484
       555.093         432.540
 -11904678.116 9  -8993138.69347  21363370.889    21363372.6834   21363379.5034
        59.662          46.490
  -5108875.50117  -3971399.21255  23287512.265    23287513.3285          0.0005
     -1351.763       -1053.322
   4116836.612 9   3207293.22947  21900882.577    21900884.3454   21900891.4674
      -988.061        -769.918
 96 10 31 18 24 29.9950000  0  8 25 21  3 17  1 31  9 23            -0.004800755
  -8682007.098 9  -6736487.71547  21977620.523    21977622.9274   21977630.3814
      4315.883        3363.026
  -8787643.432 9  -6701066.04448  19503196.250    19503198.0794   19503204.1094
       298.514         232.608
   -973728.917 9   -587120.05347  21540341.966    21540344.1264   21540351.4024
     -1706.405       -1329.666
  12481955.944 8   9723550.75845  23682659.444    23682661.8874   23682671.1454
     -2612.937       -2036.055
 -18964432.114 9 -14755376.94348  18861398.845    18861400.7294   18861406.6944
       540.157         420.901
 -11906201.868 9  -8994326.05447  21363080.904    21363082.6544   21363089.5474
        41.025          31.968
  -5068107.78716  -3939632.20654  23295270.566    23295271.5155          0.0005
     -1367.058       -1065.240
   4146536.501 9   3230435.95747  21906534.427    21906536.1244   21906543.2434
      -992.745        -773.567
 96 10 31 18 24 59.9950000  0  8 25 21  3 17  1 31  9 23            -0.004821319
  -8811428.527 9  -6837335.52247  21952992.427    21952994.9064   21953002.2524
      4310.773        3359.044
  -8796506.236 9  -6707972.13048  19501509.776    19501511.5664   19501517.6084
       291.002         226.755
   -922433.975 9   -547150.00847  21550103.013    21550105.2494   21550112.5644
     -1714.608       -1336.058
  12560380.693 8   9784660.80745  23697583.528    23697585.5414   23697594.8614
     -2616.840       -2039.096
 -18980434.192 9 -14767846.09848  18858353.650    18858355.6554   18858361.6074
       525.045         409.126
 -11907179.627 9  -8995087.96247  21362894.894    21362896.6674   21362903.5334
        22.721          17.705
  -5026895.78417  -3907519.02554  23303113.245           0.0005          0.0005
     -1381.675       -1076.630
   4176359.121 9   3253674.31747  21912209.555    21912211.2224   21912218.3724
      -996.767        -776.702
 96 10 31 18 25 29.9950000  0  8 25 21  3 17  1 31  9 23            -0.004841825
  -8940648.897 9  -6938026.65447  21928402.869    21928405.0674   21928412.4304
      4305.598        3355.011
  -8805095.101 9  -6714664.76248  19499875.328    19499877.1714   19499883.2014
       283.234         220.702
   -870846.233 9   -506951.82147  21559919.877    21559922.1274   21559929.4224
     -1723.142       -1342.708
  12638974.387 8   9845902.49945  23712539.886    23712541.6124   23712551.0754
     -2621.298       -2042.570
 -18995921.967 9 -14779914.50348  18855406.420    18855408.4434   18855414.3904
       508.715         396.401
 -11907556.407 9  -8995381.58747  21362823.294    21362825.0414   21362831.8224
         3.802           2.963
  -4985200.85317     13879.41252  23311047.623           0.0005          0.0005
     -1396.548       -1088.219
   4206349.993 9   3277043.78347  21917916.624    21917918.3384   21917925.4814
     -1000.992        -779.994
 96 10 31 18 25 59.9950000  0  8 25 21  3 17  1 31  9 23            -0.004862357
  -9069780.230 9  -7038648.39747  21903829.802    21903832.1084   21903839.5184
      4302.114        3352.297
  -8813519.055 9  -6721228.88948  19498272.313    19498274.1324   19498280.1924
       277.014         215.855
   -819059.723 9   -466598.73647  21569774.523    21569776.7954   21569784.1214
     -1730.472       -1348.420
  12717639.659 8   9907199.96645  23727509.127    23727511.3014   23727520.7574
     -2624.130       -2044.777
 -19010966.805 9 -14791637.75948  18852543.579    18852545.4974   18852551.4394
       493.114         384.245
 -11907429.841 9  -8995282.98047  21362847.319    21362849.0994   21362855.9424
       -13.388         -10.432
  -4943116.07116     46692.46354  23319055.658           0.0005          0.0005
     -1409.963       -1098.672
   4236409.372 9   3300466.63747  21923636.795    21923638.5024   21923645.6294
     -1004.061        -782.385
 96 10 31 18 26 29.9950000  0  6 25 21  3  1 31 23                  -0.004882865
  -9198750.566 9  -7139144.69147  21879287.615    21879289.8404   21879297.1794
      4295.473        3347.122
  -8821683.255 9  -6727590.61648  19496718.778    19496720.5524   19496726.6114
       267.016         208.064
   -766981.973 9   -426018.72647  21579684.710    21579686.8944   21579694.1794
     -1741.579       -1357.075
 -19025485.641 9 -14802951.14248  18849780.752    18849782.6494   18849788.6094
       474.602         369.820
 -11906730.314 9  -8994737.91447  21362980.486    21362982.2564   21362989.0914
       -33.520         -26.119
   4266616.697 9   3324004.76347  21929385.198    21929386.8324   21929393.9094
     -1009.969        -786.989
 96 10 31 18 26 59.9950000  0  6 25 21  3  1 31 23                  -0.004903368
  -9327577.186 9  -7239529.00547  21854772.759    21854774.9734   21854782.2424
      4292.167        3344.546
  -8829596.514 9  -6733756.80348  19495212.957    19495214.7224   19495220.8044
       259.463         202.179
   -714631.616 9   -385226.28147  21589646.827    21589648.8874   21589656.1484
     -1749.119       -1362.950
 -19039498.014 9 -14813869.88248  18847114.338    18847116.2074   18847122.1414
       458.792         357.500
 -11905488.180 9  -8993770.04147  21363216.843    21363218.6174   21363225.4154
       -50.123         -39.057
   4296946.679 9   3347638.46547  21935156.876    21935158.4944   21935165.5704
     -1012.915        -789.284
 96 10 31 18 27 29.9950000  0  6 25 21  3  1 31 23                  -0.004923881
  -9456303.321 9  -7339835.02147  21830277.262    21830279.2304   21830286.3684
      4289.275        3342.292
  -8837259.785 9  -6739728.19248  19493754.671    19493756.4444   19493762.5264
       251.057         195.629
   -662053.948 9   -344256.71647  21599652.012    21599654.1304   21599661.4284
     -1756.235       -1368.495
 -19053036.562 9 -14824419.40048  18844537.983    18844539.9024   18844545.8394
       443.610         345.670
 -11903748.833 9  -8992414.72947  21363547.850    21363549.6114   21363556.4014
       -66.095         -51.503
   4327373.289 9   3371347.46547  21940946.954    21940948.5684   21940955.5884
     -1015.908        -791.617
 96 10 31 18 27 59.9950000  0  6 25 21  3  1 31 23                  -0.004944393
  -9584918.999 9  -7440054.97047  21805802.394    21805804.4034   21805811.5124
      4284.961        3338.931
  -8844653.713 9  -6745489.70748  19492347.678    19492349.4464   19492355.5244
       241.928         188.515
   -609255.665 9   -303115.25347  21609699.199    21609701.4084   21609708.6544
     -1763.546       -1374.192
 -19066115.939 9 -14834611.12948  18842049.015    18842050.9944   18842056.9624
       428.633         334.000
 -11901525.928 9  -8990682.62147  21363970.872    21363972.6534   21363979.4244
       -82.011         -63.905
   4357907.510 9   3395140.30647  21946757.543    21946759.0324   21946766.0984
     -1019.707        -794.577
 96 10 31 18 28 29.9950000  0  6 25 21  3  1 31 23                  -0.004964866
  -9713365.511 9  -7540143.09447  21781359.790    21781361.8734   21781368.9294
      4278.974        3334.265
  -8851747.107 9  -6751017.03548  19490997.907    19490999.6414   19491005.7224
       232.279         180.997
   -556213.429 9   -261783.68447  21619792.894    21619795.0714   21619802.3144
     -1771.530       -1380.413
 -19078730.924 9 -14844440.98948  18839648.406    18839650.4374   18839656.4234
       413.266         322.025
 -11898797.693 9  -8988556.74047  21364490.149    21364491.8484   21364498.6154
       -99.093         -77.215
   4388591.747 9   3419050.05047  21952596.600    21952598.0824   21952605.1524
     -1025.015        -798.713
 96 10 31 18 28 59.9950000  0  6 25 21  3  1 31 23                  -0.004985315
  -9841659.987 9  -7640112.76547  21756946.077    21756948.2844   21756955.2404
      4274.170        3330.522
  -8858599.061 9  -6756356.23448  19489694.008    19489695.7774   19489701.8564
       224.604         175.016
   -502973.365 9   -220297.97647  21629924.158    21629926.3754   21629933.6374
     -1777.744       -1385.255
 -19090914.820 9 -14853934.93248  18837329.941    18837331.9074   18837337.9044
       399.203         311.067
 -11895583.063 9  -8986051.86047  21365101.867    21365103.5754   21365110.3534
      -115.020         -89.626
   4419411.896 9   3443065.69547  21958461.337    21958463.0244   21958470.0684
     -1029.560        -802.255
 96 10 31 18 29 29.9950000  0  6 25 21  3  1 31 23                  -0.005005712
  -9969767.517 9  -7739936.77247  21732567.984    21732570.2064   21732577.0784
      4267.042        3324.968
  -8865188.167 9  -6761490.62048  19488440.197    19488441.9484   19488448.0134
       215.522         167.939
   -449498.850 9   -178629.57647  21640100.082    21640102.2734   21640109.5224
     -1786.563       -1392.127
 -19102643.692 9 -14863074.31648  18835098.021    18835100.0054   18835105.9624
       383.339         298.706
 -11891854.771 9  -8983146.71947  21365811.397    21365813.0774   21365819.8634
      -132.775        -103.461
   4450408.162 9   3467218.57947  21964359.585    21964361.4544   21964368.5124
     -1036.154        -807.393
 96 10 31 18 29 59.9940000  0  6 25 21  3  1 31 23                  -0.005026081
 -10097700.390 9  -7839624.69347  21708223.005    21708225.3064   21708232.1494
      4263.266        3322.025
  -8871565.342 9  -6766459.86148  19487226.659    19487228.4274   19487234.4974
       210.754         164.224
   -395806.356 9   -136791.29947  21650317.513    21650319.6404   21650326.9384
     -1791.928       -1396.308
 -19113944.218 9 -14871879.91748  18832947.682    18832949.5974   18832955.5434
       371.155         289.212
 -11887646.179 9  -8979867.32247  21366612.375    21366614.0194   21366620.7604
      -146.722        -114.329
   4481553.289 9   3491487.45647  21970286.274    21970288.2044   21970295.2984
     -1038.990        -809.603
 96 10 31 18 30 29.9940000  0  6 25 21  3  1 31 23                  -0.005046445
 -10225489.447 9  -7939200.54547  21683905.557    21683907.8684   21683914.6924
      4257.471        3317.510
  -8877759.468 9  -6771286.46748  19486047.954    19486049.7484   19486055.8214
       203.481         158.557
   -341908.497 9    -94793.02147  21660573.986    21660576.0584   21660583.4084
     -1799.774       -1402.421
 -19124833.642 9 -14880365.17948  18830875.403    18830877.3984   18830883.3314
       355.976         277.384
 -11882969.414 9  -8976223.11747  21367502.289    21367504.0084   21367510.7374
      -163.981        -127.777
   4512813.447 9   3515845.97147  21976234.973    21976236.8624   21976243.9924
     -1043.577        -813.177
 96 10 31 18 30 59.9940000  0  6 25 21  3  1 31 23                  -0.005066803
 -10353130.824 9  -8038661.33147  21659616.203    21659618.5164   21659625.3614
      4250.966        3312.441
  -8883744.576 9  -6775950.20448  19484909.073    19484910.8354   19484916.9194
       194.162         151.295
   -287799.388 9    -52630.13547  21670870.526    21670872.6924   21670880.0854
     -1808.654       -1409.341
 -19135274.784 9 -14888501.12648  18828888.621    18828890.5134   18828896.4484
       338.933         264.104
 -11877787.444 9  -8972185.23447  21368488.340    21368490.1014   21368496.8494
      -182.526        -142.228
   4544184.236 9   3540290.68947  21982204.717    21982206.5604   21982213.7094
     -1048.754        -817.211
 96 10 31 18 31 29.9940000  0  6 25 21  3  1 31 23                  -0.005087154
 -10480606.864 9  -8137993.27547  21635358.630    21635360.5914   21635367.4834
      4246.347        3308.842
  -8889468.825 9  -6780410.67348  19483819.831    19483821.5754   19483827.6524
       186.408         145.253
   -233453.316 9    -10282.60047  21681212.183    21681214.4484   21681221.8484
     -1815.409       -1414.604
 -19145226.668 9 -14896255.83948  18826994.672    18826996.7154   18827002.6594
       323.358         251.967
 -11872076.999 9  -8967735.56047  21369574.993    21369576.7704   21369583.5634
      -199.331        -155.323
   4575669.198 9   3564824.36547  21988196.121    21988197.9824   21988205.1214
     -1051.309        -819.202
 96 10 31 18 31 59.9940000  0  7 25 21  3  1 31 15 23               -0.005107506
 -10607916.547 9  -8237195.59347  21611131.969    21611134.3044   21611141.1714
      4240.801        3304.520
  -8894933.898 9  -6784669.18948  19482779.864    19482781.6284   19482787.6984
       177.761         138.515
   -178881.752 9     32240.65047  21691596.797    21691599.1314   21691606.5514
     -1822.625       -1420.227
 -19154683.986 9 -14903625.17748  18825195.133    18825197.0484   18825202.9884
       307.219         239.391
 -11865831.023 9  -8962868.58347  21370763.504    21370765.3634   21370772.1644
      -217.157        -169.213
   -382392.61019   -282322.47655  21964818.478           0.0005   21964825.9855
      4504.686        3510.145
   4607258.262 9   3589439.17047  21994207.331    21994209.2224   21994216.4114
     -1054.634        -821.793
 96 10 31 18 32 29.9940000  0  7 25 21  3  1 31 15 23               -0.005127856
 -10735077.557 9  -8336282.06147  21586934.086    21586936.3364   21586943.1184
      4235.943        3300.735
  -8900149.862 9  -6788733.59548  19481787.295    19481789.0754   19481795.1584
       169.265         131.895
   -124113.466 9     74917.17447  21702018.999    21702021.2064   21702028.6614
     -1829.306       -1425.433
 -19163670.821 9 -14910627.90948  18823484.943    18823486.8964   18823492.8504
       291.257         226.954
 -11859056.443 9  -8957589.71747  21372052.726    21372054.5564   21372061.3684
      -235.066        -183.168
   -517463.186 9   -387572.23246  21939111.591    21939116.0645   21939123.0714
      4499.423        3506.044
   4638932.688 9   3614120.48847  22000234.847    22000236.7384   22000243.9014
     -1057.940        -824.369
 96 10 31 18 32 59.9940000  0  7 25 21  3  1 31 15 23               -0.005148201
 -10862091.713 9  -8435254.10547  21562764.145    21562766.4154   21562773.0594
      4232.249        3297.856
  -8905107.947 9  -6792597.04848  19480843.747    19480845.5614   19480851.6934
       161.888         126.146
    -69149.947 9    117745.84747  21712478.230    21712480.4584   21712487.8844
     -1834.354       -1429.367
 -19172185.163 9 -14917262.46348  18821864.648    18821866.6474   18821872.6034
       277.239         216.030
 -11851770.622 9  -8951912.48147  21373439.160    21373441.0004   21373447.8114
      -249.796        -194.646
   -652381.187 9   -492703.13256  21913438.813    21913442.3934   21913450.1855
      4495.768        3503.196
   4670715.366 9   3638886.15247  22006282.958    22006284.8444   22006291.9784
     -1060.285        -826.196
 96 10 31 18 33 29.9940000  0  7 25 21  3  1 31 15 23               -0.005168541
 -10988933.735 9  -8534091.99547  21538626.992    21538629.1114   21538635.8174
      4225.575        3292.656
  -8909798.023 9  -6796251.66048  19479951.247    19479953.0534   19479959.2124
       152.664         118.959
    -13981.252 9    160734.37847  21722976.510    21722978.7604   21722986.2344
     -1841.883       -1435.234
 -19180237.641 9 -14923537.12348  18820332.440    18820334.2814   18820340.2554
       261.550         203.805
 -11844001.818 9  -8945858.89947  21374917.580    21374919.3974   21374926.1774
      -266.337        -207.535
   -787138.733 9   -597709.00246  21887795.977    21887798.6515   21887806.2804
      4489.823        3498.563
   4702627.711 9   3663752.85947  22012355.724    22012357.5934   22012364.7584
     -1065.535        -830.287
 96 10 31 18 33 59.9940000  0  7 25 21  3  1 31 15 23               -0.005188853
 -11115573.625 9  -8632772.36747  21514528.213    21514530.2554   21514537.0154
      4216.593        3285.657
  -8914218.011 9  -6799695.81748  19479110.105    19479111.9504   19479118.1264
       141.370         110.158
     41402.442 9    203890.44547  21733515.534    21733517.9604   21733525.4684
     -1850.881       -1442.245
 -19187836.170 9 -14929458.06248  18818886.477    18818888.3344   18818894.3084
       244.589         190.589
 -11835749.767 9  -8939428.74647  21376487.959    21376489.7494   21376496.5634
      -284.357        -221.577
   -921725.588 9   -702581.85346  21862185.181    21862187.6154   21862195.1394
      4482.068        3492.521
   4734695.298 9   3688740.53647  22018458.034    22018459.9104   22018467.1054
     -1072.849        -835.986
 96 10 31 18 34 29.9940000  0  7 25 21  3  1 31 15 23               -0.005209124
 -11241995.899 9  -8731283.18847  21490470.563    21490472.7944   21490479.5104
      4210.882        3281.207
  -8918343.679 9  -6802910.63748  19478325.046    19478326.8444   19478333.0614
       133.214         103.803
     97008.303 9    247219.62847  21744097.050    21744099.4944   21744106.9934
     -1856.704       -1446.782
 -19194977.946 9 -14935023.09248  18817527.426    18817529.2954   18817535.2574
       230.970         179.977
 -11827010.363 9  -8932618.85547  21378150.995    21378152.8004   21378159.6564
      -298.822        -232.848
  -1056122.280 9   -807306.52346  21836610.463    21836612.8024   21836620.2604
      4477.029        3488.594
   4766932.919 9   3713860.70647  22024592.617    22024594.5414   22024601.7614
     -1076.993        -839.215
 96 10 31 18 34 59.9940000  0  7 25 21  3  1 31 15 23               -0.005229369
 -11368226.410 9  -8829644.56047  21466449.863    21466451.9354   21466458.6024
      4204.865        3276.518
  -8922222.944 9  -6805933.45248  19477586.854    19477588.6544   19477594.8854
       125.966          98.155
    152793.351 9    290688.43247  21754712.671    21754715.0644   21754722.5964
     -1861.815       -1450.765
 -19201714.030 9 -14940271.99448  18816245.391    18816247.4634   18816253.4264
       218.494         170.255
 -11817840.413 9  -8925473.46547  21379896.043    21379897.8484   21379904.6514
      -312.370        -243.405
  -1190355.124 9   -911903.51746  21811066.801    21811069.0924   21811076.5234
      4472.176        3484.812
   4799301.119 9   3739082.62647  22030752.264    22030754.0444   22030761.2984
     -1080.345        -841.827
 96 10 31 18 35 29.9940000  0  7 25 21  3  1 31 15 23               -0.005249601
 -11494272.169 9  -8927861.97547  21442464.057    21442466.1934   21442472.8414
      4197.461        3270.749
  -8925888.708 9  -6808789.90648  19476889.290    19476891.0984   19476897.3444
       117.503          91.561
    208736.716 9    334280.60647  21765358.280    21765360.7394   21765368.2964
     -1868.611       -1456.061
 -19208068.286 9 -14945223.37148  18815036.296    18815038.3134   18815044.2494
       204.146         159.075
 -11808233.481 9  -8917987.57347  21381724.221    21381725.9944   21381732.7554
      -329.097        -256.439
  -1324433.288 9  -1016379.98146  21785552.565    21785554.8224   21785562.2624
      4465.436        3479.561
   4831770.401 9   3764383.30947  22036930.962    22036932.7834   22036940.0604
     -1085.245        -845.645
 96 10 31 18 35 59.9940000  0  7 25 21  3  1 31 15 23               -0.005269798
 -11620112.744 9  -9025919.48647  21418517.627    21418519.5544   21418526.1204
      4191.600        3266.182
  -8929310.176 9  -6811456.00148  19476238.239    19476240.0414   19476246.2984
       110.224          85.889
    264869.226 9    378020.17247  21776040.030    21776042.4034   21776050.0184
     -1874.003       -1460.262
 -19214004.133 9 -14949848.71848  18813906.704    18813908.7474   18813914.7214
       191.112         148.918
 -11798134.253 9  -8910118.08047  21383645.950    21383647.8154   21383654.5754
      -344.656        -268.563
  -1458317.819 9  -1120705.56546  21760075.234    21760077.4264   21760084.8434
      4459.725        3475.110
   4864371.789 9   3789786.93147  22043134.800    22043136.6564   22043143.9784
     -1088.631        -848.284
 96 10 31 18 36 29.9940000  0  7 25 21  3  1 31 15 23               -0.005289984
 -11745791.012 9  -9123850.53447  21394601.695    21394603.7054   21394610.2574
      4187.123        3262.693
  -8932526.480 9  -6813962.22648  19475626.228    19475628.0254   19475634.2684
       104.434          81.377
    321159.469 9    421882.62947  21786751.886    21786754.1214   21786761.7154
     -1878.468       -1463.741
 -19219555.751 9 -14954174.66848  18812850.357    18812852.3174   18812858.2834
       179.160         139.605
 -11787578.862 9  -8901893.12647  21385654.595    21385656.4494   21385663.2244
      -358.841        -279.616
  -1592036.784 9  -1224902.14746  21734629.334    21734631.5104   21734638.9414
      4455.080        3471.491
   4897068.322 9   3815264.69547  22049356.758    22049358.6594   22049365.9924
     -1090.904        -850.055
 96 10 31 18 36 59.9940000  0  7 25 21  3  1 31 15 23               -0.005310133
 -11871252.647 9  -9221612.76947  21370727.029    21370729.1004   21370735.6474
      4178.931        3256.310
  -8935484.065 9  -6816266.84748  19475063.389    19475065.2294   19475071.4704
        94.399          73.558
    377661.029 9    465909.76547  21797503.963    21797506.0364   21797513.6824
     -1886.492       -1469.994
 -19224656.494 9 -14958149.28648  18811879.788    18811881.7014   18811887.6464
       162.604         126.704
 -11776513.581 9  -8893270.85447  21387760.301    21387762.1364   21387768.9354
      -377.184        -293.910
  -1725536.783 9  -1328928.10046  21709225.126    21709227.2764   21709234.7024
      4446.725        3464.981
   4929913.715 9   3840858.45147  22055607.294    22055608.9634   22055616.3364
     -1097.002        -854.807
 96 10 31 18 37 29.9940000  0  7 25 21  3  1 31 15 23               -0.005330282
 -11996551.561 9  -9319248.21647  21346883.278    21346885.5434   21346891.9814
      4173.811        3252.320
  -8938206.032 9  -6818387.87048  19474545.414    19474547.2364   19474553.5054
        86.595          67.477
    434322.606 9    510061.58047  21808286.241    21808288.4224   21808296.1254
     -1891.318       -1473.754
 -19229327.676 9 -14961789.18248  18810990.896    18810992.8194   18810998.7604
       148.557         115.759
 -11764969.420 9  -8884275.42847  21389957.182    21389958.9994   21389965.8064
      -392.512        -305.853
  -1858862.017 9  -1432817.87647  21683854.151    21683856.3194   21683863.6834
      4441.288        3460.744
   4962869.216 9   3866538.00547  22061878.496    22061880.1924   22061887.6364
     -1100.474        -857.512
 96 10 31 18 37 59.9940000  0  7 25 21  3  1 31 15 23               -0.005350419
 -12121652.783 9  -9416729.62147  21323077.262    21323079.5444   21323085.9584
      4165.311        3245.697
  -8940662.092 9  -6820301.69348  19474078.012    19474079.8764   19474086.1484
        76.314          59.465
    491150.294 9    554342.83847  21819100.343    21819102.4144   21819110.1534
     -1898.011       -1478.970
 -19233553.606 9 -14965082.12648  18810186.732    18810188.6634   18810194.6124
       132.277         103.073
 -11752957.186 9  -8874915.26647  21392243.005    21392244.8374   21392251.7124
      -409.368        -318.988
  -1991996.916 9  -1536559.33647  21658519.437    21658521.5734   21658528.9044
      4433.462        3454.646
   4995961.201 9   3892323.90747  22068175.813    22068177.4254   22068184.8564
     -1106.515        -862.219
 96 10 31 18 38 29.9940000  0  7 25 21  3  1 31 15 23               -0.005370524
 -12246509.120 9  -9514020.20547  21299317.661    21299320.1014   21299326.5004
      4157.227        3239.398
  -8942817.742 9  -6821981.43448  19473667.820    19473669.6734   19473675.9484
        66.069          51.482
    548160.620 9    598766.40247  21829948.995    21829951.2054   21829958.9174
     -1903.937       -1483.587
 -19237304.928 9 -14968005.24548  18809472.841    18809474.7984   18809480.7734
       116.475          90.760
 -11740446.968 9  -8865167.07947  21394623.714    21394625.4644   21394632.3144
      -425.999        -331.947
  -2124910.934 9  -1640128.68847  21633226.731    21633228.8484   21633236.2034
      4426.171        3448.964
   5029221.616 9   3918241.05847  22074504.999    22074506.7534   22074514.1524
     -1112.069        -866.547
 96 10 31 18 38 59.9940000  0  7 25 21  3  1 31 15 23               -0.005390617
 -12371149.948 9  -9611142.86747  21275599.432    21275601.6944   21275608.0804
      4152.656        3235.836
  -8944690.741 9  -6823440.91948  19473311.456    19473313.2754   19473319.5524
        59.426          46.306
    605317.598 9    643304.24747  21840825.561    21840827.8364   21840835.6194
     -1906.011       -1485.203
 -19240605.802 9 -14970577.36148  18808844.626    18808846.6694   18808852.6464
       104.182          81.181
 -11727462.664 9  -8855049.46747  21397094.563    21397096.3304   21397103.1714
      -439.141        -342.188
  -2257630.413 9  -1743546.44547  21607971.113    21607973.1714   21607980.4974
      4422.278        3445.931
   5062621.486 9   3944266.87847  22080860.843    22080862.5474   22080869.9654
     -1114.049        -868.090
 96 10 31 18 39 29.9940000  0  7 25 21  3  1 31 15 23               -0.005410732
 -12495629.877 9  -9708140.15747  21251911.611    21251913.9664   21251920.2754
      4145.465        3230.232
  -8946345.896 9  -6824730.65648  19472996.515    19472998.3264   19473004.5734
        50.455          39.316
    662561.779 9    687910.04547  21851718.933    21851721.0504   21851728.9494
     -1910.847       -1488.972
 -19243526.551 9 -14972853.27148  18808288.858    18808290.8854   18808296.8664
        90.016          70.142
 -11714067.877 9  -8844611.99247  21399643.455    21399645.2414   21399652.1514
      -454.348        -354.037
  -2390208.795 9  -1846854.24447  21582742.370    21582744.3124   21582751.6844
      4415.736        3440.833
   5096099.075 9   3970353.25747  22087231.680    22087233.1434   22087240.6224
     -1118.220        -871.340
 96 10 31 18 39 59.9940000  0  7 25 21  3  1 31 15 23               -0.005430841
 -12619899.826 9  -9804973.82647  21228263.776    21228266.0874   21228272.4764
      4140.664        3226.491
  -8947739.219 9  -6825816.37148  19472731.425    19472733.2064   19472739.4474
        43.686          34.041
    719947.811 9    732626.36047  21862639.277    21862641.3194   21862649.1734
     -1913.747       -1491.231
 -19246024.911 9 -14974800.05048  18807813.500    18807815.4804   18807821.4654
        77.823          60.641
 -11700224.992 9  -8833825.34947  21402277.679    21402279.4724   21402286.4104
      -467.495        -364.282
  -2522594.161 9  -1950011.64647  21557550.239    21557552.1934   21557559.5734
      4411.166        3437.272
   5129691.753 9   3996529.31047  22093624.181    22093625.7084   22093633.1754
     -1119.945        -872.684
 96 10 31 18 40 29.9940000  0  7 25 21  3  1 31 15 23               -0.005450977
 -12744032.281 9  -9901700.36147  21204641.927    21204644.3074   21204650.7864
      4132.941        3220.474
  -8948918.955 9  -6826735.65548  19472506.930    19472508.7154   19472514.9604
        33.247          25.907
    777441.503 9    777426.58847  21873579.969    21873582.0444   21873589.9204
     -1921.145       -1496.996
 -19248143.256 9 -14976450.70648  18807410.397    18807412.3774   18807418.3814
        61.500          47.922
 -11685972.267 9  -8822719.35747  21404989.991    21404991.7844   21404998.6774
      -484.491        -377.525
  -2654826.649 9  -2053049.90747  21532387.208    21532389.1534   21532396.5554
      4402.425        3430.461
   5163347.924 9   4022754.83747  22100028.917    22100030.3564   22100037.8334
     -1125.708        -877.175
 96 10 31 18 40 59.9940000  0  7 25 21  3  1 31 15 23               -0.005471065
 -12867913.330 9  -9998231.00547  21181068.384    21181070.4894   21181076.9424
      4126.372        3215.355
  -8949779.847 9  -6827406.49748  19472343.070    19472344.9014   19472351.1314
        24.774          19.304
    835170.553 9    822410.19647  21884565.445    21884567.5684   21884575.4584
     -1926.634       -1501.273
 -19249755.694 9 -14977707.15448  18807103.526    18807105.5384   18807111.5604
        46.726          36.410
 -11671202.718 9  -8811210.65847  21407800.668    21407802.3904   21407809.3044
      -499.580        -389.283
  -2786779.993 9  -2155870.67247  21507277.302    21507279.2744   21507286.6474
      4395.120        3424.769
   5197194.776 9   4049128.95347  22106469.732    22106471.2444   22106478.6764
     -1130.160        -880.644
 96 10 31 18 41 29.9940000  0  7 25 21  3  1 31 15 23               -0.005491157
 -12991616.534 9 -10094623.07147  21157528.483    21157530.5504   21157536.9684
      4120.214        3210.556
  -8950404.500 9  -6827893.25748  19472224.242    19472226.0584   19472232.2744
        16.651          12.975
    893035.410 9    867499.62747  21895576.815    21895578.9484   21895586.8194
     -1931.289       -1504.900
 -19250946.987 9 -14978635.43149  18806876.880    18806878.8604   18806884.8744
        32.498          25.323
 -11656002.861 9  -8799366.63447  21410693.118    21410694.8714   21410701.8384
      -514.055        -400.562
  -2918534.786 9  -2258536.73247  21482205.225    21482207.1634   21482214.5424
      4388.295        3419.451
   5231160.820 9   4075595.93247  22112933.269    22112934.8194   22112942.2394
     -1134.452        -883.989
 96 10 31 18 41 59.9940000  0  7 25 21  3  1 31 15 23               -0.005511237
 -13115127.925 9 -10190865.65847  21134024.773    21134026.9774   21134033.5364
      4111.923        3204.096
  -8950786.250 9  -6828190.73548  19472151.661    19472153.4334   19472159.6404
         7.098           5.531
    951044.410 9    912701.38547  21906615.608    21906617.7304   21906625.6624
     -1937.771       -1509.951
 -19251714.184 9 -14979233.24049  18806730.984    18806732.8984   18806738.8834
        16.975          13.227
 -11640360.007 9  -8787177.42447  21413669.936    21413671.6194   21413678.5224
      -530.738        -413.562
  -3050077.258 9  -2361037.34347  21457173.507    21457175.4484   21457182.8284
      4379.397        3412.517
   5265264.259 9   4102169.97647  22119422.792    22119424.5794   22119431.9764
     -1140.877        -888.995
 96 10 31 18 42 29.9940000  0  7 25 21  3  1 31 15 23               -0.005531274
 -13238400.086 9 -10286921.84947  21110566.898    21110569.0364   21110575.5654
      4106.182        3199.622
  -8950908.869 9  -6828286.29748  19472128.378    19472130.1214   19472136.3214
         1.317           1.026
   1009230.819 9    958041.37347  21917687.938    21917690.2244   21917698.2684
     -1941.064       -1512.517
 -19252040.452 9 -14979487.47448  18806668.761    18806670.8284   18806676.7794
         4.876           3.799
 -11624231.032 9  -8774609.42747  21416739.096    21416740.8904   21416747.7704
      -544.341        -424.162
  -3181370.630 9  -2463343.85747  21432189.185    21432191.1414   21432198.4904
      4373.654        3408.042
   5299545.641 9   4128882.66947  22125946.397    22125948.1324   22125955.6144
     -1144.313        -891.672
 96 10 31 18 42 59.9940000  0  7 25 21  3  1 31 15 23               -0.005551315
 -13361478.069 9 -10382826.75647  21087146.032    21087148.1374   21087154.5074
      4099.408        3194.344
  -8950848.244 9  -6828239.07348  19472139.969    19472141.6584   19472147.8694
        -5.089          -3.965
   1067508.570 9   1003452.53947  21928777.904    21928780.1254   21928788.2344
     -1943.719       -1514.586
 -19251999.677 9 -14979455.70049  18806676.542    18806678.6014   18806684.5124
        -7.191          -5.603
 -11607684.810 9  -8761716.29647  21419887.686    21419889.5464   21419896.4484
      -558.350        -435.078
  -3312485.840 9  -2565511.54147  21407238.787    21407240.7624   21407248.0784
      4367.735        3403.430
   5333930.223 9   4155675.78347  22132489.481    22132491.3554   22132498.8414
     -1147.605        -894.238
 96 10 31 18 43 29.9940000  0  7 25 21  3  1 31 15 23               -0.005571342
 -13484326.780 9 -10478552.98447  21063768.633    21063770.7214   21063777.1624
      4089.480        3186.608
  -8950570.733 9  -6828022.84448  19472192.699    19472194.4694   19472200.7074
       -14.389         -11.212
   1125897.911 9   1048950.67047  21939888.975    21939891.2604   21939899.4084
     -1949.996       -1519.477
 -19251572.428 9 -14979122.77549  18806757.881    18806759.9094   18806765.8234
       -22.200         -17.299
 -11590696.329 9  -8748478.55447  21423120.507    21423122.3384   21423129.2174
      -575.210        -448.216
  -3443396.121 9  -2667519.53047  21382327.420    21382329.3714   21382336.6784
      4358.596        3396.309
   5368436.408 9   4182563.65047  22139055.917    22139057.7294   22139065.1804
     -1153.636        -898.937
 96 10 31 18 43 59.9940000  0  7 25 21  3  1 31 15 23               -0.005591336
 -13606911.164 9 -10574073.24547  21040441.446    21040443.6104   21040450.1534
      4083.948        3182.297
  -8950050.412 9  -6827617.41848  19472291.734    19472293.5054   19472299.7264
       -19.163         -14.932
   1184440.865 9   1094568.48546  21951029.530    21951031.6454   21951039.8024
     -1951.539       -1520.680
 -19250738.473 9 -14978472.93749  18806916.566    18806918.5994   18806924.5014
       -32.353         -25.210
 -11573238.506 9  -8734875.08847  21426442.709    21426444.5294   21426451.3764
      -587.384        -457.702
  -3574065.034 9  -2769339.43947  21357461.933    21357463.9084   21357471.2254
      4353.894        3392.645
   5403081.068 9   4209559.42247  22145648.556    22145650.4514   22145657.9314
     -1154.845        -899.879
 96 10 31 18 44 29.9940000  0  7 25 21  3  1 31 15 23               -0.005611341
 -13729278.299 9 -10669424.23447  21017155.886    21017157.9364   21017164.4184
      4074.262        3174.750
  -8949331.358 9  -6827057.13248  19472428.610    19472430.3444   19472436.5694
       -28.540         -22.239
   1243072.602 9   1140255.48246  21962186.816    21962188.9824   21962197.1314
     -1956.830       -1524.803
 -19249537.852 9 -14977537.38949  18807145.029    18807147.0624   18807152.9554
       -47.341         -36.889
 -11555374.766 9  -8720955.32747  21429841.969    21429843.8884   21429850.7094
      -603.101        -469.949
  -3704545.432 9  -2871012.45547  21332632.322    21332634.3054   21332641.6224
      4345.086        3385.781
   5437809.554 9   4236620.50747  22152257.153    22152259.1674   22152266.5984
     -1160.154        -904.016
 96 10 31 18 44 59.9940000  0  7 25 21  3  1 31 15 23               -0.005631305
 -13851351.612 9 -10764546.27447  20993925.972    20993928.1404   20993934.5684
      4065.260        3167.735
  -8948313.496 9  -6826264.01148  19472622.300    19472624.0794   19472630.2834
       -38.353         -29.885
   1301862.195 9   1186065.49546  21973374.145    21973376.3134   21973384.4874
     -1961.451       -1528.403
 -19247890.730 9 -14976253.92448  18807458.406    18807460.4904   18807466.3904
       -61.277         -47.748
 -11537042.908 9  -8706670.79747  21433330.498    21433332.3754   21433339.1894
      -617.982        -481.544
  -3834754.447 9  -2972474.01247  21307854.340    21307856.3514   21307863.6664
      4336.595        3379.165
   5472706.107 9   4263812.56746  22158897.799    22158899.7974   22158907.2824
     -1165.195        -907.944
 96 10 31 18 45 29.9940000  0  7 25 21  3  1 31 15 23               -0.005651255
 -13973203.341 9 -10859495.65147  20970738.275    20970740.4694   20970746.9354
      4058.618        3162.559
  -8947037.675 9  -6825269.88248  19472865.150    19472866.8804   19472873.0904
       -46.237         -36.029
   1360757.792 9   1231958.10246  21984581.692    21984583.8194   21984591.9894
     -1964.406       -1530.706
 -19245875.210 9 -14974683.39849  18807842.009    18807844.0434   18807849.9344
       -72.626         -56.592
 -11518313.308 9  -8692076.33647  21436894.621    21436896.4864   21436903.3564
      -630.238        -491.095
  -3964747.688 9  -3073767.42847  21283117.446    21283119.4504   21283126.7454
      4330.119        3374.119
   5507711.448 9   4291089.38446  22165559.206    22165561.1314   22165568.6674
     -1167.911        -910.061
 96 10 31 18 45 59.9940000  0  7 25 21  3  1 31 15 23               -0.005671199
 -14094835.844 9 -10954274.19347  20947592.379    20947594.5744   20947601.0484
      4049.406        3155.381
  -8945500.321 9  -6824071.96248  19473157.717    19473159.4584   19473165.6714
       -56.939         -44.368
   1419753.941 9   1277929.05946  21995808.424    21995810.4664   21995818.5894
     -1969.407       -1534.603
 -19243498.645 9 -14972831.53749  18808294.223    18808296.2874   18808302.1814
       -86.650         -67.519
 -11499199.700 9  -8677182.64747  21440531.966    21440533.7414   21440540.6014
      -644.849        -502.480
  -4094531.050 9  -3174897.29847  21258420.502    21258422.4874   21258429.7934
      4321.348        3367.284
   5542812.271 9   4318440.60546  22172238.708    22172240.6444   22172248.2094
     -1173.097        -914.101
 96 10 31 18 46 29.9940000  0  7 25 21  3  1 31 15 23               -0.005691103
 -14216193.347 9 -11048838.45447  20924498.893    20924500.9894   20924507.5184
      4042.928        3150.334
  -8943644.832 9  -6822626.14748  19473510.848    19473512.5844   19473518.7984
       -64.801         -50.494
   1478896.144 9   1324013.82246  22007063.009    22007065.0034   22007073.0874
     -1971.653       -1536.353
 -19240702.253 9 -14970652.54549  18808826.403    18808828.4214   18808834.3014
       -97.889         -76.277
 -11479649.478 9  -8661948.74147  21444252.256    21444254.0734   21444260.9024
      -656.846        -511.828
  -4224053.112 9  -3275823.56247  21233773.282    21233775.2624   21233782.5214
      4315.262        3362.542
   5578072.312 9   4345915.89046  22178948.766    22178950.4494   22178958.0024
     -1175.741        -916.162
 96 10 31 18 46 59.9940000  0  7 25 21  3  1 31 15 23               -0.005710998
 -14337323.284 9 -11143225.39147  20901448.615    20901450.6984   20901457.2304
      4033.188        3142.744
  -8941526.599 9  -6820975.59648  19473913.954    19473915.7124   19473921.9104
       -75.716         -58.999
   1538138.679 9   1370176.76046  22018336.689    22018338.5794   22018346.6304
     -1977.153       -1540.639
 -19237536.917 9 -14968186.05949  18809428.706    18809430.7724   18809436.6594
      -112.528         -87.684
 -11459701.398 9  -8646404.81947  21448048.210    21448050.0884   21448056.9234
      -672.524        -524.045
  -4353359.379 9  -3376581.66747  21209167.095    21209169.1024   21209176.3284
      4305.855        3355.212
   5613440.804 9   4373475.67746  22185679.166    22185680.9324   22185688.4594
     -1181.303        -920.496
 96 10 31 18 47 29.9940000  0  7 25 21  3  1 31 15 23               -0.005730867
 -14458176.726 9 -11237396.88447  20878450.962    20878453.0654   20878459.5614
      4023.148        3134.921
  -8939104.399 9  -6819088.19248  19474374.878    19474376.6674   19474382.8524
       -86.156         -67.135
   1597526.323 9   1416452.78746  22029637.765    22029639.7334   22029647.8004
     -1982.311       -1544.658
 -19233938.735 9 -14965382.29749  18810113.461    18810115.4964   18810121.3724
      -127.878         -99.645
 -11439296.206 9  -8630504.70347  21451931.335    21451933.0814   21451940.0034
      -688.320        -536.353
  -4482399.472 9  -3477132.35947  21184611.583    21184613.5934   21184620.7964
      4296.320        3347.782
   5648954.865 9   4401148.90746  22192437.072    22192439.1044   22192446.6664
     -1186.730        -924.725
 96 10 31 18 47 59.9940000  0  7 25 21  3  1 31 15 23               -0.005750706
 -14578724.690 9 -11331330.33147  20855511.246    20855513.5344   20855520.0744
      4013.306        3127.251
  -8936381.090 9  -6816966.15148  19474893.142    19474894.9254   19474901.0874
       -95.501         -74.416
   1657058.707 9   1462841.58646  22040966.591    22040968.4344   22040976.4954
     -1986.618       -1548.014
 -19229879.254 9 -14962219.07749  18810885.932    18810887.9994   18810893.8654
      -142.781        -111.258
 -11418413.598 9  -8614232.56947  21455905.141    21455906.9474   21455913.8974
      -704.166        -548.701
  -4611154.146 9  -3577460.65847  21160110.423    21160112.3444   21160119.5814
      4287.119        3340.612
   5684631.200 9   4428948.57446  22199226.476    22199228.1284   22199235.7114
     -1192.024        -928.850
 96 10 31 18 48 29.9940000  0  7 25 21  3  1 31 15 23               -0.005770527
 -14698999.336 9 -11425050.80747  20832623.747    20832626.0204   20832632.5694
      4005.540        3121.200
  -8933394.736 9  -6814639.14648  19475461.433    19475463.2424   19475469.3734
      -103.072         -80.316
   1716706.673 9   1509320.45146  22052317.129    22052319.0994   22052327.1584
     -1989.249       -1550.064
 -19225392.468 9 -14958722.89849  18811739.758    18811741.8114   18811747.6934
      -155.684        -121.312
 -11397059.725 9  -8597593.22747  21459968.649    21459970.4714   21459977.4414
      -718.725        -560.045
  -4739643.651 9  -3677582.32947  21135659.687    21135661.5584   21135668.8304
      4279.413        3334.608
   5720454.549 9   4456862.79646  22206043.632    22206045.0934   22206052.7364
     -1195.553        -931.600
 96 10 31 18 48 59.9940000  0  7 25 21  3  1 31 15 23               -0.005790340
 -14819020.062 9 -11518573.42947  20809784.472    20809786.8504   20809793.3334
      3995.700        3113.532
  -8930158.974 9  -6812117.78848  19476077.166    19476079.0004   19476085.1564
      -112.905         -87.978
   1776442.359 9   1555867.67446  22063684.369    22063686.4674   22063694.5154
     -1993.339       -1553.251
 -19220507.674 9 -14954916.57849  18812669.347    18812671.3704   18812677.2334
      -170.068        -132.520
 -11375262.996 9  -8580608.79847  21464116.496    21464118.2864   21464125.2664
      -734.447        -572.296
  -4867885.787 9  -3777511.24848  21111256.017    21111257.8924   21111265.1524
      4269.875        3327.175
   5756400.072 9   4484872.22746  22212883.792    22212885.3334   22212893.0074
     -1200.973        -935.823
 96 10 31 18 49 29.9940000  0  7 25 21  3  1 31 15 23               -0.005810126
 -14938760.746 9 -11611877.83347  20786998.606    20787000.9574   20787007.4674
      3986.199        3106.129
  -8926647.299 9  -6809381.43348  19476745.458    19476747.2944   19476753.4214
      -121.891         -94.980
   1836285.942 9   1602498.96746  22075072.357    22075074.4194   22075082.4264
     -1997.048       -1556.141
 -19215215.229 9 -14950792.60749  18813676.443    18813678.4934   18813684.3444
      -183.425        -142.929
 -11353023.138 9  -8563279.07747  21468348.670    21468350.3934   21468357.3934
      -748.764        -583.452
  -4995857.589 9  -3877229.52047  21086903.790    21086905.6834   21086912.9024
      4260.841        3320.136
   5792494.530 9   4512997.70746  22219752.410    22219753.9364   22219761.6134
     -1206.227        -939.917
 96 10 31 18 49 59.9940000  0  7 25 21  3  1 31 15 23               -0.005829897
 -15058239.793 9 -11704978.36547  20764262.510    20764264.8054   20764271.3394
      3977.614        3099.439
  -8922895.977 9  -6806458.33948  19477459.373    19477461.1594   19477467.3264
      -129.760        -101.112
   1896216.038 9   1649197.67646  22086476.616    22086478.7714   22086486.7944
     -1999.817       -1558.299
 -19209550.649 9 -14946378.66149  18814754.350    18814756.4444   18814762.2724
      -195.677        -152.476
 -11330383.376 9  -8545637.73447  21472656.843    21472658.6474   21472665.6084
      -762.070        -593.821
  -5123583.823 9  -3976756.43447  21062598.262    21062600.1664   21062607.4054
      4252.711        3313.801
   5828724.874 9   4541229.07246  22226646.589    22226648.4164   22226656.1144
     -1210.750        -943.442
 96 10 31 18 50 29.9940000  0  7 25 21  3  1 31 15 23               -0.005849628
 -15177424.698 9 -11797849.69947  20741582.307    20741584.6594   20741591.1504
      3967.147        3091.283
  -8918866.014 9  -6803318.12948  19478226.275    19478228.0704   19478234.2134
      -139.612        -108.788
   1956267.479 9   1695990.94046  22097904.095    22097906.2524   22097914.2954
     -2004.363       -1561.841
 -19203478.172 9 -14941646.87349  18815910.004    18815911.9864   18815917.8454
      -210.114        -163.725
 -11307313.854 9  -8527661.52147  21477046.862    21477048.6574   21477055.6744
      -776.534        -605.091
  -5251026.154 9  -4076062.13547  21038346.705    21038348.6794   21038355.8924
      4242.697        3305.998
   5865129.050 9   4569595.87946  22233573.950    22233575.9724   22233583.6574
     -1216.726        -948.098
 96 10 31 18 50 59.9940000  0  7 25 21  3  1 31 15 23               -0.005869345
 -15296316.125 9 -11890492.34947  20718957.977    20718960.3364   20718966.8494
      3957.143        3083.488
  -8914570.470 9  -6799970.96948  19479043.713    19479045.5164   19479051.6454
      -148.625        -115.812
   2016425.883 9   1742867.54746  22109352.011    22109354.0774   22109362.1644
     -2008.148       -1564.791
 -19196988.330 9 -14936589.86149  18817144.925    18817146.9764   18817152.8144
      -224.339        -174.810
 -11283852.453 9  -8509379.95247  21481511.504    21481513.2334   21481520.2384
      -789.633        -615.298
  -5378192.987 9  -4175153.16047  21014147.638    21014149.6294   21014156.8434
      4233.196        3298.594
   5901680.568 9   4598077.51546  22240529.898    22240531.5184   22240539.2254
     -1221.839        -952.082
 96 10 31 18 51 29.9940000  0  7 25 21  3  1 31 15 23               -0.005889058
 -15414928.445 9 -11982917.51447  20696386.863    20696389.1104   20696395.6614
      3950.514        3078.323
  -8910023.891 9  -6796428.20348  19479908.925    19479910.7114   19479916.8244
      -154.471        -120.367
   2076686.475 9   1789823.78246  22120819.200    22120821.3184   22120829.4704
     -2008.977       -1565.437
 -19190094.684 9 -14931218.20349  18818456.837    18818458.8104   18818464.6574
      -235.108        -183.201
 -11260005.638 9  -8490798.04747  21486049.331    21486051.1104   21486058.1784
      -800.180        -623.517
  -5505088.453 9  -4274032.72947  20990000.203    20990002.2304   20990009.4604
      4226.573        3293.434
   5938366.120 9   4626663.56746  22247510.745    22247512.6634   22247520.3184
     -1223.812        -953.620
 96 10 31 18 51 59.9940000  0  7 25 21  3  1 31 15 23               -0.005908776
 -15533300.647 9 -12075155.57847  20673861.331    20673863.6354   20673870.1904
      3939.841        3070.006
  -8905248.039 9  -6792706.77148  19480817.725    19480819.5384   19480825.6754
      -165.193        -128.722
   2137008.988 9   1836828.26646  22132298.224    22132300.3944   22132308.4024
     -2013.659       -1569.085
 -19182834.656 9 -14925561.04449  18819838.309    18819840.3594   18819846.2264
      -249.988        -194.796
 -11235785.820 9  -8471925.49747  21490658.155    21490660.0334   21490667.0454
      -815.795        -635.684
  -5631736.486 9  -4372719.48347  20965899.858    20965901.8914   20965909.1254
      4215.446        3284.763
   5975153.785 9   4655329.21346  22254511.549    22254513.2044   22254520.7994
     -1229.839        -958.316
 96 10 31 18 52 29.9940000  0  7 25 21  3  1 31 15 23               -0.005928477
 -15651406.414 9 -12167186.02347  20651386.577    20651388.8514   20651395.3924
      3933.020        3064.691
  -8900189.586 9  -6788765.13448  19481780.320    19481782.1504   19481788.2884
      -172.971        -134.782
   2197422.260 9   1883903.47346  22143794.559    22143796.7054   22143804.7414
     -2014.893       -1570.046
 -19175185.935 9 -14919601.00949  18821293.834    18821295.8744   18821301.7374
      -260.867        -203.273
 -11211152.618 9  -8452730.83947  21495345.714    21495347.6114   21495354.5774
      -827.266        -644.623
  -5758103.332 9  -4471187.14547  20941853.035    20941855.0784   20941862.3264
      4208.094        3279.034
   6012065.000 9   4684091.11946  22261535.178    22261537.2844   22261544.8774
     -1231.803        -959.846
 96 10 31 18 52 59.9940000  0  7 25 21  3  1 31 15 23               -0.005948157
 -15769258.002 9 -12259018.41048  20628960.151    20628962.4184   20628968.9514
      3923.632        3057.376
  -8894840.656 9  -6784597.15048  19482798.232    19482800.0324   19482806.1724
      -183.689        -143.134
   2257915.600 9   1931041.06246  22155306.044    22155308.2334   22155316.3104
     -2018.163       -1572.595
 -19167173.942 9 -14913357.90349  18822818.492    18822820.5084   18822826.3764
      -273.105        -212.809
 -11186130.600 9  -8433233.18747  21500107.151    21500109.1074   21500116.1994
      -841.094        -655.398
  -5884198.815 9  -4569443.34947  20917857.919    20917859.9194   20917867.1434
      4198.170        3271.301
   6049091.522 9   4712942.87446  22268581.056    22268583.2044   22268590.7874
     -1236.845        -963.775
 96 10 31 18 53 29.9940000  0  7 25 21  3  1 31 15 23               -0.005967777
 -15886826.633 9 -12350630.31448  20606587.755    20606589.8684   20606596.3574
      3913.720        3049.652
  -8889169.027 9  -6780177.71148  19483877.494    19483879.3294   19483885.4754
      -194.716        -151.727
   2318506.449 9   1978254.64446  22166836.108    22166838.2994   22166846.3984
     -2021.696       -1575.348
 -19158806.992 9 -14906838.20749  18824410.644    18824412.6874   18824418.5524
      -285.352        -222.352
 -11160690.115 9  -8413409.47147  21504948.557    21504950.3394   21504957.3964
      -855.267        -666.442
  -6009998.548 9  -4667469.09047  20893918.990    20893921.0074   20893928.2194
      4188.035        3263.404
   6086276.628 9   4741918.20546  22275657.005    22275659.3724   22275667.0164
     -1242.573        -968.239
 96 10 31 18 53 59.9940000  0  7 25 21  3  1 31 15 23               -0.005987356
 -16004106.056 9 -12442016.85448  20584270.000    20584272.3244   20584278.8654
      3903.221        3041.471
  -8883189.931 9  -6775518.69348  19485015.323    19485017.1164   19485023.2904
      -205.366        -160.025
   2379179.990 9   2025532.64046  22178381.959    22178384.1084   22178392.1874
     -2024.850       -1577.805
 -19150077.430 9 -14900035.95649  18826071.853    18826073.8694   18826079.7444
      -298.267        -232.416
 -11134851.224 9  -8393275.30747  21509865.560    21509867.3364   21509874.4254
      -868.837        -677.016
  -6135511.393 9  -4765271.29147  20870034.701    20870036.6974   20870043.8724
      4177.901        3255.507
   6123608.711 9   4771008.05046  22282761.222    22282763.5364   22282771.1854
     -1247.731        -972.258
 96 10 31 18 54 29.9940000  0  7 25 21  3  1 31 15 23               -0.006006903
 -16121071.622 9 -12533158.83448  20562012.195    20562014.5094   20562021.0304
      3893.702        3034.053
  -8876905.414 9  -6770621.68848  19486211.206    19486213.0354   19486219.2144
      -214.198        -166.907
   2439940.501 9   2072878.43046  22189944.317    22189946.4814   22189954.6374
     -2026.454       -1579.055
 -19140964.791 9 -14892935.20649  18827805.913    18827807.9624   18827813.8294
      -310.005        -241.562
 -11108626.113 9  -8372840.19147  21514856.068    21514857.8354   21514864.8904
      -880.253        -685.911
  -6260728.431 9  -4862842.98547  20846206.733    20846208.6494   20846215.8444
      4169.077        3248.631
   6161090.151 9   4800214.28646  22289893.810    22289896.0564   22289903.7614
     -1251.848        -975.466
 96 10 31 18 54 59.9930000  0  7 25 21  3  1 31 15 23               -0.006026382
 -16237643.367 9 -12623993.92848  20539829.464    20539831.6584   20539838.1424
      3879.315        3022.843
  -8870281.412 9  -6765460.13848  19487471.725    19487473.5564   19487479.7434
      -226.030        -176.127
   2500828.436 9   2120323.51346  22201530.889    22201533.1304   22201541.3394
     -2031.570       -1583.042
 -19131409.326 9 -14885489.39049  18829624.296    18829626.2994   18829632.1714
      -325.773        -253.849
 -11081961.344 9  -8352062.48447  21519930.213    21519931.9984   21519939.0404
      -896.271        -698.393
  -6385582.366 9  -4960131.74247  20822447.754    20822449.7224   20822456.9584
      4156.077        3238.502
   6198797.921 9   4829596.88446  22297069.636    22297071.6314   22297079.4634
     -1260.587        -982.276
 96 10 31 18 55 29.9930000  0  7 25 21  3  1 31 15 23               -0.006045849
 -16353885.454 9 -12714572.14548  20517709.343    20517711.4954   20517717.9824
      3869.146        3014.919
  -8863411.309 9  -6760106.82848  19488779.093    19488780.8844   19488787.1004
      -233.039        -181.589
   2561774.370 9   2167813.77446  22213128.602    22213130.8074   22213139.0464
     -2032.423       -1583.706
 -19121469.273 9 -14877743.90349  18831515.819    18831517.8524   18831523.7164
      -338.130        -263.478
 -11054913.614 9  -8330986.37147  21525077.379    21525079.0704   21525086.1664
      -907.929        -707.477
  -6510149.065 9  -5057196.68447  20798743.554    20798745.4924   20798752.7064
      4147.304        3231.665
   6236659.764 9   4859099.54046  22304274.426    22304276.5514   22304284.3874
     -1264.493        -985.319
 96 10 31 18 55 59.9930000  0  7 25 21  3  1 31 15 23               -0.006065331
 -16469812.033 9 -12804904.51148  20495649.267    20495651.3474   20495657.8164
      3859.729        3007.581
  -8856319.568 9  -6754580.81248  19490128.633    19490130.4444   19490136.6624
      -239.399        -186.545
   2622752.206 9   2215328.89346  22224732.397    22224734.6524   22224742.7464
     -2032.324       -1583.629
 -19111145.475 9 -14869699.39249  18833480.336    18833482.4184   18833488.3124
      -349.509        -272.345
 -11027508.893 9  -8309632.07247  21530292.361    21530294.0404   21530301.1574
      -918.754        -715.912
  -6634439.860 9  -5154046.62847  20775091.777    20775093.7244   20775100.9354
      4139.144        3225.307
   6274649.202 9   4888701.62046  22311503.790    22311505.7844   22311513.6314
     -1267.701        -987.819
 96 10 31 18 56 29.9930000  0  7 25 21  3  1 31 15 23               -0.006084806
 -16585410.082 9 -12894980.87748  20473651.631    20473653.7694   20473660.1894
      3845.162        2996.230
  -8848986.171 9  -6748866.49548  19491524.137    19491525.9394   19491532.1814
      -251.168        -195.715
   2683777.796 9   2262881.23646  22236345.245    22236347.4964   22236355.6174
     -2037.695       -1587.814
 -19100437.959 9 -14861355.88149  18835517.999    18835519.9974   18835525.9184
      -365.943        -285.150
 -10999728.746 9  -8287985.24147  21535578.772    21535580.4774   21535587.5794
      -935.087        -728.639
  -6758434.162 9  -5250665.54447  20751496.338    20751498.3564   20751505.5904
      4125.444        3214.632
   6312790.302 9   4918421.87646  22318761.598    22318763.8144   22318771.7544
     -1276.696        -994.828
 96 10 31 18 56 59.9930000  0  7 25 21  3  1 31 15 23               -0.006104219
 -16700603.136 9 -12984741.66048  20451731.115    20451733.2404   20451739.6314
      3835.481        2988.686
  -8841330.342 9  -6742900.93448  19492981.023    19492982.8054   19492989.0534
      -258.520        -201.444
   2744928.609 9   2310531.14846  22247981.884    22247984.1444   22247992.2224
     -2038.254       -1588.250
 -19089270.387 9 -14852653.88449  18837643.126    18837645.1154   18837651.0634
      -377.700        -294.312
 -10971483.180 9  -8265975.74247  21540953.789    21540955.4314   21540962.5484
      -946.990        -737.914
  -6882049.065 9  -5346988.83747  20727973.170    20727975.1864   20727982.4054
      4116.472        3207.640
   6351163.785 9   4948323.21146  22326064.064    22326066.1344   22326074.0784
     -1280.384        -997.702
 96 10 31 18 57 29.9930000  0  7 25 21  3  1 31 15 23               -0.006123633
 -16815500.356 9 -13074271.92948  20429866.769    20429869.0264   20429875.3664
      3825.133        2980.623
  -8833421.955 9  -6736738.57548  19494485.961    19494487.7564   19494494.0084
      -267.889        -208.745
   2806124.738 9   2358216.37646  22259627.088    22259629.3834   22259637.5694
     -2040.558       -1590.045
 -19077724.277 9 -14843656.92749  18839840.239    18839842.2654   18839848.2224
      -391.149        -304.791
 -10942869.938 9  -8243679.75847  21546398.745    21546400.3734   21546407.4284
      -959.743        -747.852
  -7005371.436 9  -5443084.17347  20704505.697    20704507.7374   20704514.8894
      4105.824        3199.343
   6389662.304 9   4978321.96946  22333390.431    22333392.2864   22333400.2434
     -1285.520       -1001.704
 96 10 31 18 57 59.9930000  0  7 25 21  3  1 31 15 23               -0.006143027
 -16930100.937 9 -13163571.04548  20408059.030    20408061.2534   20408067.5424
      3815.098        2972.804
  -8825234.793 9  -6730358.98848  19496043.951    19496045.7524   19496052.0124
      -277.741        -216.422
   2867383.792 9   2405950.64046  22271284.312    22271286.6334   22271294.7334
     -2043.159       -1592.072
 -19065792.247 9 -14834359.25349  18842110.843    18842112.8534   18842118.8184
      -404.014        -314.816
 -10913878.920 9  -8221089.37447  21551915.478    21551917.1754   21551924.2844
      -972.869        -758.080
  -7128380.230 9  -5538935.16547  20681097.949    20681099.9494   20681107.1074
      4094.965        3190.882
   6428313.120 9   5008439.40646  22340745.461    22340747.3384   22340755.3214
     -1290.965       -1005.947
